<?xml version="1.0" encoding="UTF-8" standalone="no" ?>
<gpx xmlns="http://www.topografix.com/GPX/1/1" xmlns:xsi="http://www.w3.org/2001/XMLSchema-instance" xsi:schemaLocation="http://www.topografix.com/GPX/1/1 http://www.topografix.com/GPX/1/1/gpx.xsd" version="1.1" creator="VisuGPX - https://www.visugpx.com">
  <metadata>
    <name>Sortie à VTT  recherche sentiers</name>
  </metadata>
  <trk>
    <name><![CDATA[Sortie à VTT  recherche sentiers]]></name>
    <extensions>
      <line xmlns="http://www.topografix.com/GPX/gpx_style/0/2">
        <color>0000FF</color>
        <width>4</width>
      </line>
    </extensions>
    <trkseg>
      <trkpt lat="43.65582" lon="1.44611">
        <ele>187.479611</ele>
        <time>2022-08-14T14:02:17.812Z</time>
      </trkpt>
      <trkpt lat="43.65592" lon="1.44618">
        <ele>187.479611</ele>
        <time>2022-08-14T14:02:33.303Z</time>
      </trkpt>
      <trkpt lat="43.65602" lon="1.44626">
        <ele>187.479611</ele>
        <time>2022-08-14T14:02:37.262Z</time>
      </trkpt>
      <trkpt lat="43.6561" lon="1.44636">
        <ele>187.479611</ele>
        <time>2022-08-14T14:02:41.279Z</time>
      </trkpt>
      <trkpt lat="43.65608" lon="1.44649">
        <ele>187.479611</ele>
        <time>2022-08-14T14:02:44.276Z</time>
      </trkpt>
      <trkpt lat="43.65607" lon="1.44662">
        <ele>187.479611</ele>
        <time>2022-08-14T14:02:47.269Z</time>
      </trkpt>
      <trkpt lat="43.65601" lon="1.44673">
        <ele>187.479611</ele>
        <time>2022-08-14T14:02:50.265Z</time>
      </trkpt>
      <trkpt lat="43.65594" lon="1.44684">
        <ele>187.479611</ele>
        <time>2022-08-14T14:02:53.281Z</time>
      </trkpt>
      <trkpt lat="43.65588" lon="1.44697">
        <ele>187.479611</ele>
        <time>2022-08-14T14:02:56.276Z</time>
      </trkpt>
      <trkpt lat="43.65582" lon="1.44709">
        <ele>187.51588</ele>
        <time>2022-08-14T14:02:59.269Z</time>
      </trkpt>
      <trkpt lat="43.65574" lon="1.44723">
        <ele>187.60424</ele>
        <time>2022-08-14T14:03:02.264Z</time>
      </trkpt>
      <trkpt lat="43.65568" lon="1.44737">
        <ele>187.697429</ele>
        <time>2022-08-14T14:03:05.277Z</time>
      </trkpt>
      <trkpt lat="43.6556" lon="1.44752">
        <ele>187.796535</ele>
        <time>2022-08-14T14:03:08.269Z</time>
      </trkpt>
      <trkpt lat="43.65554" lon="1.44763">
        <ele>187.865916</ele>
        <time>2022-08-14T14:03:10.274Z</time>
      </trkpt>
      <trkpt lat="43.65549" lon="1.44774">
        <ele>187.934862</ele>
        <time>2022-08-14T14:03:12.291Z</time>
      </trkpt>
      <trkpt lat="43.65543" lon="1.44785">
        <ele>188.005526</ele>
        <time>2022-08-14T14:03:14.273Z</time>
      </trkpt>
      <trkpt lat="43.65538" lon="1.44795">
        <ele>188.075759</ele>
        <time>2022-08-14T14:03:16.274Z</time>
      </trkpt>
      <trkpt lat="43.65531" lon="1.44805">
        <ele>188.147563</ele>
        <time>2022-08-14T14:03:18.275Z</time>
      </trkpt>
      <trkpt lat="43.65524" lon="1.44814">
        <ele>188.217165</ele>
        <time>2022-08-14T14:03:20.263Z</time>
      </trkpt>
      <trkpt lat="43.65517" lon="1.44823">
        <ele>188.288524</ele>
        <time>2022-08-14T14:03:22.267Z</time>
      </trkpt>
      <trkpt lat="43.65512" lon="1.44835">
        <ele>188.360713</ele>
        <time>2022-08-14T14:03:24.275Z</time>
      </trkpt>
      <trkpt lat="43.65508" lon="1.44847">
        <ele>188.432048</ele>
        <time>2022-08-14T14:03:26.238Z</time>
      </trkpt>
      <trkpt lat="43.65504" lon="1.4486">
        <ele>188.5062</ele>
        <time>2022-08-14T14:03:28.253Z</time>
      </trkpt>
      <trkpt lat="43.65499" lon="1.44872">
        <ele>188.581505</ele>
        <time>2022-08-14T14:03:30.262Z</time>
      </trkpt>
      <trkpt lat="43.65493" lon="1.44883">
        <ele>188.652616</ele>
        <time>2022-08-14T14:03:32.239Z</time>
      </trkpt>
      <trkpt lat="43.65486" lon="1.44898">
        <ele>188.750903</ele>
        <time>2022-08-14T14:03:35.253Z</time>
      </trkpt>
      <trkpt lat="43.65479" lon="1.44914">
        <ele>188.756657</ele>
        <time>2022-08-14T14:03:38.262Z</time>
      </trkpt>
      <trkpt lat="43.65475" lon="1.44925">
        <ele>188.687994</ele>
        <time>2022-08-14T14:03:40.257Z</time>
      </trkpt>
      <trkpt lat="43.65475" lon="1.44939">
        <ele>188.614797</ele>
        <time>2022-08-14T14:03:42.265Z</time>
      </trkpt>
      <trkpt lat="43.65481" lon="1.44955">
        <ele>188.516077</ele>
        <time>2022-08-14T14:03:45.262Z</time>
      </trkpt>
      <trkpt lat="43.65487" lon="1.44967">
        <ele>188.444279</ele>
        <time>2022-08-14T14:03:47.269Z</time>
      </trkpt>
      <trkpt lat="43.65494" lon="1.44976">
        <ele>188.372567</ele>
        <time>2022-08-14T14:03:49.274Z</time>
      </trkpt>
      <trkpt lat="43.65501" lon="1.44985">
        <ele>188.298696</ele>
        <time>2022-08-14T14:03:51.256Z</time>
      </trkpt>
      <trkpt lat="43.65509" lon="1.44995">
        <ele>188.221717</ele>
        <time>2022-08-14T14:03:53.276Z</time>
      </trkpt>
      <trkpt lat="43.65517" lon="1.45005">
        <ele>188.146584</ele>
        <time>2022-08-14T14:03:55.259Z</time>
      </trkpt>
      <trkpt lat="43.65523" lon="1.45015">
        <ele>188.073457</ele>
        <time>2022-08-14T14:03:57.271Z</time>
      </trkpt>
      <trkpt lat="43.6553" lon="1.45025">
        <ele>188.002276</ele>
        <time>2022-08-14T14:03:59.261Z</time>
      </trkpt>
      <trkpt lat="43.65538" lon="1.45034">
        <ele>187.925354</ele>
        <time>2022-08-14T14:04:01.268Z</time>
      </trkpt>
      <trkpt lat="43.65545" lon="1.45044">
        <ele>187.849686</ele>
        <time>2022-08-14T14:04:03.268Z</time>
      </trkpt>
      <trkpt lat="43.65553" lon="1.45055">
        <ele>187.769515</ele>
        <time>2022-08-14T14:04:05.262Z</time>
      </trkpt>
      <trkpt lat="43.6556" lon="1.45065">
        <ele>187.694214</ele>
        <time>2022-08-14T14:04:07.263Z</time>
      </trkpt>
      <trkpt lat="43.65566" lon="1.45075">
        <ele>187.628035</ele>
        <time>2022-08-14T14:04:09.266Z</time>
      </trkpt>
      <trkpt lat="43.65576" lon="1.45085">
        <ele>187.532139</ele>
        <time>2022-08-14T14:04:12.259Z</time>
      </trkpt>
      <trkpt lat="43.65583" lon="1.45095">
        <ele>187.484486</ele>
        <time>2022-08-14T14:04:14.262Z</time>
      </trkpt>
      <trkpt lat="43.65591" lon="1.45105">
        <ele>187.489443</ele>
        <time>2022-08-14T14:04:16.266Z</time>
      </trkpt>
      <trkpt lat="43.65598" lon="1.45116">
        <ele>187.494565</ele>
        <time>2022-08-14T14:04:18.278Z</time>
      </trkpt>
      <trkpt lat="43.65602" lon="1.45129">
        <ele>187.499727</ele>
        <time>2022-08-14T14:04:20.253Z</time>
      </trkpt>
      <trkpt lat="43.65603" lon="1.45144">
        <ele>187.504848</ele>
        <time>2022-08-14T14:04:22.265Z</time>
      </trkpt>
      <trkpt lat="43.65598" lon="1.45157">
        <ele>187.509921</ele>
        <time>2022-08-14T14:04:24.253Z</time>
      </trkpt>
      <trkpt lat="43.65589" lon="1.45167">
        <ele>187.515336</ele>
        <time>2022-08-14T14:04:26.257Z</time>
      </trkpt>
      <trkpt lat="43.65581" lon="1.45177">
        <ele>187.520676</ele>
        <time>2022-08-14T14:04:28.265Z</time>
      </trkpt>
      <trkpt lat="43.65573" lon="1.45188">
        <ele>187.526155</ele>
        <time>2022-08-14T14:04:30.271Z</time>
      </trkpt>
      <trkpt lat="43.65563" lon="1.45198">
        <ele>187.531646</ele>
        <time>2022-08-14T14:04:32.300Z</time>
      </trkpt>
      <trkpt lat="43.65554" lon="1.45207">
        <ele>187.537099</ele>
        <time>2022-08-14T14:04:34.267Z</time>
      </trkpt>
      <trkpt lat="43.65545" lon="1.45217">
        <ele>187.542485</ele>
        <time>2022-08-14T14:04:36.282Z</time>
      </trkpt>
      <trkpt lat="43.65537" lon="1.45226">
        <ele>187.547791</ele>
        <time>2022-08-14T14:04:38.261Z</time>
      </trkpt>
      <trkpt lat="43.65528" lon="1.45236">
        <ele>187.55303</ele>
        <time>2022-08-14T14:04:40.268Z</time>
      </trkpt>
      <trkpt lat="43.6552" lon="1.45246">
        <ele>187.558298</ele>
        <time>2022-08-14T14:04:42.267Z</time>
      </trkpt>
      <trkpt lat="43.6551" lon="1.45255">
        <ele>187.56367</ele>
        <time>2022-08-14T14:04:44.273Z</time>
      </trkpt>
      <trkpt lat="43.65501" lon="1.45264">
        <ele>187.566707</ele>
        <time>2022-08-14T14:04:46.243Z</time>
      </trkpt>
      <trkpt lat="43.65492" lon="1.45274">
        <ele>187.529154</ele>
        <time>2022-08-14T14:04:48.281Z</time>
      </trkpt>
      <trkpt lat="43.65484" lon="1.45283">
        <ele>187.492707</ele>
        <time>2022-08-14T14:04:50.263Z</time>
      </trkpt>
      <trkpt lat="43.65475" lon="1.45292">
        <ele>187.454854</ele>
        <time>2022-08-14T14:04:52.282Z</time>
      </trkpt>
      <trkpt lat="43.65466" lon="1.45301">
        <ele>187.418434</ele>
        <time>2022-08-14T14:04:54.273Z</time>
      </trkpt>
      <trkpt lat="43.65458" lon="1.45312">
        <ele>187.38062</ele>
        <time>2022-08-14T14:04:56.271Z</time>
      </trkpt>
      <trkpt lat="43.65451" lon="1.45324">
        <ele>187.341385</ele>
        <time>2022-08-14T14:04:58.257Z</time>
      </trkpt>
      <trkpt lat="43.65445" lon="1.45337">
        <ele>187.304388</ele>
        <time>2022-08-14T14:05:00.261Z</time>
      </trkpt>
      <trkpt lat="43.65438" lon="1.45348">
        <ele>187.267817</ele>
        <time>2022-08-14T14:05:02.262Z</time>
      </trkpt>
      <trkpt lat="43.65438" lon="1.45362">
        <ele>187.235133</ele>
        <time>2022-08-14T14:05:04.258Z</time>
      </trkpt>
      <trkpt lat="43.65444" lon="1.45371">
        <ele>187.203357</ele>
        <time>2022-08-14T14:05:06.265Z</time>
      </trkpt>
      <trkpt lat="43.65455" lon="1.45373">
        <ele>187.16661</ele>
        <time>2022-08-14T14:05:08.259Z</time>
      </trkpt>
      <trkpt lat="43.65466" lon="1.45377">
        <ele>187.128783</ele>
        <time>2022-08-14T14:05:10.276Z</time>
      </trkpt>
      <trkpt lat="43.65477" lon="1.45381">
        <ele>187.091271</ele>
        <time>2022-08-14T14:05:12.291Z</time>
      </trkpt>
      <trkpt lat="43.65488" lon="1.45384">
        <ele>187.053391</ele>
        <time>2022-08-14T14:05:14.286Z</time>
      </trkpt>
      <trkpt lat="43.65498" lon="1.45388">
        <ele>187.015672</ele>
        <time>2022-08-14T14:05:16.265Z</time>
      </trkpt>
      <trkpt lat="43.65509" lon="1.45392">
        <ele>186.979141</ele>
        <time>2022-08-14T14:05:18.256Z</time>
      </trkpt>
      <trkpt lat="43.65519" lon="1.45395">
        <ele>186.946733</ele>
        <time>2022-08-14T14:05:20.271Z</time>
      </trkpt>
      <trkpt lat="43.6553" lon="1.45399">
        <ele>186.919648</ele>
        <time>2022-08-14T14:05:22.279Z</time>
      </trkpt>
      <trkpt lat="43.6554" lon="1.45402">
        <ele>186.892183</ele>
        <time>2022-08-14T14:05:24.276Z</time>
      </trkpt>
      <trkpt lat="43.65551" lon="1.45406">
        <ele>186.864317</ele>
        <time>2022-08-14T14:05:26.304Z</time>
      </trkpt>
      <trkpt lat="43.65562" lon="1.45409">
        <ele>186.836536</ele>
        <time>2022-08-14T14:05:28.285Z</time>
      </trkpt>
      <trkpt lat="43.65572" lon="1.45413">
        <ele>186.808488</ele>
        <time>2022-08-14T14:05:30.260Z</time>
      </trkpt>
      <trkpt lat="43.65583" lon="1.45417">
        <ele>186.780879</ele>
        <time>2022-08-14T14:05:32.297Z</time>
      </trkpt>
      <trkpt lat="43.65594" lon="1.45421">
        <ele>186.753013</ele>
        <time>2022-08-14T14:05:34.275Z</time>
      </trkpt>
      <trkpt lat="43.65604" lon="1.45425">
        <ele>186.725209</ele>
        <time>2022-08-14T14:05:36.274Z</time>
      </trkpt>
      <trkpt lat="43.65615" lon="1.45429">
        <ele>186.6973</ele>
        <time>2022-08-14T14:05:38.285Z</time>
      </trkpt>
      <trkpt lat="43.65625" lon="1.45434">
        <ele>186.669123</ele>
        <time>2022-08-14T14:05:40.267Z</time>
      </trkpt>
      <trkpt lat="43.65636" lon="1.45439">
        <ele>186.641733</ele>
        <time>2022-08-14T14:05:42.267Z</time>
      </trkpt>
      <trkpt lat="43.65646" lon="1.45443">
        <ele>186.61456</ele>
        <time>2022-08-14T14:05:44.272Z</time>
      </trkpt>
      <trkpt lat="43.65656" lon="1.45447">
        <ele>186.58806</ele>
        <time>2022-08-14T14:05:46.293Z</time>
      </trkpt>
      <trkpt lat="43.65666" lon="1.45451">
        <ele>186.562061</ele>
        <time>2022-08-14T14:05:48.283Z</time>
      </trkpt>
      <trkpt lat="43.65676" lon="1.45455">
        <ele>186.536152</ele>
        <time>2022-08-14T14:05:50.276Z</time>
      </trkpt>
      <trkpt lat="43.65685" lon="1.4546">
        <ele>186.510376</ele>
        <time>2022-08-14T14:05:52.275Z</time>
      </trkpt>
      <trkpt lat="43.65695" lon="1.45464">
        <ele>186.558187</ele>
        <time>2022-08-14T14:05:54.274Z</time>
      </trkpt>
      <trkpt lat="43.65704" lon="1.45468">
        <ele>186.630418</ele>
        <time>2022-08-14T14:05:56.265Z</time>
      </trkpt>
      <trkpt lat="43.65714" lon="1.45471">
        <ele>186.702356</ele>
        <time>2022-08-14T14:05:58.258Z</time>
      </trkpt>
      <trkpt lat="43.65723" lon="1.45475">
        <ele>186.771791</ele>
        <time>2022-08-14T14:06:00.298Z</time>
      </trkpt>
      <trkpt lat="43.65732" lon="1.45477">
        <ele>186.837115</ele>
        <time>2022-08-14T14:06:02.268Z</time>
      </trkpt>
      <trkpt lat="43.65742" lon="1.45477">
        <ele>186.906368</ele>
        <time>2022-08-14T14:06:04.272Z</time>
      </trkpt>
      <trkpt lat="43.65752" lon="1.45479">
        <ele>186.977649</ele>
        <time>2022-08-14T14:06:06.267Z</time>
      </trkpt>
      <trkpt lat="43.65761" lon="1.45482">
        <ele>187.049143</ele>
        <time>2022-08-14T14:06:08.268Z</time>
      </trkpt>
      <trkpt lat="43.65771" lon="1.45485">
        <ele>187.12226</ele>
        <time>2022-08-14T14:06:10.270Z</time>
      </trkpt>
      <trkpt lat="43.65781" lon="1.45488">
        <ele>187.197278</ele>
        <time>2022-08-14T14:06:12.267Z</time>
      </trkpt>
      <trkpt lat="43.65791" lon="1.45492">
        <ele>187.27167</ele>
        <time>2022-08-14T14:06:14.275Z</time>
      </trkpt>
      <trkpt lat="43.65801" lon="1.45497">
        <ele>187.34657</ele>
        <time>2022-08-14T14:06:16.280Z</time>
      </trkpt>
      <trkpt lat="43.65812" lon="1.45494">
        <ele>187.423707</ele>
        <time>2022-08-14T14:06:18.266Z</time>
      </trkpt>
      <trkpt lat="43.65822" lon="1.4549">
        <ele>187.503739</ele>
        <time>2022-08-14T14:06:20.258Z</time>
      </trkpt>
      <trkpt lat="43.65833" lon="1.45487">
        <ele>187.585173</ele>
        <time>2022-08-14T14:06:22.267Z</time>
      </trkpt>
      <trkpt lat="43.65845" lon="1.45483">
        <ele>187.668484</ele>
        <time>2022-08-14T14:06:24.258Z</time>
      </trkpt>
      <trkpt lat="43.65856" lon="1.4548">
        <ele>187.749684</ele>
        <time>2022-08-14T14:06:26.280Z</time>
      </trkpt>
      <trkpt lat="43.65866" lon="1.45477">
        <ele>187.762096</ele>
        <time>2022-08-14T14:06:28.269Z</time>
      </trkpt>
      <trkpt lat="43.65877" lon="1.45476">
        <ele>187.652025</ele>
        <time>2022-08-14T14:06:30.276Z</time>
      </trkpt>
      <trkpt lat="43.65888" lon="1.45475">
        <ele>187.542152</ele>
        <time>2022-08-14T14:06:32.280Z</time>
      </trkpt>
      <trkpt lat="43.65898" lon="1.45473">
        <ele>187.433228</ele>
        <time>2022-08-14T14:06:34.271Z</time>
      </trkpt>
      <trkpt lat="43.65909" lon="1.45472">
        <ele>187.324237</ele>
        <time>2022-08-14T14:06:36.271Z</time>
      </trkpt>
      <trkpt lat="43.65919" lon="1.45473">
        <ele>187.220591</ele>
        <time>2022-08-14T14:06:38.273Z</time>
      </trkpt>
      <trkpt lat="43.65923" lon="1.45485">
        <ele>187.125386</ele>
        <time>2022-08-14T14:06:41.265Z</time>
      </trkpt>
      <trkpt lat="43.6593" lon="1.45498">
        <ele>187.005888</ele>
        <time>2022-08-14T14:06:44.278Z</time>
      </trkpt>
      <trkpt lat="43.65936" lon="1.45508">
        <ele>186.909031</ele>
        <time>2022-08-14T14:06:46.273Z</time>
      </trkpt>
      <trkpt lat="43.65945" lon="1.45516">
        <ele>186.803416</ele>
        <time>2022-08-14T14:06:48.273Z</time>
      </trkpt>
      <trkpt lat="43.65956" lon="1.45518">
        <ele>186.693491</ele>
        <time>2022-08-14T14:06:50.279Z</time>
      </trkpt>
      <trkpt lat="43.65966" lon="1.45513">
        <ele>186.584689</ele>
        <time>2022-08-14T14:06:52.278Z</time>
      </trkpt>
      <trkpt lat="43.65974" lon="1.45505">
        <ele>186.476555</ele>
        <time>2022-08-14T14:06:54.266Z</time>
      </trkpt>
      <trkpt lat="43.65985" lon="1.45499">
        <ele>186.364316</ele>
        <time>2022-08-14T14:06:56.258Z</time>
      </trkpt>
      <trkpt lat="43.65997" lon="1.45499">
        <ele>186.239583</ele>
        <time>2022-08-14T14:06:58.298Z</time>
      </trkpt>
      <trkpt lat="43.6601" lon="1.45504">
        <ele>186.104698</ele>
        <time>2022-08-14T14:07:00.272Z</time>
      </trkpt>
      <trkpt lat="43.66023" lon="1.45513">
        <ele>185.9645</ele>
        <time>2022-08-14T14:07:02.272Z</time>
      </trkpt>
      <trkpt lat="43.66036" lon="1.45523">
        <ele>185.861504</ele>
        <time>2022-08-14T14:07:04.275Z</time>
      </trkpt>
      <trkpt lat="43.66049" lon="1.45532">
        <ele>185.762081</ele>
        <time>2022-08-14T14:07:06.281Z</time>
      </trkpt>
      <trkpt lat="43.66062" lon="1.45541">
        <ele>185.663722</ele>
        <time>2022-08-14T14:07:08.296Z</time>
      </trkpt>
      <trkpt lat="43.66075" lon="1.45549">
        <ele>185.568221</ele>
        <time>2022-08-14T14:07:10.292Z</time>
      </trkpt>
      <trkpt lat="43.66088" lon="1.45556">
        <ele>185.476308</ele>
        <time>2022-08-14T14:07:12.283Z</time>
      </trkpt>
      <trkpt lat="43.66101" lon="1.4556">
        <ele>185.387816</ele>
        <time>2022-08-14T14:07:14.292Z</time>
      </trkpt>
      <trkpt lat="43.66113" lon="1.45563">
        <ele>185.30562</ele>
        <time>2022-08-14T14:07:16.280Z</time>
      </trkpt>
      <trkpt lat="43.66121" lon="1.45555">
        <ele>185.234628</ele>
        <time>2022-08-14T14:07:18.257Z</time>
      </trkpt>
      <trkpt lat="43.66133" lon="1.4556">
        <ele>185.156235</ele>
        <time>2022-08-14T14:07:21.274Z</time>
      </trkpt>
      <trkpt lat="43.6614" lon="1.45568">
        <ele>185.094494</ele>
        <time>2022-08-14T14:07:23.275Z</time>
      </trkpt>
      <trkpt lat="43.66147" lon="1.45575">
        <ele>185.031834</ele>
        <time>2022-08-14T14:07:25.288Z</time>
      </trkpt>
      <trkpt lat="43.66158" lon="1.45584">
        <ele>184.946641</ele>
        <time>2022-08-14T14:07:28.281Z</time>
      </trkpt>
      <trkpt lat="43.66168" lon="1.45597">
        <ele>184.854438</ele>
        <time>2022-08-14T14:07:31.272Z</time>
      </trkpt>
      <trkpt lat="43.66175" lon="1.45608">
        <ele>184.783893</ele>
        <time>2022-08-14T14:07:33.289Z</time>
      </trkpt>
      <trkpt lat="43.66183" lon="1.45618">
        <ele>184.757295</ele>
        <time>2022-08-14T14:07:35.256Z</time>
      </trkpt>
      <trkpt lat="43.66192" lon="1.45628">
        <ele>184.748617</ele>
        <time>2022-08-14T14:07:37.277Z</time>
      </trkpt>
      <trkpt lat="43.66202" lon="1.45632">
        <ele>184.740686</ele>
        <time>2022-08-14T14:07:39.260Z</time>
      </trkpt>
      <trkpt lat="43.6621" lon="1.45621">
        <ele>184.731844</ele>
        <time>2022-08-14T14:07:41.286Z</time>
      </trkpt>
      <trkpt lat="43.66214" lon="1.45606">
        <ele>184.722905</ele>
        <time>2022-08-14T14:07:43.283Z</time>
      </trkpt>
      <trkpt lat="43.66218" lon="1.45591">
        <ele>184.713794</ele>
        <time>2022-08-14T14:07:45.279Z</time>
      </trkpt>
      <trkpt lat="43.66223" lon="1.45576">
        <ele>184.704423</ele>
        <time>2022-08-14T14:07:47.275Z</time>
      </trkpt>
      <trkpt lat="43.66228" lon="1.4556">
        <ele>184.695001</ele>
        <time>2022-08-14T14:07:49.268Z</time>
      </trkpt>
      <trkpt lat="43.66232" lon="1.45545">
        <ele>184.6856</ele>
        <time>2022-08-14T14:07:51.269Z</time>
      </trkpt>
      <trkpt lat="43.66237" lon="1.4553">
        <ele>184.676281</ele>
        <time>2022-08-14T14:07:53.286Z</time>
      </trkpt>
      <trkpt lat="43.66241" lon="1.45514">
        <ele>184.666836</ele>
        <time>2022-08-14T14:07:55.270Z</time>
      </trkpt>
      <trkpt lat="43.66245" lon="1.45498">
        <ele>184.657304</ele>
        <time>2022-08-14T14:07:57.280Z</time>
      </trkpt>
      <trkpt lat="43.6625" lon="1.45483">
        <ele>184.647983</ele>
        <time>2022-08-14T14:07:59.260Z</time>
      </trkpt>
      <trkpt lat="43.66255" lon="1.45468">
        <ele>184.639026</ele>
        <time>2022-08-14T14:08:01.272Z</time>
      </trkpt>
      <trkpt lat="43.66259" lon="1.45453">
        <ele>184.630035</ele>
        <time>2022-08-14T14:08:03.271Z</time>
      </trkpt>
      <trkpt lat="43.66262" lon="1.45438">
        <ele>184.619363</ele>
        <time>2022-08-14T14:08:05.257Z</time>
      </trkpt>
      <trkpt lat="43.66266" lon="1.45422">
        <ele>184.603836</ele>
        <time>2022-08-14T14:08:07.272Z</time>
      </trkpt>
      <trkpt lat="43.66271" lon="1.45407">
        <ele>184.58864</ele>
        <time>2022-08-14T14:08:09.261Z</time>
      </trkpt>
      <trkpt lat="43.66275" lon="1.45392">
        <ele>184.573636</ele>
        <time>2022-08-14T14:08:11.274Z</time>
      </trkpt>
      <trkpt lat="43.6628" lon="1.45379">
        <ele>184.559548</ele>
        <time>2022-08-14T14:08:13.297Z</time>
      </trkpt>
      <trkpt lat="43.66285" lon="1.45365">
        <ele>184.54477</ele>
        <time>2022-08-14T14:08:15.263Z</time>
      </trkpt>
      <trkpt lat="43.66291" lon="1.45351">
        <ele>184.529745</ele>
        <time>2022-08-14T14:08:17.269Z</time>
      </trkpt>
      <trkpt lat="43.66297" lon="1.45337">
        <ele>184.5151</ele>
        <time>2022-08-14T14:08:19.249Z</time>
      </trkpt>
      <trkpt lat="43.66302" lon="1.45324">
        <ele>184.500853</ele>
        <time>2022-08-14T14:08:21.266Z</time>
      </trkpt>
      <trkpt lat="43.66308" lon="1.45311">
        <ele>184.486545</ele>
        <time>2022-08-14T14:08:23.269Z</time>
      </trkpt>
      <trkpt lat="43.66314" lon="1.45297">
        <ele>184.471865</ele>
        <time>2022-08-14T14:08:25.262Z</time>
      </trkpt>
      <trkpt lat="43.6632" lon="1.45284">
        <ele>184.457043</ele>
        <time>2022-08-14T14:08:27.261Z</time>
      </trkpt>
      <trkpt lat="43.66327" lon="1.45271">
        <ele>184.44237</ele>
        <time>2022-08-14T14:08:29.259Z</time>
      </trkpt>
      <trkpt lat="43.66333" lon="1.45258">
        <ele>184.427976</ele>
        <time>2022-08-14T14:08:31.269Z</time>
      </trkpt>
      <trkpt lat="43.6634" lon="1.45245">
        <ele>184.413161</ele>
        <time>2022-08-14T14:08:33.254Z</time>
      </trkpt>
      <trkpt lat="43.66349" lon="1.45229">
        <ele>184.393689</ele>
        <time>2022-08-14T14:08:35.264Z</time>
      </trkpt>
      <trkpt lat="43.66354" lon="1.45214">
        <ele>184.441844</ele>
        <time>2022-08-14T14:08:37.287Z</time>
      </trkpt>
      <trkpt lat="43.66357" lon="1.45201">
        <ele>184.487857</ele>
        <time>2022-08-14T14:08:39.273Z</time>
      </trkpt>
      <trkpt lat="43.66362" lon="1.45187">
        <ele>184.540678</ele>
        <time>2022-08-14T14:08:41.276Z</time>
      </trkpt>
      <trkpt lat="43.66363" lon="1.45172">
        <ele>184.59254</ele>
        <time>2022-08-14T14:08:43.266Z</time>
      </trkpt>
      <trkpt lat="43.6636" lon="1.45158">
        <ele>184.640285</ele>
        <time>2022-08-14T14:08:46.258Z</time>
      </trkpt>
      <trkpt lat="43.66368" lon="1.45142">
        <ele>184.70556</ele>
        <time>2022-08-14T14:08:49.266Z</time>
      </trkpt>
      <trkpt lat="43.66372" lon="1.45131">
        <ele>184.748577</ele>
        <time>2022-08-14T14:08:51.265Z</time>
      </trkpt>
      <trkpt lat="43.66377" lon="1.45117">
        <ele>184.800953</ele>
        <time>2022-08-14T14:08:53.262Z</time>
      </trkpt>
      <trkpt lat="43.66383" lon="1.45103">
        <ele>184.853564</ele>
        <time>2022-08-14T14:08:55.257Z</time>
      </trkpt>
      <trkpt lat="43.66389" lon="1.4509">
        <ele>184.906355</ele>
        <time>2022-08-14T14:08:57.268Z</time>
      </trkpt>
      <trkpt lat="43.66393" lon="1.45076">
        <ele>184.958226</ele>
        <time>2022-08-14T14:08:59.263Z</time>
      </trkpt>
      <trkpt lat="43.66396" lon="1.4506">
        <ele>185.013897</ele>
        <time>2022-08-14T14:09:01.267Z</time>
      </trkpt>
      <trkpt lat="43.66402" lon="1.45045">
        <ele>185.070941</ele>
        <time>2022-08-14T14:09:03.254Z</time>
      </trkpt>
      <trkpt lat="43.66407" lon="1.4503">
        <ele>185.12494</ele>
        <time>2022-08-14T14:09:05.265Z</time>
      </trkpt>
      <trkpt lat="43.66411" lon="1.45016">
        <ele>185.177294</ele>
        <time>2022-08-14T14:09:07.253Z</time>
      </trkpt>
      <trkpt lat="43.66413" lon="1.45001">
        <ele>185.231212</ele>
        <time>2022-08-14T14:09:09.265Z</time>
      </trkpt>
      <trkpt lat="43.66417" lon="1.44986">
        <ele>185.241609</ele>
        <time>2022-08-14T14:09:11.267Z</time>
      </trkpt>
      <trkpt lat="43.66422" lon="1.44972">
        <ele>185.251951</ele>
        <time>2022-08-14T14:09:13.253Z</time>
      </trkpt>
      <trkpt lat="43.66427" lon="1.44957">
        <ele>185.262006</ele>
        <time>2022-08-14T14:09:15.253Z</time>
      </trkpt>
      <trkpt lat="43.66432" lon="1.44942">
        <ele>185.272392</ele>
        <time>2022-08-14T14:09:17.258Z</time>
      </trkpt>
      <trkpt lat="43.66435" lon="1.44927">
        <ele>185.28248</ele>
        <time>2022-08-14T14:09:19.274Z</time>
      </trkpt>
      <trkpt lat="43.6644" lon="1.44912">
        <ele>185.292616</ele>
        <time>2022-08-14T14:09:21.263Z</time>
      </trkpt>
      <trkpt lat="43.66444" lon="1.44898">
        <ele>185.302405</ele>
        <time>2022-08-14T14:09:23.264Z</time>
      </trkpt>
      <trkpt lat="43.66449" lon="1.44884">
        <ele>185.312272</ele>
        <time>2022-08-14T14:09:25.247Z</time>
      </trkpt>
      <trkpt lat="43.66452" lon="1.44868">
        <ele>185.322433</ele>
        <time>2022-08-14T14:09:27.255Z</time>
      </trkpt>
      <trkpt lat="43.66455" lon="1.44853">
        <ele>185.332304</ele>
        <time>2022-08-14T14:09:29.266Z</time>
      </trkpt>
      <trkpt lat="43.6646" lon="1.44839">
        <ele>185.341904</ele>
        <time>2022-08-14T14:09:31.257Z</time>
      </trkpt>
      <trkpt lat="43.66465" lon="1.44825">
        <ele>185.351769</ele>
        <time>2022-08-14T14:09:33.267Z</time>
      </trkpt>
      <trkpt lat="43.6647" lon="1.44811">
        <ele>185.361673</ele>
        <time>2022-08-14T14:09:35.270Z</time>
      </trkpt>
      <trkpt lat="43.66476" lon="1.44798">
        <ele>185.371378</ele>
        <time>2022-08-14T14:09:37.262Z</time>
      </trkpt>
      <trkpt lat="43.66482" lon="1.44785">
        <ele>185.381289</ele>
        <time>2022-08-14T14:09:39.261Z</time>
      </trkpt>
      <trkpt lat="43.66488" lon="1.44772">
        <ele>185.37064</ele>
        <time>2022-08-14T14:09:41.243Z</time>
      </trkpt>
      <trkpt lat="43.66494" lon="1.44759">
        <ele>185.271941</ele>
        <time>2022-08-14T14:09:43.255Z</time>
      </trkpt>
      <trkpt lat="43.66499" lon="1.44745">
        <ele>185.173136</ele>
        <time>2022-08-14T14:09:45.276Z</time>
      </trkpt>
      <trkpt lat="43.66504" lon="1.44731">
        <ele>185.07474</ele>
        <time>2022-08-14T14:09:47.259Z</time>
      </trkpt>
      <trkpt lat="43.66508" lon="1.44717">
        <ele>184.981336</ele>
        <time>2022-08-14T14:09:49.259Z</time>
      </trkpt>
      <trkpt lat="43.66516" lon="1.4471">
        <ele>184.891841</ele>
        <time>2022-08-14T14:09:52.252Z</time>
      </trkpt>
      <trkpt lat="43.66528" lon="1.44719">
        <ele>184.772048</ele>
        <time>2022-08-14T14:09:55.278Z</time>
      </trkpt>
      <trkpt lat="43.66538" lon="1.44725">
        <ele>184.675055</ele>
        <time>2022-08-14T14:09:57.262Z</time>
      </trkpt>
      <trkpt lat="43.66549" lon="1.44733">
        <ele>184.566912</ele>
        <time>2022-08-14T14:09:59.263Z</time>
      </trkpt>
      <trkpt lat="43.66559" lon="1.44744">
        <ele>184.456299</ele>
        <time>2022-08-14T14:10:01.274Z</time>
      </trkpt>
      <trkpt lat="43.66568" lon="1.44757">
        <ele>184.339844</ele>
        <time>2022-08-14T14:10:03.279Z</time>
      </trkpt>
      <trkpt lat="43.66578" lon="1.44771">
        <ele>184.220211</ele>
        <time>2022-08-14T14:10:05.275Z</time>
      </trkpt>
      <trkpt lat="43.66587" lon="1.44785">
        <ele>184.100154</ele>
        <time>2022-08-14T14:10:07.255Z</time>
      </trkpt>
      <trkpt lat="43.66595" lon="1.44798">
        <ele>183.982591</ele>
        <time>2022-08-14T14:10:09.257Z</time>
      </trkpt>
      <trkpt lat="43.66604" lon="1.44812">
        <ele>183.865138</ele>
        <time>2022-08-14T14:10:11.265Z</time>
      </trkpt>
      <trkpt lat="43.66612" lon="1.44825">
        <ele>183.774452</ele>
        <time>2022-08-14T14:10:13.252Z</time>
      </trkpt>
      <trkpt lat="43.6662" lon="1.44838">
        <ele>183.71095</ele>
        <time>2022-08-14T14:10:15.245Z</time>
      </trkpt>
      <trkpt lat="43.66629" lon="1.4485">
        <ele>183.646811</ele>
        <time>2022-08-14T14:10:17.258Z</time>
      </trkpt>
      <trkpt lat="43.6664" lon="1.44856">
        <ele>183.583637</ele>
        <time>2022-08-14T14:10:19.264Z</time>
      </trkpt>
      <trkpt lat="43.66651" lon="1.44859">
        <ele>183.523175</ele>
        <time>2022-08-14T14:10:21.263Z</time>
      </trkpt>
      <trkpt lat="43.66662" lon="1.4486">
        <ele>183.461696</ele>
        <time>2022-08-14T14:10:23.263Z</time>
      </trkpt>
      <trkpt lat="43.66674" lon="1.44859">
        <ele>183.401146</ele>
        <time>2022-08-14T14:10:25.270Z</time>
      </trkpt>
      <trkpt lat="43.66685" lon="1.44855">
        <ele>183.338298</ele>
        <time>2022-08-14T14:10:27.257Z</time>
      </trkpt>
      <trkpt lat="43.66697" lon="1.44849">
        <ele>183.273511</ele>
        <time>2022-08-14T14:10:29.255Z</time>
      </trkpt>
      <trkpt lat="43.66707" lon="1.4484">
        <ele>183.211316</ele>
        <time>2022-08-14T14:10:31.257Z</time>
      </trkpt>
      <trkpt lat="43.66717" lon="1.44831">
        <ele>183.148177</ele>
        <time>2022-08-14T14:10:33.266Z</time>
      </trkpt>
      <trkpt lat="43.66727" lon="1.44822">
        <ele>183.082853</ele>
        <time>2022-08-14T14:10:35.265Z</time>
      </trkpt>
      <trkpt lat="43.66739" lon="1.4482">
        <ele>183.019933</ele>
        <time>2022-08-14T14:10:37.276Z</time>
      </trkpt>
      <trkpt lat="43.6675" lon="1.44826">
        <ele>182.958667</ele>
        <time>2022-08-14T14:10:39.264Z</time>
      </trkpt>
      <trkpt lat="43.66755" lon="1.44839">
        <ele>182.899079</ele>
        <time>2022-08-14T14:10:41.254Z</time>
      </trkpt>
      <trkpt lat="43.66757" lon="1.44855">
        <ele>182.843176</ele>
        <time>2022-08-14T14:10:43.269Z</time>
      </trkpt>
      <trkpt lat="43.66761" lon="1.4487">
        <ele>182.807523</ele>
        <time>2022-08-14T14:10:45.268Z</time>
      </trkpt>
      <trkpt lat="43.66769" lon="1.44882">
        <ele>182.772456</ele>
        <time>2022-08-14T14:10:47.258Z</time>
      </trkpt>
      <trkpt lat="43.66778" lon="1.44891">
        <ele>182.737731</ele>
        <time>2022-08-14T14:10:49.256Z</time>
      </trkpt>
      <trkpt lat="43.66788" lon="1.449">
        <ele>182.702246</ele>
        <time>2022-08-14T14:10:51.259Z</time>
      </trkpt>
      <trkpt lat="43.66799" lon="1.44906">
        <ele>182.666734</ele>
        <time>2022-08-14T14:10:53.255Z</time>
      </trkpt>
      <trkpt lat="43.66809" lon="1.44912">
        <ele>182.631961</ele>
        <time>2022-08-14T14:10:55.276Z</time>
      </trkpt>
      <trkpt lat="43.66821" lon="1.44917">
        <ele>182.596391</ele>
        <time>2022-08-14T14:10:57.259Z</time>
      </trkpt>
      <trkpt lat="43.66832" lon="1.4492">
        <ele>182.560905</ele>
        <time>2022-08-14T14:10:59.262Z</time>
      </trkpt>
      <trkpt lat="43.66843" lon="1.44924">
        <ele>182.526116</ele>
        <time>2022-08-14T14:11:01.273Z</time>
      </trkpt>
      <trkpt lat="43.66854" lon="1.44927">
        <ele>182.490972</ele>
        <time>2022-08-14T14:11:03.268Z</time>
      </trkpt>
      <trkpt lat="43.66866" lon="1.4493">
        <ele>182.455167</ele>
        <time>2022-08-14T14:11:05.259Z</time>
      </trkpt>
      <trkpt lat="43.66877" lon="1.44933">
        <ele>182.420408</ele>
        <time>2022-08-14T14:11:07.246Z</time>
      </trkpt>
      <trkpt lat="43.66888" lon="1.44936">
        <ele>182.385205</ele>
        <time>2022-08-14T14:11:09.286Z</time>
      </trkpt>
      <trkpt lat="43.669" lon="1.44938">
        <ele>182.350866</ele>
        <time>2022-08-14T14:11:11.261Z</time>
      </trkpt>
      <trkpt lat="43.66911" lon="1.44942">
        <ele>182.316373</ele>
        <time>2022-08-14T14:11:13.262Z</time>
      </trkpt>
      <trkpt lat="43.66921" lon="1.4495">
        <ele>182.325435</ele>
        <time>2022-08-14T14:11:15.246Z</time>
      </trkpt>
      <trkpt lat="43.66929" lon="1.44961">
        <ele>182.365609</ele>
        <time>2022-08-14T14:11:17.263Z</time>
      </trkpt>
      <trkpt lat="43.66934" lon="1.44974">
        <ele>182.402084</ele>
        <time>2022-08-14T14:11:19.263Z</time>
      </trkpt>
      <trkpt lat="43.66939" lon="1.44988">
        <ele>182.442388</ele>
        <time>2022-08-14T14:11:22.256Z</time>
      </trkpt>
      <trkpt lat="43.66946" lon="1.45003">
        <ele>182.488169</ele>
        <time>2022-08-14T14:11:25.257Z</time>
      </trkpt>
      <trkpt lat="43.6695" lon="1.45016">
        <ele>182.524577</ele>
        <time>2022-08-14T14:11:27.244Z</time>
      </trkpt>
      <trkpt lat="43.66956" lon="1.4503">
        <ele>182.563711</ele>
        <time>2022-08-14T14:11:29.264Z</time>
      </trkpt>
      <trkpt lat="43.66961" lon="1.45044">
        <ele>182.603621</ele>
        <time>2022-08-14T14:11:31.290Z</time>
      </trkpt>
      <trkpt lat="43.66968" lon="1.45057">
        <ele>182.644134</ele>
        <time>2022-08-14T14:11:33.269Z</time>
      </trkpt>
      <trkpt lat="43.66975" lon="1.4507">
        <ele>182.684852</ele>
        <time>2022-08-14T14:11:35.256Z</time>
      </trkpt>
      <trkpt lat="43.66982" lon="1.45082">
        <ele>182.724834</ele>
        <time>2022-08-14T14:11:37.257Z</time>
      </trkpt>
      <trkpt lat="43.66989" lon="1.45095">
        <ele>182.765347</ele>
        <time>2022-08-14T14:11:39.266Z</time>
      </trkpt>
      <trkpt lat="43.66995" lon="1.45108">
        <ele>182.805705</ele>
        <time>2022-08-14T14:11:41.253Z</time>
      </trkpt>
      <trkpt lat="43.67002" lon="1.45122">
        <ele>182.846238</ele>
        <time>2022-08-14T14:11:43.261Z</time>
      </trkpt>
      <trkpt lat="43.67008" lon="1.45135">
        <ele>182.887446</ele>
        <time>2022-08-14T14:11:45.279Z</time>
      </trkpt>
      <trkpt lat="43.67013" lon="1.4515">
        <ele>182.928174</ele>
        <time>2022-08-14T14:11:47.271Z</time>
      </trkpt>
      <trkpt lat="43.67018" lon="1.45163">
        <ele>182.940804</ele>
        <time>2022-08-14T14:11:49.256Z</time>
      </trkpt>
      <trkpt lat="43.67025" lon="1.45172">
        <ele>182.950931</ele>
        <time>2022-08-14T14:11:51.265Z</time>
      </trkpt>
      <trkpt lat="43.6702" lon="1.45187">
        <ele>182.96399</ele>
        <time>2022-08-14T14:11:53.245Z</time>
      </trkpt>
      <trkpt lat="43.67013" lon="1.45201">
        <ele>182.977263</ele>
        <time>2022-08-14T14:11:55.255Z</time>
      </trkpt>
      <trkpt lat="43.67007" lon="1.45214">
        <ele>182.990591</ele>
        <time>2022-08-14T14:11:57.270Z</time>
      </trkpt>
      <trkpt lat="43.66998" lon="1.45225">
        <ele>183.003736</ele>
        <time>2022-08-14T14:11:59.255Z</time>
      </trkpt>
      <trkpt lat="43.66987" lon="1.4523">
        <ele>183.016452</ele>
        <time>2022-08-14T14:12:01.250Z</time>
      </trkpt>
      <trkpt lat="43.66975" lon="1.45233">
        <ele>183.029592</ele>
        <time>2022-08-14T14:12:03.259Z</time>
      </trkpt>
      <trkpt lat="43.66963" lon="1.45232">
        <ele>183.042628</ele>
        <time>2022-08-14T14:12:05.247Z</time>
      </trkpt>
      <trkpt lat="43.66951" lon="1.4523">
        <ele>183.055741</ele>
        <time>2022-08-14T14:12:07.253Z</time>
      </trkpt>
      <trkpt lat="43.6694" lon="1.45232">
        <ele>183.068559</ele>
        <time>2022-08-14T14:12:09.248Z</time>
      </trkpt>
      <trkpt lat="43.6693" lon="1.45242">
        <ele>183.08145</ele>
        <time>2022-08-14T14:12:11.268Z</time>
      </trkpt>
      <trkpt lat="43.66926" lon="1.45256">
        <ele>183.094075</ele>
        <time>2022-08-14T14:12:13.266Z</time>
      </trkpt>
      <trkpt lat="43.66926" lon="1.45272">
        <ele>183.106845</ele>
        <time>2022-08-14T14:12:15.252Z</time>
      </trkpt>
      <trkpt lat="43.66929" lon="1.45288">
        <ele>183.119643</ele>
        <time>2022-08-14T14:12:17.248Z</time>
      </trkpt>
      <trkpt lat="43.66933" lon="1.45302">
        <ele>183.123424</ele>
        <time>2022-08-14T14:12:19.248Z</time>
      </trkpt>
      <trkpt lat="43.6694" lon="1.45315">
        <ele>183.110132</ele>
        <time>2022-08-14T14:12:21.257Z</time>
      </trkpt>
      <trkpt lat="43.66946" lon="1.45328">
        <ele>183.09679</ele>
        <time>2022-08-14T14:12:23.254Z</time>
      </trkpt>
      <trkpt lat="43.66954" lon="1.4534">
        <ele>183.083252</ele>
        <time>2022-08-14T14:12:25.247Z</time>
      </trkpt>
      <trkpt lat="43.66962" lon="1.45352">
        <ele>183.069463</ele>
        <time>2022-08-14T14:12:27.286Z</time>
      </trkpt>
      <trkpt lat="43.66971" lon="1.45364">
        <ele>183.055756</ele>
        <time>2022-08-14T14:12:29.250Z</time>
      </trkpt>
      <trkpt lat="43.66979" lon="1.45375">
        <ele>183.042332</ele>
        <time>2022-08-14T14:12:31.241Z</time>
      </trkpt>
      <trkpt lat="43.66987" lon="1.45387">
        <ele>183.028623</ele>
        <time>2022-08-14T14:12:33.263Z</time>
      </trkpt>
      <trkpt lat="43.66993" lon="1.45401">
        <ele>183.014803</ele>
        <time>2022-08-14T14:12:35.285Z</time>
      </trkpt>
      <trkpt lat="43.66999" lon="1.45415">
        <ele>183.001409</ele>
        <time>2022-08-14T14:12:37.259Z</time>
      </trkpt>
      <trkpt lat="43.67003" lon="1.4543">
        <ele>182.987661</ele>
        <time>2022-08-14T14:12:39.265Z</time>
      </trkpt>
      <trkpt lat="43.67007" lon="1.45445">
        <ele>182.974419</ele>
        <time>2022-08-14T14:12:41.265Z</time>
      </trkpt>
      <trkpt lat="43.67012" lon="1.45459">
        <ele>182.961271</ele>
        <time>2022-08-14T14:12:43.261Z</time>
      </trkpt>
      <trkpt lat="43.67019" lon="1.45471">
        <ele>182.94845</ele>
        <time>2022-08-14T14:12:45.254Z</time>
      </trkpt>
      <trkpt lat="43.67029" lon="1.45478">
        <ele>182.935419</ele>
        <time>2022-08-14T14:12:47.278Z</time>
      </trkpt>
      <trkpt lat="43.6704" lon="1.45483">
        <ele>182.922408</ele>
        <time>2022-08-14T14:12:49.256Z</time>
      </trkpt>
      <trkpt lat="43.6705" lon="1.45488">
        <ele>182.928113</ele>
        <time>2022-08-14T14:12:51.287Z</time>
      </trkpt>
      <trkpt lat="43.67062" lon="1.4549">
        <ele>182.94011</ele>
        <time>2022-08-14T14:12:53.263Z</time>
      </trkpt>
      <trkpt lat="43.67073" lon="1.45491">
        <ele>182.951968</ele>
        <time>2022-08-14T14:12:55.257Z</time>
      </trkpt>
      <trkpt lat="43.67085" lon="1.45488">
        <ele>182.964297</ele>
        <time>2022-08-14T14:12:57.269Z</time>
      </trkpt>
      <trkpt lat="43.67095" lon="1.45481">
        <ele>182.976363</ele>
        <time>2022-08-14T14:12:59.252Z</time>
      </trkpt>
      <trkpt lat="43.67105" lon="1.45471">
        <ele>182.988737</ele>
        <time>2022-08-14T14:13:01.256Z</time>
      </trkpt>
      <trkpt lat="43.67112" lon="1.45461">
        <ele>182.999394</ele>
        <time>2022-08-14T14:13:03.255Z</time>
      </trkpt>
      <trkpt lat="43.67122" lon="1.45458">
        <ele>183.010054</ele>
        <time>2022-08-14T14:13:05.244Z</time>
      </trkpt>
      <trkpt lat="43.67132" lon="1.45461">
        <ele>183.020876</ele>
        <time>2022-08-14T14:13:07.254Z</time>
      </trkpt>
      <trkpt lat="43.67143" lon="1.45468">
        <ele>183.032991</ele>
        <time>2022-08-14T14:13:09.245Z</time>
      </trkpt>
      <trkpt lat="43.67154" lon="1.45476">
        <ele>183.045529</ele>
        <time>2022-08-14T14:13:11.252Z</time>
      </trkpt>
      <trkpt lat="43.67163" lon="1.45485">
        <ele>183.05742</ele>
        <time>2022-08-14T14:13:13.271Z</time>
      </trkpt>
      <trkpt lat="43.67173" lon="1.45491">
        <ele>183.068971</ele>
        <time>2022-08-14T14:13:15.261Z</time>
      </trkpt>
      <trkpt lat="43.67183" lon="1.45485">
        <ele>183.08056</ele>
        <time>2022-08-14T14:13:17.255Z</time>
      </trkpt>
      <trkpt lat="43.67193" lon="1.45478">
        <ele>183.092457</ele>
        <time>2022-08-14T14:13:19.237Z</time>
      </trkpt>
      <trkpt lat="43.67203" lon="1.4547">
        <ele>183.104391</ele>
        <time>2022-08-14T14:13:21.263Z</time>
      </trkpt>
      <trkpt lat="43.67213" lon="1.45462">
        <ele>183.176819</ele>
        <time>2022-08-14T14:13:23.269Z</time>
      </trkpt>
      <trkpt lat="43.67221" lon="1.45455">
        <ele>183.246321</ele>
        <time>2022-08-14T14:13:25.284Z</time>
      </trkpt>
      <trkpt lat="43.67227" lon="1.45443">
        <ele>183.322115</ele>
        <time>2022-08-14T14:13:29.252Z</time>
      </trkpt>
      <trkpt lat="43.67224" lon="1.4543">
        <ele>183.398249</ele>
        <time>2022-08-14T14:13:32.275Z</time>
      </trkpt>
      <trkpt lat="43.67217" lon="1.45418">
        <ele>183.476266</ele>
        <time>2022-08-14T14:13:34.248Z</time>
      </trkpt>
      <trkpt lat="43.6721" lon="1.45406">
        <ele>183.566213</ele>
        <time>2022-08-14T14:13:36.258Z</time>
      </trkpt>
      <trkpt lat="43.67202" lon="1.45393">
        <ele>183.652648</ele>
        <time>2022-08-14T14:13:38.255Z</time>
      </trkpt>
      <trkpt lat="43.67196" lon="1.45382">
        <ele>183.727237</ele>
        <time>2022-08-14T14:13:40.262Z</time>
      </trkpt>
      <trkpt lat="43.67202" lon="1.45375">
        <ele>184.718338</ele>
        <time>2022-08-14T14:14:45.280Z</time>
      </trkpt>
      <trkpt lat="43.67212" lon="1.45371">
        <ele>184.834528</ele>
        <time>2022-08-14T14:14:50.255Z</time>
      </trkpt>
      <trkpt lat="43.67221" lon="1.45365">
        <ele>184.941583</ele>
        <time>2022-08-14T14:14:53.250Z</time>
      </trkpt>
      <trkpt lat="43.67231" lon="1.45359">
        <ele>185.071389</ele>
        <time>2022-08-14T14:14:56.263Z</time>
      </trkpt>
      <trkpt lat="43.67242" lon="1.45354">
        <ele>185.199921</ele>
        <time>2022-08-14T14:14:59.243Z</time>
      </trkpt>
      <trkpt lat="43.67252" lon="1.45346">
        <ele>185.318884</ele>
        <time>2022-08-14T14:15:02.265Z</time>
      </trkpt>
      <trkpt lat="43.67262" lon="1.45342">
        <ele>185.437217</ele>
        <time>2022-08-14T14:15:06.274Z</time>
      </trkpt>
      <trkpt lat="43.67271" lon="1.45331">
        <ele>185.572708</ele>
        <time>2022-08-14T14:15:10.246Z</time>
      </trkpt>
      <trkpt lat="43.6728" lon="1.45318">
        <ele>185.714107</ele>
        <time>2022-08-14T14:15:13.252Z</time>
      </trkpt>
      <trkpt lat="43.67289" lon="1.45313">
        <ele>185.820336</ele>
        <time>2022-08-14T14:15:15.246Z</time>
      </trkpt>
      <trkpt lat="43.67298" lon="1.45311">
        <ele>185.921788</ele>
        <time>2022-08-14T14:15:17.251Z</time>
      </trkpt>
      <trkpt lat="43.67306" lon="1.45307">
        <ele>186.025423</ele>
        <time>2022-08-14T14:15:19.253Z</time>
      </trkpt>
      <trkpt lat="43.67316" lon="1.45302">
        <ele>186.139784</ele>
        <time>2022-08-14T14:15:21.261Z</time>
      </trkpt>
      <trkpt lat="43.67327" lon="1.453">
        <ele>186.260633</ele>
        <time>2022-08-14T14:15:23.274Z</time>
      </trkpt>
      <trkpt lat="43.67338" lon="1.45302">
        <ele>186.38129</ele>
        <time>2022-08-14T14:15:25.244Z</time>
      </trkpt>
      <trkpt lat="43.67349" lon="1.45306">
        <ele>186.428714</ele>
        <time>2022-08-14T14:15:27.255Z</time>
      </trkpt>
      <trkpt lat="43.6736" lon="1.45309">
        <ele>186.391806</ele>
        <time>2022-08-14T14:15:29.248Z</time>
      </trkpt>
      <trkpt lat="43.67371" lon="1.4531">
        <ele>186.35466</ele>
        <time>2022-08-14T14:15:31.237Z</time>
      </trkpt>
      <trkpt lat="43.67382" lon="1.45308">
        <ele>186.316756</ele>
        <time>2022-08-14T14:15:33.248Z</time>
      </trkpt>
      <trkpt lat="43.67393" lon="1.45301">
        <ele>186.279147</ele>
        <time>2022-08-14T14:15:35.259Z</time>
      </trkpt>
      <trkpt lat="43.67404" lon="1.45295">
        <ele>186.239924</ele>
        <time>2022-08-14T14:15:37.259Z</time>
      </trkpt>
      <trkpt lat="43.67414" lon="1.45288">
        <ele>186.201018</ele>
        <time>2022-08-14T14:15:39.258Z</time>
      </trkpt>
      <trkpt lat="43.67425" lon="1.45282">
        <ele>186.162773</ele>
        <time>2022-08-14T14:15:41.262Z</time>
      </trkpt>
      <trkpt lat="43.67434" lon="1.45291">
        <ele>186.125701</ele>
        <time>2022-08-14T14:15:43.255Z</time>
      </trkpt>
      <trkpt lat="43.6744" lon="1.45306">
        <ele>186.085618</ele>
        <time>2022-08-14T14:15:45.246Z</time>
      </trkpt>
      <trkpt lat="43.67447" lon="1.45319">
        <ele>186.045985</ele>
        <time>2022-08-14T14:15:47.250Z</time>
      </trkpt>
      <trkpt lat="43.67455" lon="1.45331">
        <ele>186.006711</ele>
        <time>2022-08-14T14:15:49.249Z</time>
      </trkpt>
      <trkpt lat="43.6746" lon="1.45346">
        <ele>185.968085</ele>
        <time>2022-08-14T14:15:51.242Z</time>
      </trkpt>
      <trkpt lat="43.67465" lon="1.4536">
        <ele>185.929603</ele>
        <time>2022-08-14T14:15:53.258Z</time>
      </trkpt>
      <trkpt lat="43.67473" lon="1.45372">
        <ele>185.892329</ele>
        <time>2022-08-14T14:15:55.256Z</time>
      </trkpt>
      <trkpt lat="43.67482" lon="1.45381">
        <ele>185.85431</ele>
        <time>2022-08-14T14:15:57.253Z</time>
      </trkpt>
      <trkpt lat="43.67492" lon="1.45387">
        <ele>185.840334</ele>
        <time>2022-08-14T14:15:59.255Z</time>
      </trkpt>
      <trkpt lat="43.67503" lon="1.45382">
        <ele>185.828871</ele>
        <time>2022-08-14T14:16:01.269Z</time>
      </trkpt>
      <trkpt lat="43.67512" lon="1.45371">
        <ele>185.816272</ele>
        <time>2022-08-14T14:16:03.270Z</time>
      </trkpt>
      <trkpt lat="43.6752" lon="1.4536">
        <ele>185.803965</ele>
        <time>2022-08-14T14:16:05.258Z</time>
      </trkpt>
      <trkpt lat="43.67529" lon="1.45351">
        <ele>185.791935</ele>
        <time>2022-08-14T14:16:07.239Z</time>
      </trkpt>
      <trkpt lat="43.6754" lon="1.45344">
        <ele>185.779832</ele>
        <time>2022-08-14T14:16:09.267Z</time>
      </trkpt>
      <trkpt lat="43.6755" lon="1.45338">
        <ele>185.76776</ele>
        <time>2022-08-14T14:16:11.241Z</time>
      </trkpt>
      <trkpt lat="43.67561" lon="1.45331">
        <ele>185.75553</ele>
        <time>2022-08-14T14:16:13.257Z</time>
      </trkpt>
      <trkpt lat="43.67572" lon="1.45324">
        <ele>185.743332</ele>
        <time>2022-08-14T14:16:15.253Z</time>
      </trkpt>
      <trkpt lat="43.67582" lon="1.45318">
        <ele>185.731198</ele>
        <time>2022-08-14T14:16:17.251Z</time>
      </trkpt>
      <trkpt lat="43.67593" lon="1.45312">
        <ele>185.718993</ele>
        <time>2022-08-14T14:16:19.268Z</time>
      </trkpt>
      <trkpt lat="43.67603" lon="1.45307">
        <ele>185.707111</ele>
        <time>2022-08-14T14:16:21.251Z</time>
      </trkpt>
      <trkpt lat="43.67613" lon="1.45311">
        <ele>185.696944</ele>
        <time>2022-08-14T14:16:23.235Z</time>
      </trkpt>
      <trkpt lat="43.67626" lon="1.45313">
        <ele>185.683207</ele>
        <time>2022-08-14T14:16:26.237Z</time>
      </trkpt>
      <trkpt lat="43.67636" lon="1.45312">
        <ele>185.672249</ele>
        <time>2022-08-14T14:16:28.262Z</time>
      </trkpt>
      <trkpt lat="43.67649" lon="1.45308">
        <ele>185.669285</ele>
        <time>2022-08-14T14:16:31.255Z</time>
      </trkpt>
      <trkpt lat="43.67658" lon="1.45314">
        <ele>185.689767</ele>
        <time>2022-08-14T14:16:33.248Z</time>
      </trkpt>
      <trkpt lat="43.67669" lon="1.45318">
        <ele>185.71145</ele>
        <time>2022-08-14T14:16:35.255Z</time>
      </trkpt>
      <trkpt lat="43.6768" lon="1.4532">
        <ele>185.733909</ele>
        <time>2022-08-14T14:16:37.257Z</time>
      </trkpt>
      <trkpt lat="43.67691" lon="1.45324">
        <ele>185.7569</ele>
        <time>2022-08-14T14:16:39.259Z</time>
      </trkpt>
      <trkpt lat="43.67702" lon="1.45327">
        <ele>185.779701</ele>
        <time>2022-08-14T14:16:41.263Z</time>
      </trkpt>
      <trkpt lat="43.67713" lon="1.45332">
        <ele>185.801931</ele>
        <time>2022-08-14T14:16:43.254Z</time>
      </trkpt>
      <trkpt lat="43.67723" lon="1.45339">
        <ele>185.824587</ele>
        <time>2022-08-14T14:16:45.262Z</time>
      </trkpt>
      <trkpt lat="43.67733" lon="1.45346">
        <ele>185.847491</ele>
        <time>2022-08-14T14:16:47.264Z</time>
      </trkpt>
      <trkpt lat="43.67743" lon="1.45354">
        <ele>185.870783</ele>
        <time>2022-08-14T14:16:49.259Z</time>
      </trkpt>
      <trkpt lat="43.67753" lon="1.4536">
        <ele>185.89317</ele>
        <time>2022-08-14T14:16:51.272Z</time>
      </trkpt>
      <trkpt lat="43.67763" lon="1.45368">
        <ele>185.915306</ele>
        <time>2022-08-14T14:16:53.245Z</time>
      </trkpt>
      <trkpt lat="43.67773" lon="1.45376">
        <ele>185.937907</ele>
        <time>2022-08-14T14:16:55.266Z</time>
      </trkpt>
      <trkpt lat="43.67783" lon="1.45383">
        <ele>185.960565</ele>
        <time>2022-08-14T14:16:57.258Z</time>
      </trkpt>
      <trkpt lat="43.67792" lon="1.45392">
        <ele>185.983034</ele>
        <time>2022-08-14T14:16:59.255Z</time>
      </trkpt>
      <trkpt lat="43.67802" lon="1.45398">
        <ele>186.004838</ele>
        <time>2022-08-14T14:17:01.252Z</time>
      </trkpt>
      <trkpt lat="43.67812" lon="1.45404">
        <ele>186.03292</ele>
        <time>2022-08-14T14:17:03.246Z</time>
      </trkpt>
      <trkpt lat="43.67819" lon="1.45413">
        <ele>186.087926</ele>
        <time>2022-08-14T14:17:05.251Z</time>
      </trkpt>
      <trkpt lat="43.67828" lon="1.45421">
        <ele>186.144104</ele>
        <time>2022-08-14T14:17:07.246Z</time>
      </trkpt>
      <trkpt lat="43.67837" lon="1.45428">
        <ele>186.200564</ele>
        <time>2022-08-14T14:17:09.256Z</time>
      </trkpt>
      <trkpt lat="43.67846" lon="1.45434">
        <ele>186.253184</ele>
        <time>2022-08-14T14:17:11.262Z</time>
      </trkpt>
      <trkpt lat="43.67855" lon="1.45435">
        <ele>186.302868</ele>
        <time>2022-08-14T14:17:13.259Z</time>
      </trkpt>
      <trkpt lat="43.67864" lon="1.45429">
        <ele>186.354647</ele>
        <time>2022-08-14T14:17:15.261Z</time>
      </trkpt>
      <trkpt lat="43.67872" lon="1.45423">
        <ele>186.408089</ele>
        <time>2022-08-14T14:17:17.259Z</time>
      </trkpt>
      <trkpt lat="43.67882" lon="1.45415">
        <ele>186.468554</ele>
        <time>2022-08-14T14:17:19.253Z</time>
      </trkpt>
      <trkpt lat="43.67892" lon="1.45407">
        <ele>186.528602</ele>
        <time>2022-08-14T14:17:21.260Z</time>
      </trkpt>
      <trkpt lat="43.67901" lon="1.45404">
        <ele>186.58226</ele>
        <time>2022-08-14T14:17:23.259Z</time>
      </trkpt>
      <trkpt lat="43.67912" lon="1.45398">
        <ele>186.641822</ele>
        <time>2022-08-14T14:17:25.250Z</time>
      </trkpt>
      <trkpt lat="43.67922" lon="1.45392">
        <ele>186.704608</ele>
        <time>2022-08-14T14:17:27.238Z</time>
      </trkpt>
      <trkpt lat="43.67933" lon="1.45386">
        <ele>186.766016</ele>
        <time>2022-08-14T14:17:29.266Z</time>
      </trkpt>
      <trkpt lat="43.67944" lon="1.45379">
        <ele>186.829219</ele>
        <time>2022-08-14T14:17:31.256Z</time>
      </trkpt>
      <trkpt lat="43.67954" lon="1.45373">
        <ele>186.891216</ele>
        <time>2022-08-14T14:17:33.252Z</time>
      </trkpt>
      <trkpt lat="43.67965" lon="1.45368">
        <ele>186.954564</ele>
        <time>2022-08-14T14:17:35.259Z</time>
      </trkpt>
      <trkpt lat="43.67976" lon="1.45361">
        <ele>186.988186</ele>
        <time>2022-08-14T14:17:37.262Z</time>
      </trkpt>
      <trkpt lat="43.67985" lon="1.45351">
        <ele>186.978307</ele>
        <time>2022-08-14T14:17:39.263Z</time>
      </trkpt>
      <trkpt lat="43.67995" lon="1.45345">
        <ele>186.968581</ele>
        <time>2022-08-14T14:17:41.266Z</time>
      </trkpt>
      <trkpt lat="43.68005" lon="1.45338">
        <ele>186.958819</ele>
        <time>2022-08-14T14:17:43.253Z</time>
      </trkpt>
      <trkpt lat="43.68015" lon="1.4533">
        <ele>186.948942</ele>
        <time>2022-08-14T14:17:45.263Z</time>
      </trkpt>
      <trkpt lat="43.68026" lon="1.45322">
        <ele>186.938929</ele>
        <time>2022-08-14T14:17:47.253Z</time>
      </trkpt>
      <trkpt lat="43.68036" lon="1.45314">
        <ele>186.929035</ele>
        <time>2022-08-14T14:17:49.257Z</time>
      </trkpt>
      <trkpt lat="43.68045" lon="1.45306">
        <ele>186.919098</ele>
        <time>2022-08-14T14:17:51.238Z</time>
      </trkpt>
      <trkpt lat="43.68055" lon="1.45297">
        <ele>186.909166</ele>
        <time>2022-08-14T14:17:53.254Z</time>
      </trkpt>
      <trkpt lat="43.68065" lon="1.45289">
        <ele>186.899228</ele>
        <time>2022-08-14T14:17:55.250Z</time>
      </trkpt>
      <trkpt lat="43.68075" lon="1.4528">
        <ele>186.889324</ele>
        <time>2022-08-14T14:17:57.239Z</time>
      </trkpt>
      <trkpt lat="43.68084" lon="1.45272">
        <ele>186.879641</ele>
        <time>2022-08-14T14:17:59.255Z</time>
      </trkpt>
      <trkpt lat="43.68094" lon="1.45263">
        <ele>186.869842</ele>
        <time>2022-08-14T14:18:01.274Z</time>
      </trkpt>
      <trkpt lat="43.68103" lon="1.45255">
        <ele>186.860126</ele>
        <time>2022-08-14T14:18:03.261Z</time>
      </trkpt>
      <trkpt lat="43.68113" lon="1.45246">
        <ele>186.850333</ele>
        <time>2022-08-14T14:18:05.257Z</time>
      </trkpt>
      <trkpt lat="43.68122" lon="1.45237">
        <ele>186.840547</ele>
        <time>2022-08-14T14:18:07.266Z</time>
      </trkpt>
      <trkpt lat="43.68132" lon="1.45228">
        <ele>186.93364</ele>
        <time>2022-08-14T14:18:09.260Z</time>
      </trkpt>
      <trkpt lat="43.68141" lon="1.45219">
        <ele>187.067786</ele>
        <time>2022-08-14T14:18:11.261Z</time>
      </trkpt>
      <trkpt lat="43.68151" lon="1.4521">
        <ele>187.203442</ele>
        <time>2022-08-14T14:18:13.259Z</time>
      </trkpt>
      <trkpt lat="43.68161" lon="1.45203">
        <ele>187.331241</ele>
        <time>2022-08-14T14:18:15.278Z</time>
      </trkpt>
      <trkpt lat="43.6817" lon="1.4521">
        <ele>187.451503</ele>
        <time>2022-08-14T14:18:17.250Z</time>
      </trkpt>
      <trkpt lat="43.68174" lon="1.45226">
        <ele>187.589265</ele>
        <time>2022-08-14T14:18:19.259Z</time>
      </trkpt>
      <trkpt lat="43.68177" lon="1.45242">
        <ele>187.735499</ele>
        <time>2022-08-14T14:18:21.247Z</time>
      </trkpt>
      <trkpt lat="43.68181" lon="1.45258">
        <ele>187.873715</ele>
        <time>2022-08-14T14:18:23.256Z</time>
      </trkpt>
      <trkpt lat="43.68184" lon="1.45275">
        <ele>188.01493</ele>
        <time>2022-08-14T14:18:25.262Z</time>
      </trkpt>
      <trkpt lat="43.68188" lon="1.45291">
        <ele>188.158111</ele>
        <time>2022-08-14T14:18:27.253Z</time>
      </trkpt>
      <trkpt lat="43.68191" lon="1.45306">
        <ele>188.293843</ele>
        <time>2022-08-14T14:18:29.243Z</time>
      </trkpt>
      <trkpt lat="43.68195" lon="1.45322">
        <ele>188.429944</ele>
        <time>2022-08-14T14:18:31.265Z</time>
      </trkpt>
      <trkpt lat="43.68199" lon="1.45337">
        <ele>188.567213</ele>
        <time>2022-08-14T14:18:33.256Z</time>
      </trkpt>
      <trkpt lat="43.68202" lon="1.45352">
        <ele>188.699841</ele>
        <time>2022-08-14T14:18:35.248Z</time>
      </trkpt>
      <trkpt lat="43.68207" lon="1.45367">
        <ele>188.835672</ele>
        <time>2022-08-14T14:18:37.262Z</time>
      </trkpt>
      <trkpt lat="43.68211" lon="1.45382">
        <ele>188.956139</ele>
        <time>2022-08-14T14:18:39.247Z</time>
      </trkpt>
      <trkpt lat="43.68215" lon="1.45398">
        <ele>189.061345</ele>
        <time>2022-08-14T14:18:41.252Z</time>
      </trkpt>
      <trkpt lat="43.68218" lon="1.45414">
        <ele>189.16757</ele>
        <time>2022-08-14T14:18:43.237Z</time>
      </trkpt>
      <trkpt lat="43.68223" lon="1.45431">
        <ele>189.276564</ele>
        <time>2022-08-14T14:18:45.244Z</time>
      </trkpt>
      <trkpt lat="43.68228" lon="1.45446">
        <ele>189.380407</ele>
        <time>2022-08-14T14:18:47.284Z</time>
      </trkpt>
      <trkpt lat="43.68233" lon="1.45462">
        <ele>189.489013</ele>
        <time>2022-08-14T14:18:49.249Z</time>
      </trkpt>
      <trkpt lat="43.68238" lon="1.45478">
        <ele>189.594989</ele>
        <time>2022-08-14T14:18:51.240Z</time>
      </trkpt>
      <trkpt lat="43.68242" lon="1.45493">
        <ele>189.698233</ele>
        <time>2022-08-14T14:18:53.273Z</time>
      </trkpt>
      <trkpt lat="43.68246" lon="1.45508">
        <ele>189.798151</ele>
        <time>2022-08-14T14:18:55.251Z</time>
      </trkpt>
      <trkpt lat="43.68251" lon="1.45523">
        <ele>189.897533</ele>
        <time>2022-08-14T14:18:57.252Z</time>
      </trkpt>
      <trkpt lat="43.68254" lon="1.45538">
        <ele>189.997786</ele>
        <time>2022-08-14T14:18:59.251Z</time>
      </trkpt>
      <trkpt lat="43.68258" lon="1.45553">
        <ele>190.0989</ele>
        <time>2022-08-14T14:19:01.268Z</time>
      </trkpt>
      <trkpt lat="43.68262" lon="1.45568">
        <ele>190.196785</ele>
        <time>2022-08-14T14:19:03.259Z</time>
      </trkpt>
      <trkpt lat="43.68265" lon="1.45583">
        <ele>190.291844</ele>
        <time>2022-08-14T14:19:05.259Z</time>
      </trkpt>
      <trkpt lat="43.68268" lon="1.45598">
        <ele>190.388692</ele>
        <time>2022-08-14T14:19:07.247Z</time>
      </trkpt>
      <trkpt lat="43.68271" lon="1.45613">
        <ele>190.504218</ele>
        <time>2022-08-14T14:19:09.248Z</time>
      </trkpt>
      <trkpt lat="43.68274" lon="1.45628">
        <ele>190.703111</ele>
        <time>2022-08-14T14:19:11.245Z</time>
      </trkpt>
      <trkpt lat="43.68276" lon="1.45643">
        <ele>190.900608</ele>
        <time>2022-08-14T14:19:13.260Z</time>
      </trkpt>
      <trkpt lat="43.68277" lon="1.45658">
        <ele>191.096933</ele>
        <time>2022-08-14T14:19:15.257Z</time>
      </trkpt>
      <trkpt lat="43.68279" lon="1.45673">
        <ele>191.295118</ele>
        <time>2022-08-14T14:19:17.270Z</time>
      </trkpt>
      <trkpt lat="43.68279" lon="1.45688">
        <ele>191.490709</ele>
        <time>2022-08-14T14:19:19.249Z</time>
      </trkpt>
      <trkpt lat="43.68278" lon="1.45703">
        <ele>191.690313</ele>
        <time>2022-08-14T14:19:21.253Z</time>
      </trkpt>
      <trkpt lat="43.68278" lon="1.45718">
        <ele>191.887646</ele>
        <time>2022-08-14T14:19:23.266Z</time>
      </trkpt>
      <trkpt lat="43.68277" lon="1.45733">
        <ele>192.080115</ele>
        <time>2022-08-14T14:19:25.242Z</time>
      </trkpt>
      <trkpt lat="43.68276" lon="1.45747">
        <ele>192.263394</ele>
        <time>2022-08-14T14:19:27.258Z</time>
      </trkpt>
      <trkpt lat="43.68275" lon="1.45761">
        <ele>192.440226</ele>
        <time>2022-08-14T14:19:29.266Z</time>
      </trkpt>
      <trkpt lat="43.68274" lon="1.45775">
        <ele>192.618059</ele>
        <time>2022-08-14T14:19:31.265Z</time>
      </trkpt>
      <trkpt lat="43.68273" lon="1.45789">
        <ele>192.807518</ele>
        <time>2022-08-14T14:19:33.251Z</time>
      </trkpt>
      <trkpt lat="43.68273" lon="1.45804">
        <ele>192.99816</ele>
        <time>2022-08-14T14:19:35.251Z</time>
      </trkpt>
      <trkpt lat="43.68272" lon="1.45818">
        <ele>193.18531</ele>
        <time>2022-08-14T14:19:37.254Z</time>
      </trkpt>
      <trkpt lat="43.68271" lon="1.45833">
        <ele>193.374769</ele>
        <time>2022-08-14T14:19:39.247Z</time>
      </trkpt>
      <trkpt lat="43.6827" lon="1.45848">
        <ele>193.570811</ele>
        <time>2022-08-14T14:19:41.279Z</time>
      </trkpt>
      <trkpt lat="43.68269" lon="1.45863">
        <ele>193.887888</ele>
        <time>2022-08-14T14:19:43.245Z</time>
      </trkpt>
      <trkpt lat="43.68268" lon="1.45877">
        <ele>194.398986</ele>
        <time>2022-08-14T14:19:45.273Z</time>
      </trkpt>
      <trkpt lat="43.68268" lon="1.45891">
        <ele>194.927315</ele>
        <time>2022-08-14T14:19:48.236Z</time>
      </trkpt>
      <trkpt lat="43.68266" lon="1.45909">
        <ele>195.562034</ele>
        <time>2022-08-14T14:19:52.267Z</time>
      </trkpt>
      <trkpt lat="43.68265" lon="1.45926">
        <ele>196.203173</ele>
        <time>2022-08-14T14:19:55.250Z</time>
      </trkpt>
      <trkpt lat="43.68263" lon="1.45939">
        <ele>196.676633</ele>
        <time>2022-08-14T14:19:57.251Z</time>
      </trkpt>
      <trkpt lat="43.68262" lon="1.45952">
        <ele>197.148681</ele>
        <time>2022-08-14T14:19:59.278Z</time>
      </trkpt>
      <trkpt lat="43.68261" lon="1.45966">
        <ele>197.637055</ele>
        <time>2022-08-14T14:20:01.253Z</time>
      </trkpt>
      <trkpt lat="43.68261" lon="1.45979">
        <ele>198.111014</ele>
        <time>2022-08-14T14:20:03.256Z</time>
      </trkpt>
      <trkpt lat="43.68262" lon="1.45993">
        <ele>198.614919</ele>
        <time>2022-08-14T14:20:05.243Z</time>
      </trkpt>
      <trkpt lat="43.68263" lon="1.46007">
        <ele>199.12038</ele>
        <time>2022-08-14T14:20:07.260Z</time>
      </trkpt>
      <trkpt lat="43.68267" lon="1.46024">
        <ele>199.764022</ele>
        <time>2022-08-14T14:20:10.278Z</time>
      </trkpt>
      <trkpt lat="43.68272" lon="1.4604">
        <ele>200.425838</ele>
        <time>2022-08-14T14:20:13.259Z</time>
      </trkpt>
      <trkpt lat="43.68276" lon="1.46057">
        <ele>201.057623</ele>
        <time>2022-08-14T14:20:16.260Z</time>
      </trkpt>
      <trkpt lat="43.68278" lon="1.46075">
        <ele>201.713079</ele>
        <time>2022-08-14T14:20:19.248Z</time>
      </trkpt>
      <trkpt lat="43.68279" lon="1.46093">
        <ele>202.375732</ele>
        <time>2022-08-14T14:20:22.278Z</time>
      </trkpt>
      <trkpt lat="43.6828" lon="1.46112">
        <ele>202.845201</ele>
        <time>2022-08-14T14:20:25.256Z</time>
      </trkpt>
      <trkpt lat="43.68282" lon="1.4613">
        <ele>203.151505</ele>
        <time>2022-08-14T14:20:28.278Z</time>
      </trkpt>
      <trkpt lat="43.68281" lon="1.46142">
        <ele>203.367307</ele>
        <time>2022-08-14T14:20:30.261Z</time>
      </trkpt>
      <trkpt lat="43.6828" lon="1.46156">
        <ele>203.603534</ele>
        <time>2022-08-14T14:20:32.295Z</time>
      </trkpt>
      <trkpt lat="43.68278" lon="1.46171">
        <ele>203.852926</ele>
        <time>2022-08-14T14:20:34.243Z</time>
      </trkpt>
      <trkpt lat="43.68273" lon="1.46184">
        <ele>204.104886</ele>
        <time>2022-08-14T14:20:36.272Z</time>
      </trkpt>
      <trkpt lat="43.68269" lon="1.46198">
        <ele>204.364588</ele>
        <time>2022-08-14T14:20:38.253Z</time>
      </trkpt>
      <trkpt lat="43.68265" lon="1.46213">
        <ele>204.625451</ele>
        <time>2022-08-14T14:20:40.260Z</time>
      </trkpt>
      <trkpt lat="43.68261" lon="1.46227">
        <ele>204.892628</ele>
        <time>2022-08-14T14:20:42.260Z</time>
      </trkpt>
      <trkpt lat="43.68256" lon="1.46242">
        <ele>205.16794</ele>
        <time>2022-08-14T14:20:44.266Z</time>
      </trkpt>
      <trkpt lat="43.68252" lon="1.46258">
        <ele>205.445033</ele>
        <time>2022-08-14T14:20:46.257Z</time>
      </trkpt>
      <trkpt lat="43.68246" lon="1.46273">
        <ele>205.727362</ele>
        <time>2022-08-14T14:20:48.258Z</time>
      </trkpt>
      <trkpt lat="43.6824" lon="1.46287">
        <ele>206.006951</ele>
        <time>2022-08-14T14:20:50.259Z</time>
      </trkpt>
      <trkpt lat="43.68234" lon="1.46301">
        <ele>206.286747</ele>
        <time>2022-08-14T14:20:52.255Z</time>
      </trkpt>
      <trkpt lat="43.68227" lon="1.46314">
        <ele>206.563756</ele>
        <time>2022-08-14T14:20:54.247Z</time>
      </trkpt>
      <trkpt lat="43.68219" lon="1.46326">
        <ele>206.8376</ele>
        <time>2022-08-14T14:20:56.248Z</time>
      </trkpt>
      <trkpt lat="43.68211" lon="1.46337">
        <ele>207.46602</ele>
        <time>2022-08-14T14:20:58.249Z</time>
      </trkpt>
      <trkpt lat="43.68202" lon="1.46347">
        <ele>208.155082</ele>
        <time>2022-08-14T14:21:00.274Z</time>
      </trkpt>
      <trkpt lat="43.68194" lon="1.46359">
        <ele>208.832164</ele>
        <time>2022-08-14T14:21:02.270Z</time>
      </trkpt>
      <trkpt lat="43.68186" lon="1.4637">
        <ele>209.493754</ele>
        <time>2022-08-14T14:21:04.238Z</time>
      </trkpt>
      <trkpt lat="43.68176" lon="1.46376">
        <ele>210.120037</ele>
        <time>2022-08-14T14:21:06.257Z</time>
      </trkpt>
      <trkpt lat="43.68167" lon="1.46374">
        <ele>210.701759</ele>
        <time>2022-08-14T14:21:08.274Z</time>
      </trkpt>
      <trkpt lat="43.68158" lon="1.46369">
        <ele>211.275944</ele>
        <time>2022-08-14T14:21:10.248Z</time>
      </trkpt>
      <trkpt lat="43.68146" lon="1.46365">
        <ele>211.982387</ele>
        <time>2022-08-14T14:21:13.240Z</time>
      </trkpt>
      <trkpt lat="43.68134" lon="1.46359">
        <ele>212.764495</ele>
        <time>2022-08-14T14:21:16.253Z</time>
      </trkpt>
      <trkpt lat="43.68126" lon="1.46352">
        <ele>213.304535</ele>
        <time>2022-08-14T14:21:18.263Z</time>
      </trkpt>
      <trkpt lat="43.68118" lon="1.46346">
        <ele>213.848713</ele>
        <time>2022-08-14T14:21:20.257Z</time>
      </trkpt>
      <trkpt lat="43.68107" lon="1.46338">
        <ele>214.597158</ele>
        <time>2022-08-14T14:21:23.250Z</time>
      </trkpt>
      <trkpt lat="43.68095" lon="1.46338">
        <ele>215.277243</ele>
        <time>2022-08-14T14:21:26.249Z</time>
      </trkpt>
      <trkpt lat="43.68088" lon="1.46349">
        <ele>215.8855</ele>
        <time>2022-08-14T14:21:28.267Z</time>
      </trkpt>
      <trkpt lat="43.68083" lon="1.46361">
        <ele>216.466437</ele>
        <time>2022-08-14T14:21:30.272Z</time>
      </trkpt>
      <trkpt lat="43.68079" lon="1.46372">
        <ele>217.000052</ele>
        <time>2022-08-14T14:21:32.264Z</time>
      </trkpt>
      <trkpt lat="43.68074" lon="1.46383">
        <ele>217.529288</ele>
        <time>2022-08-14T14:21:34.256Z</time>
      </trkpt>
      <trkpt lat="43.68069" lon="1.46395">
        <ele>217.740824</ele>
        <time>2022-08-14T14:21:36.267Z</time>
      </trkpt>
      <trkpt lat="43.68065" lon="1.46406">
        <ele>217.944136</ele>
        <time>2022-08-14T14:21:38.270Z</time>
      </trkpt>
      <trkpt lat="43.6806" lon="1.46417">
        <ele>218.140216</ele>
        <time>2022-08-14T14:21:40.262Z</time>
      </trkpt>
      <trkpt lat="43.68054" lon="1.46427">
        <ele>218.341391</ele>
        <time>2022-08-14T14:21:42.264Z</time>
      </trkpt>
      <trkpt lat="43.68049" lon="1.46439">
        <ele>218.556716</ele>
        <time>2022-08-14T14:21:44.265Z</time>
      </trkpt>
      <trkpt lat="43.68044" lon="1.46451">
        <ele>218.781368</ele>
        <time>2022-08-14T14:21:46.254Z</time>
      </trkpt>
      <trkpt lat="43.68038" lon="1.46463">
        <ele>219.001273</ele>
        <time>2022-08-14T14:21:48.260Z</time>
      </trkpt>
      <trkpt lat="43.68034" lon="1.46477">
        <ele>219.23236</ele>
        <time>2022-08-14T14:21:50.262Z</time>
      </trkpt>
      <trkpt lat="43.68031" lon="1.46491">
        <ele>219.46819</ele>
        <time>2022-08-14T14:21:52.267Z</time>
      </trkpt>
      <trkpt lat="43.68028" lon="1.46507">
        <ele>219.71484</ele>
        <time>2022-08-14T14:21:54.256Z</time>
      </trkpt>
      <trkpt lat="43.68029" lon="1.4652">
        <ele>219.931733</ele>
        <time>2022-08-14T14:21:56.262Z</time>
      </trkpt>
      <trkpt lat="43.68027" lon="1.46536">
        <ele>220.18191</ele>
        <time>2022-08-14T14:21:58.257Z</time>
      </trkpt>
      <trkpt lat="43.68024" lon="1.46553">
        <ele>220.456889</ele>
        <time>2022-08-14T14:22:00.244Z</time>
      </trkpt>
      <trkpt lat="43.68019" lon="1.46568">
        <ele>220.704193</ele>
        <time>2022-08-14T14:22:02.269Z</time>
      </trkpt>
      <trkpt lat="43.68013" lon="1.4658">
        <ele>220.939387</ele>
        <time>2022-08-14T14:22:04.251Z</time>
      </trkpt>
      <trkpt lat="43.68007" lon="1.46594">
        <ele>221.186529</ele>
        <time>2022-08-14T14:22:06.254Z</time>
      </trkpt>
      <trkpt lat="43.68" lon="1.46607">
        <ele>221.545777</ele>
        <time>2022-08-14T14:22:08.268Z</time>
      </trkpt>
      <trkpt lat="43.67992" lon="1.4662">
        <ele>222.180541</ele>
        <time>2022-08-14T14:22:10.270Z</time>
      </trkpt>
      <trkpt lat="43.67984" lon="1.4663">
        <ele>222.773135</ele>
        <time>2022-08-14T14:22:12.266Z</time>
      </trkpt>
      <trkpt lat="43.67976" lon="1.46638">
        <ele>223.35529</ele>
        <time>2022-08-14T14:22:14.255Z</time>
      </trkpt>
      <trkpt lat="43.67967" lon="1.46644">
        <ele>223.882289</ele>
        <time>2022-08-14T14:22:16.262Z</time>
      </trkpt>
      <trkpt lat="43.67956" lon="1.46651">
        <ele>224.572563</ele>
        <time>2022-08-14T14:22:19.253Z</time>
      </trkpt>
      <trkpt lat="43.67947" lon="1.4666">
        <ele>225.189389</ele>
        <time>2022-08-14T14:22:22.263Z</time>
      </trkpt>
      <trkpt lat="43.67938" lon="1.46668">
        <ele>225.749883</ele>
        <time>2022-08-14T14:22:25.266Z</time>
      </trkpt>
      <trkpt lat="43.6793" lon="1.46674">
        <ele>226.251142</ele>
        <time>2022-08-14T14:22:27.259Z</time>
      </trkpt>
      <trkpt lat="43.67918" lon="1.4668">
        <ele>226.952208</ele>
        <time>2022-08-14T14:22:30.272Z</time>
      </trkpt>
      <trkpt lat="43.67906" lon="1.46687">
        <ele>227.665733</ele>
        <time>2022-08-14T14:22:33.260Z</time>
      </trkpt>
      <trkpt lat="43.67894" lon="1.46694">
        <ele>228.392838</ele>
        <time>2022-08-14T14:22:36.267Z</time>
      </trkpt>
      <trkpt lat="43.67883" lon="1.46702">
        <ele>229.080122</ele>
        <time>2022-08-14T14:22:39.261Z</time>
      </trkpt>
      <trkpt lat="43.67871" lon="1.46711">
        <ele>229.830758</ele>
        <time>2022-08-14T14:22:42.263Z</time>
      </trkpt>
      <trkpt lat="43.67863" lon="1.46715">
        <ele>230.324747</ele>
        <time>2022-08-14T14:22:44.248Z</time>
      </trkpt>
      <trkpt lat="43.6785" lon="1.46721">
        <ele>231.036598</ele>
        <time>2022-08-14T14:22:47.293Z</time>
      </trkpt>
      <trkpt lat="43.67842" lon="1.46724">
        <ele>231.519663</ele>
        <time>2022-08-14T14:22:49.254Z</time>
      </trkpt>
      <trkpt lat="43.67829" lon="1.46727">
        <ele>232.20191</ele>
        <time>2022-08-14T14:22:52.252Z</time>
      </trkpt>
      <trkpt lat="43.6782" lon="1.46727">
        <ele>232.673532</ele>
        <time>2022-08-14T14:22:54.259Z</time>
      </trkpt>
      <trkpt lat="43.67811" lon="1.46727">
        <ele>233.155922</ele>
        <time>2022-08-14T14:22:56.269Z</time>
      </trkpt>
      <trkpt lat="43.67802" lon="1.46724">
        <ele>233.639086</ele>
        <time>2022-08-14T14:22:58.263Z</time>
      </trkpt>
      <trkpt lat="43.67789" lon="1.46716">
        <ele>234.34307</ele>
        <time>2022-08-14T14:23:01.263Z</time>
      </trkpt>
      <trkpt lat="43.67779" lon="1.46707">
        <ele>234.997723</ele>
        <time>2022-08-14T14:23:04.272Z</time>
      </trkpt>
      <trkpt lat="43.67768" lon="1.46701">
        <ele>235.586095</ele>
        <time>2022-08-14T14:23:07.248Z</time>
      </trkpt>
      <trkpt lat="43.67758" lon="1.46708">
        <ele>236.164837</ele>
        <time>2022-08-14T14:23:10.265Z</time>
      </trkpt>
      <trkpt lat="43.67748" lon="1.46719">
        <ele>236.830029</ele>
        <time>2022-08-14T14:23:13.264Z</time>
      </trkpt>
      <trkpt lat="43.67737" lon="1.46727">
        <ele>237.533298</ele>
        <time>2022-08-14T14:23:16.266Z</time>
      </trkpt>
      <trkpt lat="43.67728" lon="1.46732">
        <ele>238.035035</ele>
        <time>2022-08-14T14:23:18.278Z</time>
      </trkpt>
      <trkpt lat="43.67719" lon="1.46737">
        <ele>238.51884</ele>
        <time>2022-08-14T14:23:20.268Z</time>
      </trkpt>
      <trkpt lat="43.67711" lon="1.46743">
        <ele>239.006533</ele>
        <time>2022-08-14T14:23:22.258Z</time>
      </trkpt>
      <trkpt lat="43.67699" lon="1.46751">
        <ele>239.686838</ele>
        <time>2022-08-14T14:23:25.280Z</time>
      </trkpt>
      <trkpt lat="43.67688" lon="1.4676">
        <ele>240.376222</ele>
        <time>2022-08-14T14:23:28.251Z</time>
      </trkpt>
      <trkpt lat="43.67676" lon="1.46767">
        <ele>240.886375</ele>
        <time>2022-08-14T14:23:31.259Z</time>
      </trkpt>
      <trkpt lat="43.67664" lon="1.46776">
        <ele>241.229491</ele>
        <time>2022-08-14T14:23:34.261Z</time>
      </trkpt>
      <trkpt lat="43.67653" lon="1.46785">
        <ele>241.558955</ele>
        <time>2022-08-14T14:23:37.261Z</time>
      </trkpt>
      <trkpt lat="43.67642" lon="1.46794">
        <ele>241.90833</ele>
        <time>2022-08-14T14:23:40.288Z</time>
      </trkpt>
      <trkpt lat="43.67632" lon="1.46807">
        <ele>242.24517</ele>
        <time>2022-08-14T14:23:43.257Z</time>
      </trkpt>
      <trkpt lat="43.67627" lon="1.46816">
        <ele>242.479191</ele>
        <time>2022-08-14T14:23:45.265Z</time>
      </trkpt>
      <trkpt lat="43.67621" lon="1.46826">
        <ele>242.719015</ele>
        <time>2022-08-14T14:23:47.262Z</time>
      </trkpt>
      <trkpt lat="43.67615" lon="1.46836">
        <ele>242.964871</ele>
        <time>2022-08-14T14:23:49.244Z</time>
      </trkpt>
      <trkpt lat="43.67609" lon="1.46846">
        <ele>243.207798</ele>
        <time>2022-08-14T14:23:51.259Z</time>
      </trkpt>
      <trkpt lat="43.67603" lon="1.46856">
        <ele>243.452187</ele>
        <time>2022-08-14T14:23:53.254Z</time>
      </trkpt>
      <trkpt lat="43.67597" lon="1.46867">
        <ele>243.694949</ele>
        <time>2022-08-14T14:23:55.263Z</time>
      </trkpt>
      <trkpt lat="43.67591" lon="1.46877">
        <ele>243.94601</ele>
        <time>2022-08-14T14:23:57.263Z</time>
      </trkpt>
      <trkpt lat="43.67584" lon="1.46887">
        <ele>244.214457</ele>
        <time>2022-08-14T14:23:59.243Z</time>
      </trkpt>
      <trkpt lat="43.67577" lon="1.46898">
        <ele>244.483664</ele>
        <time>2022-08-14T14:24:01.254Z</time>
      </trkpt>
      <trkpt lat="43.6757" lon="1.46909">
        <ele>244.761823</ele>
        <time>2022-08-14T14:24:03.269Z</time>
      </trkpt>
      <trkpt lat="43.67562" lon="1.46919">
        <ele>245.042544</ele>
        <time>2022-08-14T14:24:05.273Z</time>
      </trkpt>
      <trkpt lat="43.67554" lon="1.46927">
        <ele>245.302687</ele>
        <time>2022-08-14T14:24:07.252Z</time>
      </trkpt>
      <trkpt lat="43.67543" lon="1.46938">
        <ele>245.217392</ele>
        <time>2022-08-14T14:24:10.267Z</time>
      </trkpt>
      <trkpt lat="43.67539" lon="1.46954">
        <ele>245.014793</ele>
        <time>2022-08-14T14:24:12.267Z</time>
      </trkpt>
      <trkpt lat="43.67536" lon="1.46968">
        <ele>244.829117</ele>
        <time>2022-08-14T14:24:14.263Z</time>
      </trkpt>
      <trkpt lat="43.67531" lon="1.46983">
        <ele>244.624634</ele>
        <time>2022-08-14T14:24:16.263Z</time>
      </trkpt>
      <trkpt lat="43.67527" lon="1.46999">
        <ele>244.419801</ele>
        <time>2022-08-14T14:24:18.273Z</time>
      </trkpt>
      <trkpt lat="43.67521" lon="1.47014">
        <ele>244.211109</ele>
        <time>2022-08-14T14:24:20.269Z</time>
      </trkpt>
      <trkpt lat="43.67516" lon="1.47029">
        <ele>243.999639</ele>
        <time>2022-08-14T14:24:22.254Z</time>
      </trkpt>
      <trkpt lat="43.6751" lon="1.47045">
        <ele>243.792222</ele>
        <time>2022-08-14T14:24:24.266Z</time>
      </trkpt>
      <trkpt lat="43.67506" lon="1.4706">
        <ele>243.585345</ele>
        <time>2022-08-14T14:24:26.275Z</time>
      </trkpt>
      <trkpt lat="43.67501" lon="1.47075">
        <ele>243.389745</ele>
        <time>2022-08-14T14:24:28.277Z</time>
      </trkpt>
      <trkpt lat="43.67497" lon="1.47089">
        <ele>243.200202</ele>
        <time>2022-08-14T14:24:30.247Z</time>
      </trkpt>
      <trkpt lat="43.67492" lon="1.47103">
        <ele>243.014416</ele>
        <time>2022-08-14T14:24:32.252Z</time>
      </trkpt>
      <trkpt lat="43.67487" lon="1.47116">
        <ele>242.838285</ele>
        <time>2022-08-14T14:24:34.277Z</time>
      </trkpt>
      <trkpt lat="43.67474" lon="1.47117">
        <ele>242.610121</ele>
        <time>2022-08-14T14:24:37.255Z</time>
      </trkpt>
      <trkpt lat="43.67463" lon="1.4711">
        <ele>242.40521</ele>
        <time>2022-08-14T14:24:39.266Z</time>
      </trkpt>
      <trkpt lat="43.6745" lon="1.47102">
        <ele>241.740892</ele>
        <time>2022-08-14T14:24:41.263Z</time>
      </trkpt>
      <trkpt lat="43.67436" lon="1.47095">
        <ele>240.836834</ele>
        <time>2022-08-14T14:24:43.266Z</time>
      </trkpt>
      <trkpt lat="43.6742" lon="1.47087">
        <ele>239.838158</ele>
        <time>2022-08-14T14:24:45.295Z</time>
      </trkpt>
      <trkpt lat="43.67412" lon="1.47082">
        <ele>239.293304</ele>
        <time>2022-08-14T14:24:46.252Z</time>
      </trkpt>
      <trkpt lat="43.67403" lon="1.47077">
        <ele>238.737607</ele>
        <time>2022-08-14T14:24:47.258Z</time>
      </trkpt>
      <trkpt lat="43.67394" lon="1.47071">
        <ele>238.138352</ele>
        <time>2022-08-14T14:24:48.265Z</time>
      </trkpt>
      <trkpt lat="43.67385" lon="1.47064">
        <ele>237.504733</ele>
        <time>2022-08-14T14:24:49.268Z</time>
      </trkpt>
      <trkpt lat="43.67375" lon="1.47058">
        <ele>236.840701</ele>
        <time>2022-08-14T14:24:50.268Z</time>
      </trkpt>
      <trkpt lat="43.67365" lon="1.47052">
        <ele>236.214634</ele>
        <time>2022-08-14T14:24:51.258Z</time>
      </trkpt>
      <trkpt lat="43.67356" lon="1.47046">
        <ele>235.624674</ele>
        <time>2022-08-14T14:24:52.272Z</time>
      </trkpt>
      <trkpt lat="43.67348" lon="1.4704">
        <ele>235.077699</ele>
        <time>2022-08-14T14:24:53.270Z</time>
      </trkpt>
      <trkpt lat="43.67335" lon="1.47031">
        <ele>234.201388</ele>
        <time>2022-08-14T14:24:55.284Z</time>
      </trkpt>
      <trkpt lat="43.67327" lon="1.47023">
        <ele>233.622794</ele>
        <time>2022-08-14T14:24:57.248Z</time>
      </trkpt>
      <trkpt lat="43.67318" lon="1.47022">
        <ele>233.082015</ele>
        <time>2022-08-14T14:25:01.258Z</time>
      </trkpt>
      <trkpt lat="43.67309" lon="1.47031">
        <ele>232.416635</ele>
        <time>2022-08-14T14:25:04.268Z</time>
      </trkpt>
      <trkpt lat="43.67304" lon="1.47042">
        <ele>231.85429</ele>
        <time>2022-08-14T14:25:06.279Z</time>
      </trkpt>
      <trkpt lat="43.67298" lon="1.47053">
        <ele>231.906476</ele>
        <time>2022-08-14T14:25:08.247Z</time>
      </trkpt>
      <trkpt lat="43.67293" lon="1.47065">
        <ele>232.323946</ele>
        <time>2022-08-14T14:25:10.257Z</time>
      </trkpt>
      <trkpt lat="43.6729" lon="1.47077">
        <ele>232.728625</ele>
        <time>2022-08-14T14:25:12.256Z</time>
      </trkpt>
      <trkpt lat="43.67288" lon="1.4709">
        <ele>233.137518</ele>
        <time>2022-08-14T14:25:14.254Z</time>
      </trkpt>
      <trkpt lat="43.67288" lon="1.47103">
        <ele>233.542363</ele>
        <time>2022-08-14T14:25:16.243Z</time>
      </trkpt>
      <trkpt lat="43.67287" lon="1.47116">
        <ele>233.943154</ele>
        <time>2022-08-14T14:25:18.276Z</time>
      </trkpt>
      <trkpt lat="43.67287" lon="1.47129">
        <ele>234.335516</ele>
        <time>2022-08-14T14:25:20.289Z</time>
      </trkpt>
      <trkpt lat="43.67285" lon="1.47141">
        <ele>234.728249</ele>
        <time>2022-08-14T14:25:22.262Z</time>
      </trkpt>
      <trkpt lat="43.67283" lon="1.47153">
        <ele>235.125838</ele>
        <time>2022-08-14T14:25:24.238Z</time>
      </trkpt>
      <trkpt lat="43.67278" lon="1.4717">
        <ele>235.702795</ele>
        <time>2022-08-14T14:25:27.269Z</time>
      </trkpt>
      <trkpt lat="43.67272" lon="1.47187">
        <ele>236.292243</ele>
        <time>2022-08-14T14:25:30.263Z</time>
      </trkpt>
      <trkpt lat="43.67267" lon="1.47198">
        <ele>236.6932</ele>
        <time>2022-08-14T14:25:32.254Z</time>
      </trkpt>
      <trkpt lat="43.67263" lon="1.4721">
        <ele>237.094828</ele>
        <time>2022-08-14T14:25:34.258Z</time>
      </trkpt>
      <trkpt lat="43.67258" lon="1.47221">
        <ele>237.495785</ele>
        <time>2022-08-14T14:25:36.257Z</time>
      </trkpt>
      <trkpt lat="43.67254" lon="1.47232">
        <ele>237.896143</ele>
        <time>2022-08-14T14:25:38.249Z</time>
      </trkpt>
      <trkpt lat="43.6725" lon="1.47243">
        <ele>238.2833</ele>
        <time>2022-08-14T14:25:40.268Z</time>
      </trkpt>
      <trkpt lat="43.67244" lon="1.4726">
        <ele>238.855785</ele>
        <time>2022-08-14T14:25:43.268Z</time>
      </trkpt>
      <trkpt lat="43.6724" lon="1.47277">
        <ele>239.423885</ele>
        <time>2022-08-14T14:25:46.299Z</time>
      </trkpt>
      <trkpt lat="43.67238" lon="1.4729">
        <ele>239.727034</ele>
        <time>2022-08-14T14:25:48.255Z</time>
      </trkpt>
      <trkpt lat="43.67236" lon="1.47302">
        <ele>240.028859</ele>
        <time>2022-08-14T14:25:50.260Z</time>
      </trkpt>
      <trkpt lat="43.67235" lon="1.47315">
        <ele>240.331257</ele>
        <time>2022-08-14T14:25:52.270Z</time>
      </trkpt>
      <trkpt lat="43.67233" lon="1.47327">
        <ele>240.63833</ele>
        <time>2022-08-14T14:25:54.257Z</time>
      </trkpt>
      <trkpt lat="43.67231" lon="1.47341">
        <ele>240.958757</ele>
        <time>2022-08-14T14:25:56.251Z</time>
      </trkpt>
      <trkpt lat="43.67229" lon="1.47355">
        <ele>241.293754</ele>
        <time>2022-08-14T14:25:58.270Z</time>
      </trkpt>
      <trkpt lat="43.67228" lon="1.47369">
        <ele>241.634603</ele>
        <time>2022-08-14T14:26:00.265Z</time>
      </trkpt>
      <trkpt lat="43.67226" lon="1.47383">
        <ele>241.981955</ele>
        <time>2022-08-14T14:26:02.270Z</time>
      </trkpt>
      <trkpt lat="43.67225" lon="1.47398">
        <ele>242.321609</ele>
        <time>2022-08-14T14:26:04.244Z</time>
      </trkpt>
      <trkpt lat="43.67226" lon="1.47412">
        <ele>242.660505</ele>
        <time>2022-08-14T14:26:06.252Z</time>
      </trkpt>
      <trkpt lat="43.67228" lon="1.47426">
        <ele>242.993563</ele>
        <time>2022-08-14T14:26:08.266Z</time>
      </trkpt>
      <trkpt lat="43.67233" lon="1.47438">
        <ele>243.32358</ele>
        <time>2022-08-14T14:26:10.260Z</time>
      </trkpt>
      <trkpt lat="43.67239" lon="1.47449">
        <ele>243.659532</ele>
        <time>2022-08-14T14:26:12.283Z</time>
      </trkpt>
      <trkpt lat="43.67248" lon="1.47457">
        <ele>244.004387</ele>
        <time>2022-08-14T14:26:14.266Z</time>
      </trkpt>
      <trkpt lat="43.67257" lon="1.47464">
        <ele>244.344509</ele>
        <time>2022-08-14T14:26:16.286Z</time>
      </trkpt>
      <trkpt lat="43.67267" lon="1.47468">
        <ele>244.688785</ele>
        <time>2022-08-14T14:26:18.269Z</time>
      </trkpt>
      <trkpt lat="43.67277" lon="1.47473">
        <ele>245.030732</ele>
        <time>2022-08-14T14:26:20.270Z</time>
      </trkpt>
      <trkpt lat="43.67287" lon="1.47477">
        <ele>245.384731</ele>
        <time>2022-08-14T14:26:22.253Z</time>
      </trkpt>
      <trkpt lat="43.67297" lon="1.47481">
        <ele>245.762538</ele>
        <time>2022-08-14T14:26:24.261Z</time>
      </trkpt>
      <trkpt lat="43.67308" lon="1.47486">
        <ele>246.136957</ele>
        <time>2022-08-14T14:26:26.274Z</time>
      </trkpt>
      <trkpt lat="43.67318" lon="1.4749">
        <ele>246.516003</ele>
        <time>2022-08-14T14:26:28.247Z</time>
      </trkpt>
      <trkpt lat="43.67328" lon="1.47494">
        <ele>246.884828</ele>
        <time>2022-08-14T14:26:30.275Z</time>
      </trkpt>
      <trkpt lat="43.67338" lon="1.47497">
        <ele>247.247509</ele>
        <time>2022-08-14T14:26:32.258Z</time>
      </trkpt>
      <trkpt lat="43.67348" lon="1.47501">
        <ele>247.612931</ele>
        <time>2022-08-14T14:26:34.256Z</time>
      </trkpt>
      <trkpt lat="43.67357" lon="1.47506">
        <ele>247.977205</ele>
        <time>2022-08-14T14:26:36.257Z</time>
      </trkpt>
      <trkpt lat="43.67367" lon="1.4751">
        <ele>248.343878</ele>
        <time>2022-08-14T14:26:38.266Z</time>
      </trkpt>
      <trkpt lat="43.67377" lon="1.47515">
        <ele>248.705559</ele>
        <time>2022-08-14T14:26:40.261Z</time>
      </trkpt>
      <trkpt lat="43.67387" lon="1.47519">
        <ele>249.065684</ele>
        <time>2022-08-14T14:26:42.267Z</time>
      </trkpt>
      <trkpt lat="43.67396" lon="1.47523">
        <ele>249.429958</ele>
        <time>2022-08-14T14:26:44.243Z</time>
      </trkpt>
      <trkpt lat="43.67406" lon="1.47528">
        <ele>249.782394</ele>
        <time>2022-08-14T14:26:46.259Z</time>
      </trkpt>
      <trkpt lat="43.67415" lon="1.47533">
        <ele>250.14585</ele>
        <time>2022-08-14T14:26:48.281Z</time>
      </trkpt>
      <trkpt lat="43.67425" lon="1.47539">
        <ele>250.515884</ele>
        <time>2022-08-14T14:26:50.261Z</time>
      </trkpt>
      <trkpt lat="43.67434" lon="1.47546">
        <ele>250.883594</ele>
        <time>2022-08-14T14:26:52.301Z</time>
      </trkpt>
      <trkpt lat="43.67442" lon="1.47554">
        <ele>251.250806</ele>
        <time>2022-08-14T14:26:54.266Z</time>
      </trkpt>
      <trkpt lat="43.67451" lon="1.47563">
        <ele>251.631216</ele>
        <time>2022-08-14T14:26:56.259Z</time>
      </trkpt>
      <trkpt lat="43.6746" lon="1.47572">
        <ele>251.640091</ele>
        <time>2022-08-14T14:26:58.268Z</time>
      </trkpt>
      <trkpt lat="43.67469" lon="1.47581">
        <ele>251.60995</ele>
        <time>2022-08-14T14:27:00.265Z</time>
      </trkpt>
      <trkpt lat="43.67478" lon="1.47591">
        <ele>251.578062</ele>
        <time>2022-08-14T14:27:02.265Z</time>
      </trkpt>
      <trkpt lat="43.67488" lon="1.47601">
        <ele>251.545069</ele>
        <time>2022-08-14T14:27:04.286Z</time>
      </trkpt>
      <trkpt lat="43.67499" lon="1.47612">
        <ele>251.510987</ele>
        <time>2022-08-14T14:27:06.252Z</time>
      </trkpt>
      <trkpt lat="43.67509" lon="1.47622">
        <ele>251.476245</ele>
        <time>2022-08-14T14:27:08.271Z</time>
      </trkpt>
      <trkpt lat="43.6752" lon="1.47633">
        <ele>251.441287</ele>
        <time>2022-08-14T14:27:10.268Z</time>
      </trkpt>
      <trkpt lat="43.67531" lon="1.47643">
        <ele>251.406117</ele>
        <time>2022-08-14T14:27:12.249Z</time>
      </trkpt>
      <trkpt lat="43.67541" lon="1.47654">
        <ele>251.371166</ele>
        <time>2022-08-14T14:27:14.262Z</time>
      </trkpt>
      <trkpt lat="43.67552" lon="1.47663">
        <ele>251.336076</ele>
        <time>2022-08-14T14:27:16.264Z</time>
      </trkpt>
      <trkpt lat="43.67564" lon="1.47673">
        <ele>251.300736</ele>
        <time>2022-08-14T14:27:18.262Z</time>
      </trkpt>
      <trkpt lat="43.67575" lon="1.47682">
        <ele>251.266119</ele>
        <time>2022-08-14T14:27:20.298Z</time>
      </trkpt>
      <trkpt lat="43.67586" lon="1.47691">
        <ele>251.231271</ele>
        <time>2022-08-14T14:27:22.262Z</time>
      </trkpt>
      <trkpt lat="43.67598" lon="1.47699">
        <ele>251.197169</ele>
        <time>2022-08-14T14:27:24.270Z</time>
      </trkpt>
      <trkpt lat="43.67609" lon="1.47706">
        <ele>251.048991</ele>
        <time>2022-08-14T14:27:26.283Z</time>
      </trkpt>
      <trkpt lat="43.6762" lon="1.47712">
        <ele>250.844869</ele>
        <time>2022-08-14T14:27:28.269Z</time>
      </trkpt>
      <trkpt lat="43.67632" lon="1.47717">
        <ele>250.643137</ele>
        <time>2022-08-14T14:27:30.267Z</time>
      </trkpt>
      <trkpt lat="43.67644" lon="1.4772">
        <ele>250.440498</ele>
        <time>2022-08-14T14:27:32.276Z</time>
      </trkpt>
      <trkpt lat="43.67655" lon="1.47721">
        <ele>250.242311</ele>
        <time>2022-08-14T14:27:34.287Z</time>
      </trkpt>
      <trkpt lat="43.67667" lon="1.47721">
        <ele>250.042941</ele>
        <time>2022-08-14T14:27:36.276Z</time>
      </trkpt>
      <trkpt lat="43.67676" lon="1.47727">
        <ele>249.873583</ele>
        <time>2022-08-14T14:27:38.263Z</time>
      </trkpt>
      <trkpt lat="43.67671" lon="1.47743">
        <ele>249.658794</ele>
        <time>2022-08-14T14:27:41.256Z</time>
      </trkpt>
      <trkpt lat="43.67662" lon="1.47756">
        <ele>249.447084</ele>
        <time>2022-08-14T14:27:43.269Z</time>
      </trkpt>
      <trkpt lat="43.67655" lon="1.47771">
        <ele>249.224433</ele>
        <time>2022-08-14T14:27:45.267Z</time>
      </trkpt>
      <trkpt lat="43.67651" lon="1.47786">
        <ele>249.029236</ele>
        <time>2022-08-14T14:27:47.254Z</time>
      </trkpt>
      <trkpt lat="43.67655" lon="1.47801">
        <ele>248.831576</ele>
        <time>2022-08-14T14:27:49.266Z</time>
      </trkpt>
      <trkpt lat="43.67664" lon="1.47812">
        <ele>248.639627</ele>
        <time>2022-08-14T14:27:51.259Z</time>
      </trkpt>
      <trkpt lat="43.67673" lon="1.4782">
        <ele>248.459304</ele>
        <time>2022-08-14T14:27:53.256Z</time>
      </trkpt>
      <trkpt lat="43.67681" lon="1.47829">
        <ele>248.285864</ele>
        <time>2022-08-14T14:27:55.259Z</time>
      </trkpt>
      <trkpt lat="43.67689" lon="1.47838">
        <ele>247.902061</ele>
        <time>2022-08-14T14:27:57.267Z</time>
      </trkpt>
      <trkpt lat="43.6769" lon="1.47852">
        <ele>247.160533</ele>
        <time>2022-08-14T14:27:59.254Z</time>
      </trkpt>
      <trkpt lat="43.67684" lon="1.47868">
        <ele>246.267246</ele>
        <time>2022-08-14T14:28:01.269Z</time>
      </trkpt>
      <trkpt lat="43.67677" lon="1.47885">
        <ele>245.237174</ele>
        <time>2022-08-14T14:28:03.271Z</time>
      </trkpt>
      <trkpt lat="43.67671" lon="1.47905">
        <ele>244.087301</ele>
        <time>2022-08-14T14:28:05.258Z</time>
      </trkpt>
      <trkpt lat="43.67671" lon="1.47927">
        <ele>242.928854</ele>
        <time>2022-08-14T14:28:07.253Z</time>
      </trkpt>
      <trkpt lat="43.67674" lon="1.47944">
        <ele>241.984392</ele>
        <time>2022-08-14T14:28:09.253Z</time>
      </trkpt>
      <trkpt lat="43.67676" lon="1.47959">
        <ele>241.205713</ele>
        <time>2022-08-14T14:28:11.261Z</time>
      </trkpt>
      <trkpt lat="43.67669" lon="1.47968">
        <ele>240.519629</ele>
        <time>2022-08-14T14:28:15.261Z</time>
      </trkpt>
      <trkpt lat="43.67657" lon="1.47971">
        <ele>239.622709</ele>
        <time>2022-08-14T14:28:18.247Z</time>
      </trkpt>
      <trkpt lat="43.67646" lon="1.47979">
        <ele>238.701418</ele>
        <time>2022-08-14T14:28:21.259Z</time>
      </trkpt>
      <trkpt lat="43.67639" lon="1.47996">
        <ele>237.654958</ele>
        <time>2022-08-14T14:28:23.265Z</time>
      </trkpt>
      <trkpt lat="43.67631" lon="1.4802">
        <ele>236.242455</ele>
        <time>2022-08-14T14:28:25.263Z</time>
      </trkpt>
      <trkpt lat="43.67625" lon="1.48035">
        <ele>235.35364</ele>
        <time>2022-08-14T14:28:27.265Z</time>
      </trkpt>
      <trkpt lat="43.67617" lon="1.48023">
        <ele>233.726038</ele>
        <time>2022-08-14T14:28:31.266Z</time>
      </trkpt>
      <trkpt lat="43.67614" lon="1.48005">
        <ele>231.669426</ele>
        <time>2022-08-14T14:28:33.273Z</time>
      </trkpt>
      <trkpt lat="43.67609" lon="1.47991">
        <ele>229.798153</ele>
        <time>2022-08-14T14:28:35.278Z</time>
      </trkpt>
      <trkpt lat="43.67601" lon="1.47982">
        <ele>228.048617</ele>
        <time>2022-08-14T14:28:38.265Z</time>
      </trkpt>
      <trkpt lat="43.6759" lon="1.47982">
        <ele>226.270372</ele>
        <time>2022-08-14T14:28:50.255Z</time>
      </trkpt>
      <trkpt lat="43.6758" lon="1.47987">
        <ele>224.532296</ele>
        <time>2022-08-14T14:28:54.249Z</time>
      </trkpt>
      <trkpt lat="43.6757" lon="1.47996">
        <ele>222.603882</ele>
        <time>2022-08-14T14:28:57.254Z</time>
      </trkpt>
      <trkpt lat="43.67568" lon="1.48009">
        <ele>221.101834</ele>
        <time>2022-08-14T14:29:00.267Z</time>
      </trkpt>
      <trkpt lat="43.6756" lon="1.4802">
        <ele>219.267309</ele>
        <time>2022-08-14T14:29:02.245Z</time>
      </trkpt>
      <trkpt lat="43.6755" lon="1.48034">
        <ele>216.921189</ele>
        <time>2022-08-14T14:29:04.253Z</time>
      </trkpt>
      <trkpt lat="43.67544" lon="1.48051">
        <ele>214.737033</ele>
        <time>2022-08-14T14:29:06.258Z</time>
      </trkpt>
      <trkpt lat="43.67534" lon="1.48055">
        <ele>213.072919</ele>
        <time>2022-08-14T14:29:10.246Z</time>
      </trkpt>
      <trkpt lat="43.67522" lon="1.4806">
        <ele>211.006432</ele>
        <time>2022-08-14T14:29:13.274Z</time>
      </trkpt>
      <trkpt lat="43.67512" lon="1.48057">
        <ele>209.435702</ele>
        <time>2022-08-14T14:29:15.265Z</time>
      </trkpt>
      <trkpt lat="43.67502" lon="1.48053">
        <ele>207.656329</ele>
        <time>2022-08-14T14:29:17.262Z</time>
      </trkpt>
      <trkpt lat="43.67491" lon="1.48049">
        <ele>205.978062</ele>
        <time>2022-08-14T14:29:19.248Z</time>
      </trkpt>
      <trkpt lat="43.67479" lon="1.48044">
        <ele>205.745433</ele>
        <time>2022-08-14T14:29:21.264Z</time>
      </trkpt>
      <trkpt lat="43.67468" lon="1.48039">
        <ele>205.514837</ele>
        <time>2022-08-14T14:29:23.239Z</time>
      </trkpt>
      <trkpt lat="43.67456" lon="1.48037">
        <ele>205.293977</ele>
        <time>2022-08-14T14:29:25.252Z</time>
      </trkpt>
      <trkpt lat="43.67445" lon="1.48034">
        <ele>205.078114</ele>
        <time>2022-08-14T14:29:27.257Z</time>
      </trkpt>
      <trkpt lat="43.67433" lon="1.48028">
        <ele>204.835454</ele>
        <time>2022-08-14T14:29:29.257Z</time>
      </trkpt>
      <trkpt lat="43.67422" lon="1.48018">
        <ele>204.579987</ele>
        <time>2022-08-14T14:29:31.271Z</time>
      </trkpt>
      <trkpt lat="43.67412" lon="1.48007">
        <ele>204.321312</ele>
        <time>2022-08-14T14:29:33.254Z</time>
      </trkpt>
      <trkpt lat="43.67402" lon="1.47995">
        <ele>204.076282</ele>
        <time>2022-08-14T14:29:35.279Z</time>
      </trkpt>
      <trkpt lat="43.67395" lon="1.47982">
        <ele>203.851962</ele>
        <time>2022-08-14T14:29:37.266Z</time>
      </trkpt>
      <trkpt lat="43.67387" lon="1.47971">
        <ele>203.635428</ele>
        <time>2022-08-14T14:29:39.278Z</time>
      </trkpt>
      <trkpt lat="43.67379" lon="1.47959">
        <ele>203.408781</ele>
        <time>2022-08-14T14:29:41.262Z</time>
      </trkpt>
      <trkpt lat="43.67371" lon="1.47947">
        <ele>203.179084</ele>
        <time>2022-08-14T14:29:43.287Z</time>
      </trkpt>
      <trkpt lat="43.67361" lon="1.47936">
        <ele>202.934663</ele>
        <time>2022-08-14T14:29:45.311Z</time>
      </trkpt>
      <trkpt lat="43.67352" lon="1.47925">
        <ele>202.698639</ele>
        <time>2022-08-14T14:29:47.300Z</time>
      </trkpt>
      <trkpt lat="43.67343" lon="1.47915">
        <ele>202.480122</ele>
        <time>2022-08-14T14:29:49.258Z</time>
      </trkpt>
      <trkpt lat="43.67334" lon="1.47905">
        <ele>202.275503</ele>
        <time>2022-08-14T14:29:51.280Z</time>
      </trkpt>
      <trkpt lat="43.67326" lon="1.47895">
        <ele>202.06974</ele>
        <time>2022-08-14T14:29:53.268Z</time>
      </trkpt>
      <trkpt lat="43.67315" lon="1.47888">
        <ele>201.851503</ele>
        <time>2022-08-14T14:29:55.267Z</time>
      </trkpt>
      <trkpt lat="43.67302" lon="1.47887">
        <ele>201.611207</ele>
        <time>2022-08-14T14:29:57.275Z</time>
      </trkpt>
      <trkpt lat="43.6729" lon="1.47898">
        <ele>201.350945</ele>
        <time>2022-08-14T14:29:59.272Z</time>
      </trkpt>
      <trkpt lat="43.6728" lon="1.47898">
        <ele>201.168408</ele>
        <time>2022-08-14T14:30:01.262Z</time>
      </trkpt>
      <trkpt lat="43.67274" lon="1.47887">
        <ele>200.988533</ele>
        <time>2022-08-14T14:30:03.271Z</time>
      </trkpt>
      <trkpt lat="43.67268" lon="1.47875">
        <ele>200.789725</ele>
        <time>2022-08-14T14:30:05.282Z</time>
      </trkpt>
      <trkpt lat="43.6726" lon="1.47867">
        <ele>200.608897</ele>
        <time>2022-08-14T14:30:07.263Z</time>
      </trkpt>
      <trkpt lat="43.6725" lon="1.47863">
        <ele>200.418388</ele>
        <time>2022-08-14T14:30:09.262Z</time>
      </trkpt>
      <trkpt lat="43.67239" lon="1.47861">
        <ele>200.211839</ele>
        <time>2022-08-14T14:30:11.265Z</time>
      </trkpt>
      <trkpt lat="43.67227" lon="1.47861">
        <ele>199.99607</ele>
        <time>2022-08-14T14:30:13.282Z</time>
      </trkpt>
      <trkpt lat="43.67215" lon="1.47859">
        <ele>199.780554</ele>
        <time>2022-08-14T14:30:15.285Z</time>
      </trkpt>
      <trkpt lat="43.67204" lon="1.47856">
        <ele>199.564313</ele>
        <time>2022-08-14T14:30:17.276Z</time>
      </trkpt>
      <trkpt lat="43.67191" lon="1.47855">
        <ele>199.334305</ele>
        <time>2022-08-14T14:30:19.259Z</time>
      </trkpt>
      <trkpt lat="43.6718" lon="1.47851">
        <ele>199.149978</ele>
        <time>2022-08-14T14:30:21.279Z</time>
      </trkpt>
      <trkpt lat="43.67169" lon="1.4785">
        <ele>198.990049</ele>
        <time>2022-08-14T14:30:23.275Z</time>
      </trkpt>
      <trkpt lat="43.67157" lon="1.47849">
        <ele>198.823327</ele>
        <time>2022-08-14T14:30:25.266Z</time>
      </trkpt>
      <trkpt lat="43.67144" lon="1.47849">
        <ele>198.651204</ele>
        <time>2022-08-14T14:30:27.264Z</time>
      </trkpt>
      <trkpt lat="43.67132" lon="1.47847">
        <ele>198.483792</ele>
        <time>2022-08-14T14:30:29.265Z</time>
      </trkpt>
      <trkpt lat="43.6712" lon="1.47842">
        <ele>198.314426</ele>
        <time>2022-08-14T14:30:31.281Z</time>
      </trkpt>
      <trkpt lat="43.67109" lon="1.47839">
        <ele>198.150196</ele>
        <time>2022-08-14T14:30:33.289Z</time>
      </trkpt>
      <trkpt lat="43.67097" lon="1.47835">
        <ele>197.982659</ele>
        <time>2022-08-14T14:30:35.274Z</time>
      </trkpt>
      <trkpt lat="43.67086" lon="1.47828">
        <ele>197.823816</ele>
        <time>2022-08-14T14:30:37.261Z</time>
      </trkpt>
      <trkpt lat="43.67076" lon="1.4782">
        <ele>197.660841</ele>
        <time>2022-08-14T14:30:39.256Z</time>
      </trkpt>
      <trkpt lat="43.67066" lon="1.47811">
        <ele>197.489553</ele>
        <time>2022-08-14T14:30:41.254Z</time>
      </trkpt>
      <trkpt lat="43.67055" lon="1.47802">
        <ele>197.320991</ele>
        <time>2022-08-14T14:30:43.265Z</time>
      </trkpt>
      <trkpt lat="43.67046" lon="1.47792">
        <ele>197.158414</ele>
        <time>2022-08-14T14:30:45.262Z</time>
      </trkpt>
      <trkpt lat="43.67039" lon="1.47779">
        <ele>196.999068</ele>
        <time>2022-08-14T14:30:47.276Z</time>
      </trkpt>
      <trkpt lat="43.67035" lon="1.47764">
        <ele>196.841956</ele>
        <time>2022-08-14T14:30:49.265Z</time>
      </trkpt>
      <trkpt lat="43.6703" lon="1.4775">
        <ele>196.727811</ele>
        <time>2022-08-14T14:30:51.285Z</time>
      </trkpt>
      <trkpt lat="43.67023" lon="1.47737">
        <ele>196.676156</ele>
        <time>2022-08-14T14:30:53.266Z</time>
      </trkpt>
      <trkpt lat="43.67017" lon="1.47723">
        <ele>196.623798</ele>
        <time>2022-08-14T14:30:55.293Z</time>
      </trkpt>
      <trkpt lat="43.67011" lon="1.47709">
        <ele>196.57278</ele>
        <time>2022-08-14T14:30:57.267Z</time>
      </trkpt>
      <trkpt lat="43.67005" lon="1.47694">
        <ele>196.519984</ele>
        <time>2022-08-14T14:30:59.280Z</time>
      </trkpt>
      <trkpt lat="43.67001" lon="1.47679">
        <ele>196.468449</ele>
        <time>2022-08-14T14:31:01.282Z</time>
      </trkpt>
      <trkpt lat="43.66997" lon="1.47664">
        <ele>196.41838</ele>
        <time>2022-08-14T14:31:03.293Z</time>
      </trkpt>
      <trkpt lat="43.66995" lon="1.47649">
        <ele>196.36994</ele>
        <time>2022-08-14T14:31:05.264Z</time>
      </trkpt>
      <trkpt lat="43.66991" lon="1.47634">
        <ele>196.320915</ele>
        <time>2022-08-14T14:31:07.277Z</time>
      </trkpt>
      <trkpt lat="43.66989" lon="1.47619">
        <ele>196.272794</ele>
        <time>2022-08-14T14:31:09.266Z</time>
      </trkpt>
      <trkpt lat="43.6699" lon="1.47605">
        <ele>196.228166</ele>
        <time>2022-08-14T14:31:11.273Z</time>
      </trkpt>
      <trkpt lat="43.66982" lon="1.47594">
        <ele>196.181147</ele>
        <time>2022-08-14T14:31:13.282Z</time>
      </trkpt>
      <trkpt lat="43.66974" lon="1.47583">
        <ele>196.130597</ele>
        <time>2022-08-14T14:31:15.291Z</time>
      </trkpt>
      <trkpt lat="43.66964" lon="1.47574">
        <ele>196.080237</ele>
        <time>2022-08-14T14:31:17.283Z</time>
      </trkpt>
      <trkpt lat="43.66955" lon="1.47564">
        <ele>196.029426</ele>
        <time>2022-08-14T14:31:19.264Z</time>
      </trkpt>
      <trkpt lat="43.66945" lon="1.47556">
        <ele>195.9776</ele>
        <time>2022-08-14T14:31:21.280Z</time>
      </trkpt>
      <trkpt lat="43.66932" lon="1.47552">
        <ele>196.062535</ele>
        <time>2022-08-14T14:31:23.283Z</time>
      </trkpt>
      <trkpt lat="43.66921" lon="1.4754">
        <ele>196.182776</ele>
        <time>2022-08-14T14:31:25.286Z</time>
      </trkpt>
      <trkpt lat="43.66915" lon="1.47525">
        <ele>196.294887</ele>
        <time>2022-08-14T14:31:27.272Z</time>
      </trkpt>
      <trkpt lat="43.66907" lon="1.47512">
        <ele>196.402557</ele>
        <time>2022-08-14T14:31:29.274Z</time>
      </trkpt>
      <trkpt lat="43.66896" lon="1.47506">
        <ele>196.51448</ele>
        <time>2022-08-14T14:31:31.277Z</time>
      </trkpt>
      <trkpt lat="43.66884" lon="1.47497">
        <ele>196.629497</ele>
        <time>2022-08-14T14:31:33.262Z</time>
      </trkpt>
      <trkpt lat="43.66875" lon="1.47486">
        <ele>196.742087</ele>
        <time>2022-08-14T14:31:35.270Z</time>
      </trkpt>
      <trkpt lat="43.66866" lon="1.47475">
        <ele>196.850306</ele>
        <time>2022-08-14T14:31:37.263Z</time>
      </trkpt>
      <trkpt lat="43.66857" lon="1.47465">
        <ele>196.956434</ele>
        <time>2022-08-14T14:31:39.267Z</time>
      </trkpt>
      <trkpt lat="43.66848" lon="1.47454">
        <ele>197.062026</ele>
        <time>2022-08-14T14:31:41.274Z</time>
      </trkpt>
      <trkpt lat="43.66839" lon="1.47443">
        <ele>197.166027</ele>
        <time>2022-08-14T14:31:43.269Z</time>
      </trkpt>
      <trkpt lat="43.6683" lon="1.47433">
        <ele>197.269005</ele>
        <time>2022-08-14T14:31:45.264Z</time>
      </trkpt>
      <trkpt lat="43.66826" lon="1.4742">
        <ele>197.36528</ele>
        <time>2022-08-14T14:31:47.269Z</time>
      </trkpt>
      <trkpt lat="43.66819" lon="1.47407">
        <ele>197.466434</ele>
        <time>2022-08-14T14:31:50.265Z</time>
      </trkpt>
      <trkpt lat="43.66811" lon="1.47401">
        <ele>197.550029</ele>
        <time>2022-08-14T14:31:52.256Z</time>
      </trkpt>
      <trkpt lat="43.66803" lon="1.47396">
        <ele>197.58181</ele>
        <time>2022-08-14T14:31:54.281Z</time>
      </trkpt>
      <trkpt lat="43.66792" lon="1.47387">
        <ele>197.579296</ele>
        <time>2022-08-14T14:31:57.294Z</time>
      </trkpt>
      <trkpt lat="43.66781" lon="1.47379">
        <ele>197.576608</ele>
        <time>2022-08-14T14:32:00.273Z</time>
      </trkpt>
      <trkpt lat="43.66771" lon="1.47375">
        <ele>197.574431</ele>
        <time>2022-08-14T14:32:02.277Z</time>
      </trkpt>
      <trkpt lat="43.66761" lon="1.47371">
        <ele>197.572246</ele>
        <time>2022-08-14T14:32:04.269Z</time>
      </trkpt>
      <trkpt lat="43.66749" lon="1.47367">
        <ele>197.569837</ele>
        <time>2022-08-14T14:32:07.272Z</time>
      </trkpt>
      <trkpt lat="43.66739" lon="1.47363">
        <ele>197.567624</ele>
        <time>2022-08-14T14:32:10.284Z</time>
      </trkpt>
      <trkpt lat="43.6673" lon="1.4736">
        <ele>197.565729</ele>
        <time>2022-08-14T14:32:12.259Z</time>
      </trkpt>
      <trkpt lat="43.66719" lon="1.47356">
        <ele>197.563352</ele>
        <time>2022-08-14T14:32:14.258Z</time>
      </trkpt>
      <trkpt lat="43.66709" lon="1.47351">
        <ele>197.561107</ele>
        <time>2022-08-14T14:32:16.291Z</time>
      </trkpt>
      <trkpt lat="43.66698" lon="1.47347">
        <ele>197.558723</ele>
        <time>2022-08-14T14:32:19.270Z</time>
      </trkpt>
      <trkpt lat="43.66689" lon="1.47345">
        <ele>197.556821</ele>
        <time>2022-08-14T14:32:22.271Z</time>
      </trkpt>
      <trkpt lat="43.66679" lon="1.47341">
        <ele>197.554676</ele>
        <time>2022-08-14T14:32:24.262Z</time>
      </trkpt>
      <trkpt lat="43.66668" lon="1.47337">
        <ele>197.552383</ele>
        <time>2022-08-14T14:32:26.281Z</time>
      </trkpt>
      <trkpt lat="43.66657" lon="1.47333">
        <ele>197.550004</ele>
        <time>2022-08-14T14:32:28.282Z</time>
      </trkpt>
      <trkpt lat="43.66647" lon="1.47329">
        <ele>197.547791</ele>
        <time>2022-08-14T14:32:30.288Z</time>
      </trkpt>
      <trkpt lat="43.66637" lon="1.4733">
        <ele>197.545781</ele>
        <time>2022-08-14T14:32:33.274Z</time>
      </trkpt>
      <trkpt lat="43.66638" lon="1.47343">
        <ele>197.560739</ele>
        <time>2022-08-14T14:32:36.271Z</time>
      </trkpt>
      <trkpt lat="43.66643" lon="1.47355">
        <ele>197.576299</ele>
        <time>2022-08-14T14:32:38.259Z</time>
      </trkpt>
      <trkpt lat="43.66648" lon="1.4737">
        <ele>197.596065</ele>
        <time>2022-08-14T14:32:40.254Z</time>
      </trkpt>
      <trkpt lat="43.66654" lon="1.47385">
        <ele>197.616608</ele>
        <time>2022-08-14T14:32:42.261Z</time>
      </trkpt>
      <trkpt lat="43.66661" lon="1.47401">
        <ele>197.638088</ele>
        <time>2022-08-14T14:32:44.258Z</time>
      </trkpt>
      <trkpt lat="43.66668" lon="1.47415">
        <ele>197.658995</ele>
        <time>2022-08-14T14:32:46.272Z</time>
      </trkpt>
      <trkpt lat="43.66676" lon="1.4743">
        <ele>197.680087</ele>
        <time>2022-08-14T14:32:48.266Z</time>
      </trkpt>
      <trkpt lat="43.66685" lon="1.47442">
        <ele>197.7006</ele>
        <time>2022-08-14T14:32:50.272Z</time>
      </trkpt>
      <trkpt lat="43.66694" lon="1.47453">
        <ele>197.719725</ele>
        <time>2022-08-14T14:32:52.257Z</time>
      </trkpt>
      <trkpt lat="43.66702" lon="1.47463">
        <ele>197.738346</ele>
        <time>2022-08-14T14:32:54.266Z</time>
      </trkpt>
      <trkpt lat="43.66711" lon="1.47472">
        <ele>197.75574</ele>
        <time>2022-08-14T14:32:56.262Z</time>
      </trkpt>
      <trkpt lat="43.6672" lon="1.47479">
        <ele>197.772525</ele>
        <time>2022-08-14T14:32:58.273Z</time>
      </trkpt>
      <trkpt lat="43.66729" lon="1.47485">
        <ele>197.789201</ele>
        <time>2022-08-14T14:33:00.268Z</time>
      </trkpt>
      <trkpt lat="43.66738" lon="1.47493">
        <ele>197.806484</ele>
        <time>2022-08-14T14:33:02.265Z</time>
      </trkpt>
      <trkpt lat="43.66746" lon="1.475">
        <ele>197.822755</ele>
        <time>2022-08-14T14:33:04.254Z</time>
      </trkpt>
      <trkpt lat="43.66756" lon="1.47504">
        <ele>197.838416</ele>
        <time>2022-08-14T14:33:06.262Z</time>
      </trkpt>
      <trkpt lat="43.66764" lon="1.47509">
        <ele>197.659896</ele>
        <time>2022-08-14T14:33:08.263Z</time>
      </trkpt>
      <trkpt lat="43.66776" lon="1.47512">
        <ele>197.437792</ele>
        <time>2022-08-14T14:33:11.267Z</time>
      </trkpt>
      <trkpt lat="43.66786" lon="1.47509">
        <ele>197.248238</ele>
        <time>2022-08-14T14:33:13.264Z</time>
      </trkpt>
      <trkpt lat="43.66799" lon="1.47497">
        <ele>196.95707</ele>
        <time>2022-08-14T14:33:15.271Z</time>
      </trkpt>
      <trkpt lat="43.66807" lon="1.47491">
        <ele>196.774055</ele>
        <time>2022-08-14T14:33:16.267Z</time>
      </trkpt>
      <trkpt lat="43.66816" lon="1.47484">
        <ele>196.580494</ele>
        <time>2022-08-14T14:33:17.271Z</time>
      </trkpt>
      <trkpt lat="43.66828" lon="1.47477">
        <ele>196.336512</ele>
        <time>2022-08-14T14:33:19.269Z</time>
      </trkpt>
      <trkpt lat="43.66837" lon="1.47483">
        <ele>196.137233</ele>
        <time>2022-08-14T14:33:23.260Z</time>
      </trkpt>
      <trkpt lat="43.66848" lon="1.47485">
        <ele>195.938054</ele>
        <time>2022-08-14T14:33:26.261Z</time>
      </trkpt>
      <trkpt lat="43.66855" lon="1.475">
        <ele>195.701194</ele>
        <time>2022-08-14T14:33:29.274Z</time>
      </trkpt>
      <trkpt lat="43.66864" lon="1.47513">
        <ele>195.453953</ele>
        <time>2022-08-14T14:33:32.263Z</time>
      </trkpt>
      <trkpt lat="43.66873" lon="1.47526">
        <ele>195.20663</ele>
        <time>2022-08-14T14:33:35.263Z</time>
      </trkpt>
      <trkpt lat="43.66881" lon="1.47536">
        <ele>195.002042</ele>
        <time>2022-08-14T14:33:37.271Z</time>
      </trkpt>
      <trkpt lat="43.66889" lon="1.47545">
        <ele>194.795304</ele>
        <time>2022-08-14T14:33:39.263Z</time>
      </trkpt>
      <trkpt lat="43.66896" lon="1.47556">
        <ele>194.606714</ele>
        <time>2022-08-14T14:33:41.283Z</time>
      </trkpt>
      <trkpt lat="43.66905" lon="1.47565">
        <ele>194.460508</ele>
        <time>2022-08-14T14:33:44.269Z</time>
      </trkpt>
      <trkpt lat="43.6691" lon="1.47576">
        <ele>194.647802</ele>
        <time>2022-08-14T14:33:46.282Z</time>
      </trkpt>
      <trkpt lat="43.66918" lon="1.47585">
        <ele>194.8398</ele>
        <time>2022-08-14T14:33:48.282Z</time>
      </trkpt>
      <trkpt lat="43.66925" lon="1.47594">
        <ele>195.028451</ele>
        <time>2022-08-14T14:33:51.264Z</time>
      </trkpt>
      <trkpt lat="43.66935" lon="1.47604">
        <ele>195.274488</ele>
        <time>2022-08-14T14:33:54.266Z</time>
      </trkpt>
      <trkpt lat="43.66948" lon="1.47611">
        <ele>195.547365</ele>
        <time>2022-08-14T14:33:57.266Z</time>
      </trkpt>
      <trkpt lat="43.66959" lon="1.4762">
        <ele>195.78853</ele>
        <time>2022-08-14T14:33:59.279Z</time>
      </trkpt>
      <trkpt lat="43.66966" lon="1.47631">
        <ele>196.002066</ele>
        <time>2022-08-14T14:34:02.269Z</time>
      </trkpt>
      <trkpt lat="43.6697" lon="1.47646">
        <ele>196.219468</ele>
        <time>2022-08-14T14:34:06.278Z</time>
      </trkpt>
      <trkpt lat="43.66972" lon="1.47659">
        <ele>196.410542</ele>
        <time>2022-08-14T14:34:09.262Z</time>
      </trkpt>
      <trkpt lat="43.66974" lon="1.47672">
        <ele>196.607953</ele>
        <time>2022-08-14T14:34:13.275Z</time>
      </trkpt>
      <trkpt lat="43.66978" lon="1.47688">
        <ele>196.838001</ele>
        <time>2022-08-14T14:34:17.275Z</time>
      </trkpt>
      <trkpt lat="43.66978" lon="1.47702">
        <ele>197.03829</ele>
        <time>2022-08-14T14:34:20.277Z</time>
      </trkpt>
      <trkpt lat="43.66984" lon="1.47714">
        <ele>197.234956</ele>
        <time>2022-08-14T14:34:22.279Z</time>
      </trkpt>
      <trkpt lat="43.66991" lon="1.47727">
        <ele>197.461119</ele>
        <time>2022-08-14T14:34:25.274Z</time>
      </trkpt>
      <trkpt lat="43.66996" lon="1.47742">
        <ele>197.702117</ele>
        <time>2022-08-14T14:34:28.283Z</time>
      </trkpt>
      <trkpt lat="43.67003" lon="1.47756">
        <ele>197.935049</ele>
        <time>2022-08-14T14:34:31.280Z</time>
      </trkpt>
      <trkpt lat="43.67009" lon="1.47771">
        <ele>198.061149</ele>
        <time>2022-08-14T14:34:34.272Z</time>
      </trkpt>
      <trkpt lat="43.6701" lon="1.47785">
        <ele>198.165227</ele>
        <time>2022-08-14T14:34:37.263Z</time>
      </trkpt>
      <trkpt lat="43.67015" lon="1.47797">
        <ele>198.265879</ele>
        <time>2022-08-14T14:34:48.289Z</time>
      </trkpt>
      <trkpt lat="43.67021" lon="1.47808">
        <ele>198.366702</ele>
        <time>2022-08-14T14:34:52.278Z</time>
      </trkpt>
      <trkpt lat="43.67033" lon="1.47829">
        <ele>198.564531</ele>
        <time>2022-08-14T14:37:11.278Z</time>
      </trkpt>
      <trkpt lat="43.6704" lon="1.47837">
        <ele>198.657458</ele>
        <time>2022-08-14T14:37:16.268Z</time>
      </trkpt>
      <trkpt lat="43.6704" lon="1.4785">
        <ele>198.750141</ele>
        <time>2022-08-14T14:37:21.268Z</time>
      </trkpt>
      <trkpt lat="43.67053" lon="1.47872">
        <ele>198.961493</ele>
        <time>2022-08-14T14:38:12.271Z</time>
      </trkpt>
      <trkpt lat="43.67064" lon="1.47873">
        <ele>199.067285</ele>
        <time>2022-08-14T14:38:19.285Z</time>
      </trkpt>
      <trkpt lat="43.67073" lon="1.47864">
        <ele>199.175696</ele>
        <time>2022-08-14T14:38:23.269Z</time>
      </trkpt>
      <trkpt lat="43.67083" lon="1.47859">
        <ele>199.281239</ele>
        <time>2022-08-14T14:38:27.259Z</time>
      </trkpt>
      <trkpt lat="43.67094" lon="1.47864">
        <ele>199.396439</ele>
        <time>2022-08-14T14:38:30.264Z</time>
      </trkpt>
      <trkpt lat="43.67105" lon="1.47869">
        <ele>199.519638</ele>
        <time>2022-08-14T14:38:33.267Z</time>
      </trkpt>
      <trkpt lat="43.67112" lon="1.47878">
        <ele>199.610445</ele>
        <time>2022-08-14T14:38:36.264Z</time>
      </trkpt>
      <trkpt lat="43.67123" lon="1.47879">
        <ele>199.725521</ele>
        <time>2022-08-14T14:38:40.266Z</time>
      </trkpt>
      <trkpt lat="43.67132" lon="1.47882">
        <ele>200.036108</ele>
        <time>2022-08-14T14:38:46.264Z</time>
      </trkpt>
      <trkpt lat="43.67143" lon="1.47885">
        <ele>200.482423</ele>
        <time>2022-08-14T14:38:51.267Z</time>
      </trkpt>
      <trkpt lat="43.67172" lon="1.47886">
        <ele>201.585893</ele>
        <time>2022-08-14T14:39:05.262Z</time>
      </trkpt>
      <trkpt lat="43.67183" lon="1.47887">
        <ele>202.006137</ele>
        <time>2022-08-14T14:39:08.269Z</time>
      </trkpt>
      <trkpt lat="43.67194" lon="1.47888">
        <ele>202.442999</ele>
        <time>2022-08-14T14:39:12.267Z</time>
      </trkpt>
      <trkpt lat="43.67204" lon="1.4789">
        <ele>202.831721</ele>
        <time>2022-08-14T14:39:15.260Z</time>
      </trkpt>
      <trkpt lat="43.67215" lon="1.47893">
        <ele>203.261298</ele>
        <time>2022-08-14T14:39:18.264Z</time>
      </trkpt>
      <trkpt lat="43.67234" lon="1.479">
        <ele>204.007358</ele>
        <time>2022-08-14T14:39:24.255Z</time>
      </trkpt>
      <trkpt lat="43.67244" lon="1.47902">
        <ele>204.403726</ele>
        <time>2022-08-14T14:39:28.267Z</time>
      </trkpt>
      <trkpt lat="43.6725" lon="1.47912">
        <ele>204.758541</ele>
        <time>2022-08-14T14:39:34.278Z</time>
      </trkpt>
      <trkpt lat="43.67252" lon="1.47925">
        <ele>205.128198</ele>
        <time>2022-08-14T14:39:40.276Z</time>
      </trkpt>
      <trkpt lat="43.67257" lon="1.47937">
        <ele>205.522152</ele>
        <time>2022-08-14T14:39:45.286Z</time>
      </trkpt>
      <trkpt lat="43.67279" lon="1.48">
        <ele>208.074472</ele>
        <time>2022-08-14T14:40:07.275Z</time>
      </trkpt>
      <trkpt lat="43.67274" lon="1.48011">
        <ele>208.705065</ele>
        <time>2022-08-14T14:40:13.302Z</time>
      </trkpt>
      <trkpt lat="43.67265" lon="1.48018">
        <ele>209.39785</ele>
        <time>2022-08-14T14:40:18.279Z</time>
      </trkpt>
      <trkpt lat="43.67255" lon="1.48025">
        <ele>210.127557</ele>
        <time>2022-08-14T14:40:22.291Z</time>
      </trkpt>
      <trkpt lat="43.67246" lon="1.48033">
        <ele>210.860829</ele>
        <time>2022-08-14T14:40:26.290Z</time>
      </trkpt>
      <trkpt lat="43.67235" lon="1.48037">
        <ele>211.60992</ele>
        <time>2022-08-14T14:40:30.277Z</time>
      </trkpt>
      <trkpt lat="43.67227" lon="1.48064">
        <ele>213.015433</ele>
        <time>2022-08-14T14:40:42.281Z</time>
      </trkpt>
      <trkpt lat="43.67203" lon="1.4809">
        <ele>215.080138</ele>
        <time>2022-08-14T14:40:51.277Z</time>
      </trkpt>
      <trkpt lat="43.67194" lon="1.48091">
        <ele>215.710901</ele>
        <time>2022-08-14T14:40:54.288Z</time>
      </trkpt>
      <trkpt lat="43.67184" lon="1.48086">
        <ele>216.394321</ele>
        <time>2022-08-14T14:40:57.287Z</time>
      </trkpt>
      <trkpt lat="43.67175" lon="1.48079">
        <ele>217.108046</ele>
        <time>2022-08-14T14:41:00.272Z</time>
      </trkpt>
      <trkpt lat="43.67137" lon="1.48041">
        <ele>217.149375</ele>
        <time>2022-08-14T14:41:11.280Z</time>
      </trkpt>
      <trkpt lat="43.6713" lon="1.48031">
        <ele>216.472575</ele>
        <time>2022-08-14T14:41:14.278Z</time>
      </trkpt>
      <trkpt lat="43.67122" lon="1.48021">
        <ele>215.726908</ele>
        <time>2022-08-14T14:41:17.293Z</time>
      </trkpt>
      <trkpt lat="43.67105" lon="1.47997">
        <ele>214.13115</ele>
        <time>2022-08-14T14:41:23.295Z</time>
      </trkpt>
      <trkpt lat="43.67099" lon="1.47986">
        <ele>213.445124</ele>
        <time>2022-08-14T14:41:26.276Z</time>
      </trkpt>
      <trkpt lat="43.67092" lon="1.47975">
        <ele>212.743848</ele>
        <time>2022-08-14T14:41:29.261Z</time>
      </trkpt>
      <trkpt lat="43.67082" lon="1.47964">
        <ele>211.916309</ele>
        <time>2022-08-14T14:41:32.292Z</time>
      </trkpt>
      <trkpt lat="43.67073" lon="1.47951">
        <ele>211.036329</ele>
        <time>2022-08-14T14:41:35.305Z</time>
      </trkpt>
      <trkpt lat="43.67066" lon="1.47943">
        <ele>210.410246</ele>
        <time>2022-08-14T14:41:37.286Z</time>
      </trkpt>
      <trkpt lat="43.67049" lon="1.47924">
        <ele>208.957908</ele>
        <time>2022-08-14T14:41:41.304Z</time>
      </trkpt>
      <trkpt lat="43.67031" lon="1.47906">
        <ele>207.466089</ele>
        <time>2022-08-14T14:41:45.292Z</time>
      </trkpt>
      <trkpt lat="43.67024" lon="1.47901">
        <ele>206.909315</ele>
        <time>2022-08-14T14:49:15.286Z</time>
      </trkpt>
      <trkpt lat="43.67016" lon="1.47893">
        <ele>206.924075</ele>
        <time>2022-08-14T14:49:16.265Z</time>
      </trkpt>
      <trkpt lat="43.67" lon="1.47881">
        <ele>207.011606</ele>
        <time>2022-08-14T14:49:18.279Z</time>
      </trkpt>
      <trkpt lat="43.66988" lon="1.47873">
        <ele>207.079457</ele>
        <time>2022-08-14T14:49:20.274Z</time>
      </trkpt>
      <trkpt lat="43.6698" lon="1.4788">
        <ele>207.127029</ele>
        <time>2022-08-14T14:49:24.276Z</time>
      </trkpt>
      <trkpt lat="43.66975" lon="1.47893">
        <ele>207.178517</ele>
        <time>2022-08-14T14:49:28.275Z</time>
      </trkpt>
      <trkpt lat="43.66969" lon="1.47902">
        <ele>207.225269</ele>
        <time>2022-08-14T14:49:31.289Z</time>
      </trkpt>
      <trkpt lat="43.66963" lon="1.47911">
        <ele>207.270289</ele>
        <time>2022-08-14T14:49:33.274Z</time>
      </trkpt>
      <trkpt lat="43.66956" lon="1.47923">
        <ele>207.324881</ele>
        <time>2022-08-14T14:49:35.290Z</time>
      </trkpt>
      <trkpt lat="43.66948" lon="1.47936">
        <ele>207.383599</ele>
        <time>2022-08-14T14:49:37.279Z</time>
      </trkpt>
      <trkpt lat="43.66942" lon="1.47946">
        <ele>207.434309</ele>
        <time>2022-08-14T14:49:39.265Z</time>
      </trkpt>
      <trkpt lat="43.66935" lon="1.47959">
        <ele>207.491811</ele>
        <time>2022-08-14T14:49:41.279Z</time>
      </trkpt>
      <trkpt lat="43.66929" lon="1.47972">
        <ele>207.547304</ele>
        <time>2022-08-14T14:49:43.278Z</time>
      </trkpt>
      <trkpt lat="43.66923" lon="1.47985">
        <ele>207.601715</ele>
        <time>2022-08-14T14:49:45.286Z</time>
      </trkpt>
      <trkpt lat="43.66917" lon="1.47997">
        <ele>207.656302</ele>
        <time>2022-08-14T14:49:47.275Z</time>
      </trkpt>
      <trkpt lat="43.6691" lon="1.48009">
        <ele>207.71017</ele>
        <time>2022-08-14T14:49:49.283Z</time>
      </trkpt>
      <trkpt lat="43.66903" lon="1.4802">
        <ele>207.76459</ele>
        <time>2022-08-14T14:49:51.282Z</time>
      </trkpt>
      <trkpt lat="43.66895" lon="1.48031">
        <ele>208.351254</ele>
        <time>2022-08-14T14:49:53.273Z</time>
      </trkpt>
      <trkpt lat="43.66889" lon="1.48044">
        <ele>209.005047</ele>
        <time>2022-08-14T14:49:55.274Z</time>
      </trkpt>
      <trkpt lat="43.66883" lon="1.48055">
        <ele>209.612485</ele>
        <time>2022-08-14T14:49:57.285Z</time>
      </trkpt>
      <trkpt lat="43.66879" lon="1.48066">
        <ele>210.186467</ele>
        <time>2022-08-14T14:49:59.273Z</time>
      </trkpt>
      <trkpt lat="43.66874" lon="1.48078">
        <ele>210.794742</ele>
        <time>2022-08-14T14:50:01.272Z</time>
      </trkpt>
      <trkpt lat="43.6687" lon="1.48091">
        <ele>211.42712</ele>
        <time>2022-08-14T14:50:03.277Z</time>
      </trkpt>
      <trkpt lat="43.66866" lon="1.48103">
        <ele>212.018389</ele>
        <time>2022-08-14T14:50:05.283Z</time>
      </trkpt>
      <trkpt lat="43.66862" lon="1.48117">
        <ele>212.681218</ele>
        <time>2022-08-14T14:50:07.307Z</time>
      </trkpt>
      <trkpt lat="43.66858" lon="1.48131">
        <ele>213.328591</ele>
        <time>2022-08-14T14:50:09.277Z</time>
      </trkpt>
      <trkpt lat="43.66852" lon="1.48144">
        <ele>213.996199</ele>
        <time>2022-08-14T14:50:11.279Z</time>
      </trkpt>
      <trkpt lat="43.66848" lon="1.48157">
        <ele>214.612701</ele>
        <time>2022-08-14T14:50:13.286Z</time>
      </trkpt>
      <trkpt lat="43.66846" lon="1.48169">
        <ele>215.198846</ele>
        <time>2022-08-14T14:50:15.289Z</time>
      </trkpt>
      <trkpt lat="43.66839" lon="1.48184">
        <ele>215.982395</ele>
        <time>2022-08-14T14:50:18.292Z</time>
      </trkpt>
      <trkpt lat="43.6683" lon="1.48198">
        <ele>216.80365</ele>
        <time>2022-08-14T14:50:21.291Z</time>
      </trkpt>
      <trkpt lat="43.66827" lon="1.48216">
        <ele>217.616799</ele>
        <time>2022-08-14T14:50:24.278Z</time>
      </trkpt>
      <trkpt lat="43.66827" lon="1.48229">
        <ele>218.197541</ele>
        <time>2022-08-14T14:50:26.288Z</time>
      </trkpt>
      <trkpt lat="43.66825" lon="1.48241">
        <ele>218.752134</ele>
        <time>2022-08-14T14:50:28.277Z</time>
      </trkpt>
      <trkpt lat="43.66821" lon="1.48253">
        <ele>219.509887</ele>
        <time>2022-08-14T14:50:30.284Z</time>
      </trkpt>
      <trkpt lat="43.66815" lon="1.4827">
        <ele>220.610585</ele>
        <time>2022-08-14T14:50:33.280Z</time>
      </trkpt>
      <trkpt lat="43.66809" lon="1.48285">
        <ele>221.668706</ele>
        <time>2022-08-14T14:50:36.283Z</time>
      </trkpt>
      <trkpt lat="43.66798" lon="1.48295">
        <ele>222.725661</ele>
        <time>2022-08-14T14:50:39.295Z</time>
      </trkpt>
      <trkpt lat="43.66787" lon="1.48304">
        <ele>223.782514</ele>
        <time>2022-08-14T14:50:42.278Z</time>
      </trkpt>
      <trkpt lat="43.66778" lon="1.48317">
        <ele>224.8627</ele>
        <time>2022-08-14T14:50:45.271Z</time>
      </trkpt>
      <trkpt lat="43.66772" lon="1.48332">
        <ele>225.911469</ele>
        <time>2022-08-14T14:50:48.287Z</time>
      </trkpt>
      <trkpt lat="43.66769" lon="1.48347">
        <ele>226.820345</ele>
        <time>2022-08-14T14:50:51.274Z</time>
      </trkpt>
      <trkpt lat="43.66765" lon="1.48362">
        <ele>227.792434</ele>
        <time>2022-08-14T14:50:54.286Z</time>
      </trkpt>
      <trkpt lat="43.66759" lon="1.48377">
        <ele>228.773146</ele>
        <time>2022-08-14T14:50:57.288Z</time>
      </trkpt>
      <trkpt lat="43.66753" lon="1.48391">
        <ele>229.756212</ele>
        <time>2022-08-14T14:51:00.286Z</time>
      </trkpt>
      <trkpt lat="43.66748" lon="1.48405">
        <ele>230.664948</ele>
        <time>2022-08-14T14:51:03.279Z</time>
      </trkpt>
      <trkpt lat="43.66742" lon="1.48418">
        <ele>231.583676</ele>
        <time>2022-08-14T14:51:06.300Z</time>
      </trkpt>
      <trkpt lat="43.66737" lon="1.48431">
        <ele>232.514956</ele>
        <time>2022-08-14T14:51:09.299Z</time>
      </trkpt>
      <trkpt lat="43.66731" lon="1.48446">
        <ele>233.4813</ele>
        <time>2022-08-14T14:51:12.289Z</time>
      </trkpt>
      <trkpt lat="43.66728" lon="1.48461">
        <ele>233.956367</ele>
        <time>2022-08-14T14:51:15.273Z</time>
      </trkpt>
      <trkpt lat="43.66724" lon="1.48476">
        <ele>234.361654</ele>
        <time>2022-08-14T14:51:18.282Z</time>
      </trkpt>
      <trkpt lat="43.66719" lon="1.4849">
        <ele>234.74062</ele>
        <time>2022-08-14T14:51:21.306Z</time>
      </trkpt>
      <trkpt lat="43.66714" lon="1.48504">
        <ele>235.133005</ele>
        <time>2022-08-14T14:51:24.300Z</time>
      </trkpt>
      <trkpt lat="43.66708" lon="1.48517">
        <ele>235.507728</ele>
        <time>2022-08-14T14:51:27.295Z</time>
      </trkpt>
      <trkpt lat="43.66702" lon="1.48529">
        <ele>235.869123</ele>
        <time>2022-08-14T14:51:30.290Z</time>
      </trkpt>
      <trkpt lat="43.66705" lon="1.48546">
        <ele>236.289767</ele>
        <time>2022-08-14T14:51:34.275Z</time>
      </trkpt>
      <trkpt lat="43.66714" lon="1.48554">
        <ele>236.666804</ele>
        <time>2022-08-14T14:51:37.292Z</time>
      </trkpt>
      <trkpt lat="43.66725" lon="1.4856">
        <ele>237.07167</ele>
        <time>2022-08-14T14:51:40.295Z</time>
      </trkpt>
      <trkpt lat="43.66738" lon="1.48562">
        <ele>237.515832</ele>
        <time>2022-08-14T14:51:43.331Z</time>
      </trkpt>
      <trkpt lat="43.66747" lon="1.4856">
        <ele>237.824544</ele>
        <time>2022-08-14T14:51:45.297Z</time>
      </trkpt>
      <trkpt lat="43.66757" lon="1.48557">
        <ele>238.148452</ele>
        <time>2022-08-14T14:51:47.307Z</time>
      </trkpt>
      <trkpt lat="43.66766" lon="1.48553">
        <ele>238.487745</ele>
        <time>2022-08-14T14:51:49.288Z</time>
      </trkpt>
      <trkpt lat="43.66776" lon="1.48549">
        <ele>238.843031</ele>
        <time>2022-08-14T14:51:51.284Z</time>
      </trkpt>
      <trkpt lat="43.66786" lon="1.48544">
        <ele>239.208691</ele>
        <time>2022-08-14T14:51:53.281Z</time>
      </trkpt>
      <trkpt lat="43.66796" lon="1.48539">
        <ele>239.561699</ele>
        <time>2022-08-14T14:51:55.273Z</time>
      </trkpt>
      <trkpt lat="43.66804" lon="1.48533">
        <ele>239.853574</ele>
        <time>2022-08-14T14:51:57.285Z</time>
      </trkpt>
      <trkpt lat="43.66813" lon="1.48534">
        <ele>240.097745</ele>
        <time>2022-08-14T14:52:00.294Z</time>
      </trkpt>
      <trkpt lat="43.66813" lon="1.48551">
        <ele>240.416415</ele>
        <time>2022-08-14T14:52:03.282Z</time>
      </trkpt>
      <trkpt lat="43.66812" lon="1.48565">
        <ele>240.674794</ele>
        <time>2022-08-14T14:52:05.310Z</time>
      </trkpt>
      <trkpt lat="43.66811" lon="1.4858">
        <ele>240.961135</ele>
        <time>2022-08-14T14:52:07.290Z</time>
      </trkpt>
      <trkpt lat="43.6681" lon="1.48596">
        <ele>241.254938</ele>
        <time>2022-08-14T14:52:09.281Z</time>
      </trkpt>
      <trkpt lat="43.66809" lon="1.48612">
        <ele>241.55597</ele>
        <time>2022-08-14T14:52:11.294Z</time>
      </trkpt>
      <trkpt lat="43.66808" lon="1.48628">
        <ele>241.85679</ele>
        <time>2022-08-14T14:52:13.289Z</time>
      </trkpt>
      <trkpt lat="43.66807" lon="1.48644">
        <ele>242.157822</ele>
        <time>2022-08-14T14:52:15.292Z</time>
      </trkpt>
      <trkpt lat="43.66806" lon="1.48659">
        <ele>242.453752</ele>
        <time>2022-08-14T14:52:17.300Z</time>
      </trkpt>
      <trkpt lat="43.66805" lon="1.48675">
        <ele>242.748772</ele>
        <time>2022-08-14T14:52:19.283Z</time>
      </trkpt>
      <trkpt lat="43.66804" lon="1.48691">
        <ele>243.039881</ele>
        <time>2022-08-14T14:52:21.299Z</time>
      </trkpt>
      <trkpt lat="43.66804" lon="1.48706">
        <ele>243.323115</ele>
        <time>2022-08-14T14:52:23.299Z</time>
      </trkpt>
      <trkpt lat="43.66803" lon="1.48721">
        <ele>243.601744</ele>
        <time>2022-08-14T14:52:25.296Z</time>
      </trkpt>
      <trkpt lat="43.66802" lon="1.48735">
        <ele>243.876641</ele>
        <time>2022-08-14T14:52:27.276Z</time>
      </trkpt>
      <trkpt lat="43.66801" lon="1.4875">
        <ele>244.149228</ele>
        <time>2022-08-14T14:52:29.287Z</time>
      </trkpt>
      <trkpt lat="43.668" lon="1.48764">
        <ele>244.416422</ele>
        <time>2022-08-14T14:52:31.289Z</time>
      </trkpt>
      <trkpt lat="43.668" lon="1.48778">
        <ele>244.615427</ele>
        <time>2022-08-14T14:52:33.287Z</time>
      </trkpt>
      <trkpt lat="43.66799" lon="1.48792">
        <ele>244.810886</ele>
        <time>2022-08-14T14:52:35.302Z</time>
      </trkpt>
      <trkpt lat="43.66798" lon="1.48807">
        <ele>245.008866</ele>
        <time>2022-08-14T14:52:37.290Z</time>
      </trkpt>
      <trkpt lat="43.66798" lon="1.48821">
        <ele>245.207065</ele>
        <time>2022-08-14T14:52:39.293Z</time>
      </trkpt>
      <trkpt lat="43.66797" lon="1.48835">
        <ele>245.405555</ele>
        <time>2022-08-14T14:52:41.283Z</time>
      </trkpt>
      <trkpt lat="43.66796" lon="1.4885">
        <ele>245.600893</ele>
        <time>2022-08-14T14:52:43.303Z</time>
      </trkpt>
      <trkpt lat="43.66796" lon="1.48864">
        <ele>245.798874</ele>
        <time>2022-08-14T14:52:45.291Z</time>
      </trkpt>
      <trkpt lat="43.66795" lon="1.48879">
        <ele>246.002554</ele>
        <time>2022-08-14T14:52:47.284Z</time>
      </trkpt>
      <trkpt lat="43.66794" lon="1.48894">
        <ele>246.210475</ele>
        <time>2022-08-14T14:52:49.280Z</time>
      </trkpt>
      <trkpt lat="43.66793" lon="1.4891">
        <ele>246.427985</ele>
        <time>2022-08-14T14:52:51.289Z</time>
      </trkpt>
      <trkpt lat="43.66793" lon="1.48926">
        <ele>246.652225</ele>
        <time>2022-08-14T14:52:53.288Z</time>
      </trkpt>
      <trkpt lat="43.66791" lon="1.48943">
        <ele>246.88037</ele>
        <time>2022-08-14T14:52:55.294Z</time>
      </trkpt>
      <trkpt lat="43.6679" lon="1.48959">
        <ele>247.111714</ele>
        <time>2022-08-14T14:52:57.284Z</time>
      </trkpt>
      <trkpt lat="43.66789" lon="1.48976">
        <ele>247.343058</ele>
        <time>2022-08-14T14:52:59.287Z</time>
      </trkpt>
      <trkpt lat="43.66788" lon="1.48993">
        <ele>247.574713</ele>
        <time>2022-08-14T14:53:01.294Z</time>
      </trkpt>
      <trkpt lat="43.66787" lon="1.4901">
        <ele>247.806311</ele>
        <time>2022-08-14T14:53:03.267Z</time>
      </trkpt>
      <trkpt lat="43.66785" lon="1.49027">
        <ele>247.923798</ele>
        <time>2022-08-14T14:53:05.273Z</time>
      </trkpt>
      <trkpt lat="43.66782" lon="1.49044">
        <ele>248.020454</ele>
        <time>2022-08-14T14:53:07.277Z</time>
      </trkpt>
      <trkpt lat="43.66779" lon="1.4906">
        <ele>248.115797</ele>
        <time>2022-08-14T14:53:09.264Z</time>
      </trkpt>
      <trkpt lat="43.66774" lon="1.49076">
        <ele>248.212798</ele>
        <time>2022-08-14T14:53:11.273Z</time>
      </trkpt>
      <trkpt lat="43.66768" lon="1.49091">
        <ele>248.309083</ele>
        <time>2022-08-14T14:53:13.298Z</time>
      </trkpt>
      <trkpt lat="43.66761" lon="1.49106">
        <ele>248.4037</ele>
        <time>2022-08-14T14:53:15.289Z</time>
      </trkpt>
      <trkpt lat="43.66754" lon="1.49119">
        <ele>248.497292</ele>
        <time>2022-08-14T14:53:17.263Z</time>
      </trkpt>
      <trkpt lat="43.66748" lon="1.49134">
        <ele>248.590832</ele>
        <time>2022-08-14T14:53:19.285Z</time>
      </trkpt>
      <trkpt lat="43.66741" lon="1.49148">
        <ele>248.6814</ele>
        <time>2022-08-14T14:53:21.282Z</time>
      </trkpt>
      <trkpt lat="43.66735" lon="1.49161">
        <ele>248.770951</ele>
        <time>2022-08-14T14:53:23.284Z</time>
      </trkpt>
      <trkpt lat="43.66728" lon="1.49174">
        <ele>248.860048</ele>
        <time>2022-08-14T14:53:25.277Z</time>
      </trkpt>
      <trkpt lat="43.66722" lon="1.49187">
        <ele>248.948335</ele>
        <time>2022-08-14T14:53:27.268Z</time>
      </trkpt>
      <trkpt lat="43.66715" lon="1.492">
        <ele>249.038341</ele>
        <time>2022-08-14T14:53:29.276Z</time>
      </trkpt>
      <trkpt lat="43.66709" lon="1.49214">
        <ele>249.127281</ele>
        <time>2022-08-14T14:53:31.281Z</time>
      </trkpt>
      <trkpt lat="43.66702" lon="1.49227">
        <ele>249.216393</ele>
        <time>2022-08-14T14:53:33.284Z</time>
      </trkpt>
      <trkpt lat="43.66695" lon="1.4924">
        <ele>249.474064</ele>
        <time>2022-08-14T14:53:35.268Z</time>
      </trkpt>
      <trkpt lat="43.66687" lon="1.49251">
        <ele>249.745467</ele>
        <time>2022-08-14T14:53:37.280Z</time>
      </trkpt>
      <trkpt lat="43.66678" lon="1.49261">
        <ele>250.018091</ele>
        <time>2022-08-14T14:53:39.275Z</time>
      </trkpt>
      <trkpt lat="43.66671" lon="1.49272">
        <ele>250.279198</ele>
        <time>2022-08-14T14:53:41.264Z</time>
      </trkpt>
      <trkpt lat="43.66665" lon="1.49285">
        <ele>250.5304</ele>
        <time>2022-08-14T14:53:43.268Z</time>
      </trkpt>
      <trkpt lat="43.66657" lon="1.49294">
        <ele>250.782487</ele>
        <time>2022-08-14T14:53:45.277Z</time>
      </trkpt>
      <trkpt lat="43.66649" lon="1.49303">
        <ele>251.04231</ele>
        <time>2022-08-14T14:53:47.265Z</time>
      </trkpt>
      <trkpt lat="43.6664" lon="1.49313">
        <ele>251.301076</ele>
        <time>2022-08-14T14:53:49.275Z</time>
      </trkpt>
      <trkpt lat="43.66635" lon="1.49325">
        <ele>251.547323</ele>
        <time>2022-08-14T14:53:51.298Z</time>
      </trkpt>
      <trkpt lat="43.66635" lon="1.4934">
        <ele>251.807345</ele>
        <time>2022-08-14T14:53:53.265Z</time>
      </trkpt>
      <trkpt lat="43.66634" lon="1.49356">
        <ele>252.071786</ele>
        <time>2022-08-14T14:53:55.268Z</time>
      </trkpt>
      <trkpt lat="43.66629" lon="1.49369">
        <ele>252.327176</ele>
        <time>2022-08-14T14:53:57.295Z</time>
      </trkpt>
      <trkpt lat="43.66621" lon="1.49379">
        <ele>252.58677</ele>
        <time>2022-08-14T14:53:59.293Z</time>
      </trkpt>
      <trkpt lat="43.66613" lon="1.49386">
        <ele>252.815007</ele>
        <time>2022-08-14T14:54:01.271Z</time>
      </trkpt>
      <trkpt lat="43.66602" lon="1.49388">
        <ele>253.06276</ele>
        <time>2022-08-14T14:54:03.262Z</time>
      </trkpt>
      <trkpt lat="43.66591" lon="1.4939">
        <ele>253.338364</ele>
        <time>2022-08-14T14:54:06.275Z</time>
      </trkpt>
      <trkpt lat="43.6658" lon="1.49391">
        <ele>253.54138</ele>
        <time>2022-08-14T14:54:16.278Z</time>
      </trkpt>
      <trkpt lat="43.66575" lon="1.49405">
        <ele>253.6494</ele>
        <time>2022-08-14T14:54:20.275Z</time>
      </trkpt>
      <trkpt lat="43.66577" lon="1.49422">
        <ele>253.758738</ele>
        <time>2022-08-14T14:54:23.270Z</time>
      </trkpt>
      <trkpt lat="43.66578" lon="1.49438">
        <ele>253.8687</ele>
        <time>2022-08-14T14:54:26.279Z</time>
      </trkpt>
      <trkpt lat="43.66577" lon="1.49451">
        <ele>253.956442</ele>
        <time>2022-08-14T14:54:28.275Z</time>
      </trkpt>
      <trkpt lat="43.66574" lon="1.49469">
        <ele>254.07932</ele>
        <time>2022-08-14T14:54:31.280Z</time>
      </trkpt>
      <trkpt lat="43.66569" lon="1.49484">
        <ele>254.196208</ele>
        <time>2022-08-14T14:54:34.288Z</time>
      </trkpt>
      <trkpt lat="43.66577" lon="1.49491">
        <ele>254.286197</ele>
        <time>2022-08-14T14:54:39.306Z</time>
      </trkpt>
      <trkpt lat="43.66588" lon="1.49498">
        <ele>254.400533</ele>
        <time>2022-08-14T14:54:42.299Z</time>
      </trkpt>
      <trkpt lat="43.6659" lon="1.49511">
        <ele>254.487158</ele>
        <time>2022-08-14T14:54:44.282Z</time>
      </trkpt>
      <trkpt lat="43.66591" lon="1.49524">
        <ele>254.578815</ele>
        <time>2022-08-14T14:54:46.337Z</time>
      </trkpt>
      <trkpt lat="43.66592" lon="1.49537">
        <ele>254.665222</ele>
        <time>2022-08-14T14:54:48.296Z</time>
      </trkpt>
      <trkpt lat="43.66595" lon="1.4955">
        <ele>254.758438</ele>
        <time>2022-08-14T14:54:51.344Z</time>
      </trkpt>
      <trkpt lat="43.66603" lon="1.49562">
        <ele>254.864269</ele>
        <time>2022-08-14T14:54:55.297Z</time>
      </trkpt>
      <trkpt lat="43.66601" lon="1.49575">
        <ele>254.951914</ele>
        <time>2022-08-14T14:54:58.282Z</time>
      </trkpt>
      <trkpt lat="43.66598" lon="1.49591">
        <ele>255.062617</ele>
        <time>2022-08-14T14:55:01.280Z</time>
      </trkpt>
      <trkpt lat="43.66597" lon="1.49608">
        <ele>255.173366</ele>
        <time>2022-08-14T14:55:04.284Z</time>
      </trkpt>
      <trkpt lat="43.66599" lon="1.49624">
        <ele>255.164892</ele>
        <time>2022-08-14T14:55:07.287Z</time>
      </trkpt>
      <trkpt lat="43.66605" lon="1.49638">
        <ele>255.156209</ele>
        <time>2022-08-14T14:55:12.273Z</time>
      </trkpt>
      <trkpt lat="43.66616" lon="1.49649">
        <ele>255.14666</ele>
        <time>2022-08-14T14:55:15.290Z</time>
      </trkpt>
      <trkpt lat="43.66625" lon="1.49649">
        <ele>255.139756</ele>
        <time>2022-08-14T14:55:19.290Z</time>
      </trkpt>
      <trkpt lat="43.66633" lon="1.49639">
        <ele>255.131793</ele>
        <time>2022-08-14T14:55:22.286Z</time>
      </trkpt>
      <trkpt lat="43.66641" lon="1.49645">
        <ele>255.125098</ele>
        <time>2022-08-14T14:55:27.283Z</time>
      </trkpt>
      <trkpt lat="43.66656" lon="1.49658">
        <ele>255.112917</ele>
        <time>2022-08-14T14:55:53.303Z</time>
      </trkpt>
      <trkpt lat="43.66667" lon="1.4967">
        <ele>255.102797</ele>
        <time>2022-08-14T14:55:56.285Z</time>
      </trkpt>
      <trkpt lat="43.66674" lon="1.49682">
        <ele>255.094574</ele>
        <time>2022-08-14T14:55:58.290Z</time>
      </trkpt>
      <trkpt lat="43.6668" lon="1.49697">
        <ele>255.085877</ele>
        <time>2022-08-14T14:56:00.284Z</time>
      </trkpt>
      <trkpt lat="43.66685" lon="1.49711">
        <ele>255.077774</ele>
        <time>2022-08-14T14:56:02.293Z</time>
      </trkpt>
      <trkpt lat="43.66694" lon="1.49717">
        <ele>255.070793</ele>
        <time>2022-08-14T14:56:04.299Z</time>
      </trkpt>
      <trkpt lat="43.66705" lon="1.49721">
        <ele>255.062106</ele>
        <time>2022-08-14T14:56:06.307Z</time>
      </trkpt>
      <trkpt lat="43.66712" lon="1.49732">
        <ele>255.054316</ele>
        <time>2022-08-14T14:56:08.318Z</time>
      </trkpt>
      <trkpt lat="43.66717" lon="1.49746">
        <ele>255.046752</ele>
        <time>2022-08-14T14:56:10.318Z</time>
      </trkpt>
      <trkpt lat="43.66719" lon="1.4976">
        <ele>255.168105</ele>
        <time>2022-08-14T14:56:12.306Z</time>
      </trkpt>
      <trkpt lat="43.66719" lon="1.49774">
        <ele>255.35064</ele>
        <time>2022-08-14T14:56:14.308Z</time>
      </trkpt>
      <trkpt lat="43.66721" lon="1.49789">
        <ele>255.535596</ele>
        <time>2022-08-14T14:56:16.313Z</time>
      </trkpt>
      <trkpt lat="43.66727" lon="1.49801">
        <ele>255.723642</ele>
        <time>2022-08-14T14:56:18.299Z</time>
      </trkpt>
      <trkpt lat="43.66735" lon="1.4981">
        <ele>255.911116</ele>
        <time>2022-08-14T14:56:20.305Z</time>
      </trkpt>
      <trkpt lat="43.66744" lon="1.49819">
        <ele>256.097832</ele>
        <time>2022-08-14T14:56:22.310Z</time>
      </trkpt>
      <trkpt lat="43.66754" lon="1.49824">
        <ele>256.285048</ele>
        <time>2022-08-14T14:56:24.295Z</time>
      </trkpt>
      <trkpt lat="43.66763" lon="1.49827">
        <ele>256.45902</ele>
        <time>2022-08-14T14:56:26.295Z</time>
      </trkpt>
      <trkpt lat="43.66773" lon="1.49834">
        <ele>256.643374</ele>
        <time>2022-08-14T14:56:28.297Z</time>
      </trkpt>
      <trkpt lat="43.66781" lon="1.49844">
        <ele>256.837644</ele>
        <time>2022-08-14T14:56:30.285Z</time>
      </trkpt>
      <trkpt lat="43.66789" lon="1.49854">
        <ele>257.027165</ele>
        <time>2022-08-14T14:56:32.283Z</time>
      </trkpt>
      <trkpt lat="43.66795" lon="1.49866">
        <ele>257.219234</ele>
        <time>2022-08-14T14:56:34.287Z</time>
      </trkpt>
      <trkpt lat="43.668" lon="1.4988">
        <ele>257.402732</ele>
        <time>2022-08-14T14:56:36.271Z</time>
      </trkpt>
      <trkpt lat="43.66803" lon="1.49891">
        <ele>257.566453</ele>
        <time>2022-08-14T14:56:38.291Z</time>
      </trkpt>
      <trkpt lat="43.66815" lon="1.49901">
        <ele>257.796559</ele>
        <time>2022-08-14T14:56:41.282Z</time>
      </trkpt>
      <trkpt lat="43.66824" lon="1.49909">
        <ele>257.990173</ele>
        <time>2022-08-14T14:56:43.295Z</time>
      </trkpt>
      <trkpt lat="43.66832" lon="1.4992">
        <ele>258.192918</ele>
        <time>2022-08-14T14:56:45.290Z</time>
      </trkpt>
      <trkpt lat="43.66842" lon="1.4993">
        <ele>258.264242</ele>
        <time>2022-08-14T14:56:47.310Z</time>
      </trkpt>
      <trkpt lat="43.66851" lon="1.4994">
        <ele>258.327233</ele>
        <time>2022-08-14T14:56:49.291Z</time>
      </trkpt>
      <trkpt lat="43.66857" lon="1.49952">
        <ele>258.38876</ele>
        <time>2022-08-14T14:56:51.303Z</time>
      </trkpt>
      <trkpt lat="43.66858" lon="1.49967">
        <ele>258.448394</ele>
        <time>2022-08-14T14:56:53.303Z</time>
      </trkpt>
      <trkpt lat="43.66852" lon="1.4998">
        <ele>258.512076</ele>
        <time>2022-08-14T14:56:55.285Z</time>
      </trkpt>
      <trkpt lat="43.66841" lon="1.49988">
        <ele>258.581108</ele>
        <time>2022-08-14T14:56:57.305Z</time>
      </trkpt>
      <trkpt lat="43.66831" lon="1.49997">
        <ele>258.651019</ele>
        <time>2022-08-14T14:56:59.301Z</time>
      </trkpt>
      <trkpt lat="43.66822" lon="1.50008">
        <ele>258.719702</ele>
        <time>2022-08-14T14:57:01.283Z</time>
      </trkpt>
      <trkpt lat="43.66814" lon="1.5002">
        <ele>258.78567</ele>
        <time>2022-08-14T14:57:03.289Z</time>
      </trkpt>
      <trkpt lat="43.66815" lon="1.50036">
        <ele>258.848361</ele>
        <time>2022-08-14T14:57:05.304Z</time>
      </trkpt>
      <trkpt lat="43.66819" lon="1.5005">
        <ele>258.911326</ele>
        <time>2022-08-14T14:57:07.293Z</time>
      </trkpt>
      <trkpt lat="43.66823" lon="1.50064">
        <ele>258.975159</ele>
        <time>2022-08-14T14:57:09.310Z</time>
      </trkpt>
      <trkpt lat="43.66823" lon="1.50079">
        <ele>259.034536</ele>
        <time>2022-08-14T14:57:11.301Z</time>
      </trkpt>
      <trkpt lat="43.66816" lon="1.50092">
        <ele>259.099874</ele>
        <time>2022-08-14T14:57:13.283Z</time>
      </trkpt>
      <trkpt lat="43.6681" lon="1.50106">
        <ele>259.167973</ele>
        <time>2022-08-14T14:57:15.308Z</time>
      </trkpt>
      <trkpt lat="43.66808" lon="1.50122">
        <ele>259.161753</ele>
        <time>2022-08-14T14:57:17.293Z</time>
      </trkpt>
      <trkpt lat="43.66805" lon="1.50137">
        <ele>259.01367</ele>
        <time>2022-08-14T14:57:19.306Z</time>
      </trkpt>
      <trkpt lat="43.66799" lon="1.5015">
        <ele>258.860001</ele>
        <time>2022-08-14T14:57:21.304Z</time>
      </trkpt>
      <trkpt lat="43.66793" lon="1.50164">
        <ele>258.692361</ele>
        <time>2022-08-14T14:57:23.285Z</time>
      </trkpt>
      <trkpt lat="43.66791" lon="1.50179">
        <ele>258.539448</ele>
        <time>2022-08-14T14:57:25.286Z</time>
      </trkpt>
      <trkpt lat="43.66794" lon="1.50194">
        <ele>258.38165</ele>
        <time>2022-08-14T14:57:27.287Z</time>
      </trkpt>
      <trkpt lat="43.668" lon="1.50208">
        <ele>258.219728</ele>
        <time>2022-08-14T14:57:29.277Z</time>
      </trkpt>
      <trkpt lat="43.66808" lon="1.50218">
        <ele>258.063159</ele>
        <time>2022-08-14T14:57:31.284Z</time>
      </trkpt>
      <trkpt lat="43.66815" lon="1.50232">
        <ele>257.89336</ele>
        <time>2022-08-14T14:57:33.281Z</time>
      </trkpt>
      <trkpt lat="43.66822" lon="1.50247">
        <ele>257.718421</ele>
        <time>2022-08-14T14:57:35.285Z</time>
      </trkpt>
      <trkpt lat="43.66829" lon="1.50262">
        <ele>257.540927</ele>
        <time>2022-08-14T14:57:37.275Z</time>
      </trkpt>
      <trkpt lat="43.66835" lon="1.50276">
        <ele>257.374737</ele>
        <time>2022-08-14T14:57:39.282Z</time>
      </trkpt>
      <trkpt lat="43.6684" lon="1.50293">
        <ele>257.195094</ele>
        <time>2022-08-14T14:57:41.274Z</time>
      </trkpt>
      <trkpt lat="43.66847" lon="1.50308">
        <ele>257.014051</ele>
        <time>2022-08-14T14:57:43.284Z</time>
      </trkpt>
      <trkpt lat="43.66855" lon="1.5032">
        <ele>256.845151</ele>
        <time>2022-08-14T14:57:45.301Z</time>
      </trkpt>
      <trkpt lat="43.66863" lon="1.50336">
        <ele>256.665764</ele>
        <time>2022-08-14T14:57:47.297Z</time>
      </trkpt>
      <trkpt lat="43.66869" lon="1.50351">
        <ele>256.492924</ele>
        <time>2022-08-14T14:57:49.297Z</time>
      </trkpt>
      <trkpt lat="43.66875" lon="1.50364">
        <ele>256.349463</ele>
        <time>2022-08-14T14:57:51.286Z</time>
      </trkpt>
      <trkpt lat="43.6688" lon="1.50376">
        <ele>256.219984</ele>
        <time>2022-08-14T14:57:54.345Z</time>
      </trkpt>
      <trkpt lat="43.6688" lon="1.50391">
        <ele>256.07743</ele>
        <time>2022-08-14T14:57:59.300Z</time>
      </trkpt>
      <trkpt lat="43.66884" lon="1.50404">
        <ele>255.93995</ele>
        <time>2022-08-14T14:58:02.288Z</time>
      </trkpt>
      <trkpt lat="43.66889" lon="1.50416">
        <ele>255.811964</ele>
        <time>2022-08-14T14:58:04.301Z</time>
      </trkpt>
      <trkpt lat="43.66898" lon="1.50429">
        <ele>255.647045</ele>
        <time>2022-08-14T14:58:06.319Z</time>
      </trkpt>
      <trkpt lat="43.66906" lon="1.50441">
        <ele>255.496002</ele>
        <time>2022-08-14T14:58:08.300Z</time>
      </trkpt>
      <trkpt lat="43.66912" lon="1.50456">
        <ele>255.323442</ele>
        <time>2022-08-14T14:58:10.312Z</time>
      </trkpt>
      <trkpt lat="43.66919" lon="1.5047">
        <ele>255.165865</ele>
        <time>2022-08-14T14:58:12.292Z</time>
      </trkpt>
      <trkpt lat="43.66926" lon="1.50483">
        <ele>255.02057</ele>
        <time>2022-08-14T14:58:14.291Z</time>
      </trkpt>
      <trkpt lat="43.66933" lon="1.50493">
        <ele>254.884024</ele>
        <time>2022-08-14T14:58:16.289Z</time>
      </trkpt>
      <trkpt lat="43.6694" lon="1.50503">
        <ele>254.75538</ele>
        <time>2022-08-14T14:58:18.303Z</time>
      </trkpt>
      <trkpt lat="43.66946" lon="1.50515">
        <ele>254.619263</ele>
        <time>2022-08-14T14:58:20.291Z</time>
      </trkpt>
      <trkpt lat="43.66951" lon="1.50528">
        <ele>254.476153</ele>
        <time>2022-08-14T14:58:22.295Z</time>
      </trkpt>
      <trkpt lat="43.66957" lon="1.5054">
        <ele>254.272954</ele>
        <time>2022-08-14T14:58:24.292Z</time>
      </trkpt>
      <trkpt lat="43.66964" lon="1.50548">
        <ele>253.912197</ele>
        <time>2022-08-14T14:58:27.304Z</time>
      </trkpt>
      <trkpt lat="43.66975" lon="1.50541">
        <ele>253.448148</ele>
        <time>2022-08-14T14:58:32.296Z</time>
      </trkpt>
      <trkpt lat="43.66987" lon="1.50531">
        <ele>252.934672</ele>
        <time>2022-08-14T14:58:35.281Z</time>
      </trkpt>
      <trkpt lat="43.66995" lon="1.50524">
        <ele>252.557981</ele>
        <time>2022-08-14T14:58:37.290Z</time>
      </trkpt>
      <trkpt lat="43.67005" lon="1.50518">
        <ele>252.147599</ele>
        <time>2022-08-14T14:58:39.285Z</time>
      </trkpt>
      <trkpt lat="43.67014" lon="1.50509">
        <ele>251.725505</ele>
        <time>2022-08-14T14:58:41.283Z</time>
      </trkpt>
      <trkpt lat="43.67021" lon="1.50495">
        <ele>251.256385</ele>
        <time>2022-08-14T14:58:43.278Z</time>
      </trkpt>
      <trkpt lat="43.67031" lon="1.50483">
        <ele>250.732305</ele>
        <time>2022-08-14T14:58:45.295Z</time>
      </trkpt>
      <trkpt lat="43.67043" lon="1.50467">
        <ele>250.099649</ele>
        <time>2022-08-14T14:58:47.302Z</time>
      </trkpt>
      <trkpt lat="43.67055" lon="1.50455">
        <ele>249.520055</ele>
        <time>2022-08-14T14:58:49.295Z</time>
      </trkpt>
      <trkpt lat="43.67065" lon="1.5044">
        <ele>248.963231</ele>
        <time>2022-08-14T14:58:51.291Z</time>
      </trkpt>
      <trkpt lat="43.67073" lon="1.50423">
        <ele>248.401705</ele>
        <time>2022-08-14T14:58:53.290Z</time>
      </trkpt>
      <trkpt lat="43.6708" lon="1.50406">
        <ele>247.856503</ele>
        <time>2022-08-14T14:58:55.293Z</time>
      </trkpt>
      <trkpt lat="43.67087" lon="1.5039">
        <ele>247.338672</ele>
        <time>2022-08-14T14:58:57.303Z</time>
      </trkpt>
      <trkpt lat="43.67096" lon="1.50376">
        <ele>246.84125</ele>
        <time>2022-08-14T14:58:59.317Z</time>
      </trkpt>
      <trkpt lat="43.67104" lon="1.50362">
        <ele>246.36629</ele>
        <time>2022-08-14T14:59:01.280Z</time>
      </trkpt>
      <trkpt lat="43.67113" lon="1.5035">
        <ele>245.891788</ele>
        <time>2022-08-14T14:59:03.295Z</time>
      </trkpt>
      <trkpt lat="43.67121" lon="1.50337">
        <ele>245.44188</ele>
        <time>2022-08-14T14:59:05.271Z</time>
      </trkpt>
      <trkpt lat="43.67128" lon="1.50325">
        <ele>245.001318</ele>
        <time>2022-08-14T14:59:07.294Z</time>
      </trkpt>
      <trkpt lat="43.67137" lon="1.50312">
        <ele>244.532883</ele>
        <time>2022-08-14T14:59:09.297Z</time>
      </trkpt>
      <trkpt lat="43.67146" lon="1.503">
        <ele>244.055905</ele>
        <time>2022-08-14T14:59:11.291Z</time>
      </trkpt>
      <trkpt lat="43.67156" lon="1.50289">
        <ele>243.588894</ele>
        <time>2022-08-14T14:59:13.279Z</time>
      </trkpt>
      <trkpt lat="43.67165" lon="1.50277">
        <ele>243.11927</ele>
        <time>2022-08-14T14:59:15.312Z</time>
      </trkpt>
      <trkpt lat="43.67176" lon="1.50264">
        <ele>242.572437</ele>
        <time>2022-08-14T14:59:17.292Z</time>
      </trkpt>
      <trkpt lat="43.67188" lon="1.5025">
        <ele>241.992748</ele>
        <time>2022-08-14T14:59:19.307Z</time>
      </trkpt>
      <trkpt lat="43.67199" lon="1.50234">
        <ele>241.383787</ele>
        <time>2022-08-14T14:59:21.301Z</time>
      </trkpt>
      <trkpt lat="43.6721" lon="1.50216">
        <ele>240.75939</ele>
        <time>2022-08-14T14:59:23.314Z</time>
      </trkpt>
      <trkpt lat="43.67222" lon="1.50199">
        <ele>240.312559</ele>
        <time>2022-08-14T14:59:25.271Z</time>
      </trkpt>
      <trkpt lat="43.67233" lon="1.50185">
        <ele>239.898559</ele>
        <time>2022-08-14T14:59:27.296Z</time>
      </trkpt>
      <trkpt lat="43.67247" lon="1.50175">
        <ele>239.488783</ele>
        <time>2022-08-14T14:59:29.304Z</time>
      </trkpt>
      <trkpt lat="43.67259" lon="1.50165">
        <ele>239.100587</ele>
        <time>2022-08-14T14:59:31.295Z</time>
      </trkpt>
      <trkpt lat="43.67272" lon="1.50157">
        <ele>238.729416</ele>
        <time>2022-08-14T14:59:33.287Z</time>
      </trkpt>
      <trkpt lat="43.67284" lon="1.50147">
        <ele>238.358069</ele>
        <time>2022-08-14T14:59:35.320Z</time>
      </trkpt>
      <trkpt lat="43.67293" lon="1.50133">
        <ele>237.987984</ele>
        <time>2022-08-14T14:59:37.304Z</time>
      </trkpt>
      <trkpt lat="43.67302" lon="1.50119">
        <ele>237.634481</ele>
        <time>2022-08-14T14:59:39.286Z</time>
      </trkpt>
      <trkpt lat="43.67313" lon="1.50106">
        <ele>237.243219</ele>
        <time>2022-08-14T14:59:41.286Z</time>
      </trkpt>
      <trkpt lat="43.67323" lon="1.50091">
        <ele>236.854915</ele>
        <time>2022-08-14T14:59:43.283Z</time>
      </trkpt>
      <trkpt lat="43.67328" lon="1.50074">
        <ele>236.4991</ele>
        <time>2022-08-14T14:59:45.292Z</time>
      </trkpt>
      <trkpt lat="43.67333" lon="1.5006">
        <ele>236.181243</ele>
        <time>2022-08-14T14:59:47.281Z</time>
      </trkpt>
      <trkpt lat="43.67336" lon="1.50044">
        <ele>235.861273</ele>
        <time>2022-08-14T14:59:49.283Z</time>
      </trkpt>
      <trkpt lat="43.67337" lon="1.50032">
        <ele>235.572051</ele>
        <time>2022-08-14T14:59:51.307Z</time>
      </trkpt>
      <trkpt lat="43.67343" lon="1.50016">
        <ele>235.151505</ele>
        <time>2022-08-14T14:59:53.281Z</time>
      </trkpt>
      <trkpt lat="43.67351" lon="1.50001">
        <ele>234.714661</ele>
        <time>2022-08-14T14:59:55.299Z</time>
      </trkpt>
      <trkpt lat="43.67363" lon="1.4999">
        <ele>234.261611</ele>
        <time>2022-08-14T14:59:57.277Z</time>
      </trkpt>
      <trkpt lat="43.67375" lon="1.49978">
        <ele>233.778159</ele>
        <time>2022-08-14T14:59:59.277Z</time>
      </trkpt>
      <trkpt lat="43.67386" lon="1.49962">
        <ele>233.280214</ele>
        <time>2022-08-14T15:00:01.285Z</time>
      </trkpt>
      <trkpt lat="43.67394" lon="1.49944">
        <ele>232.773482</ele>
        <time>2022-08-14T15:00:03.292Z</time>
      </trkpt>
      <trkpt lat="43.67403" lon="1.49926">
        <ele>232.285769</ele>
        <time>2022-08-14T15:00:05.286Z</time>
      </trkpt>
      <trkpt lat="43.67414" lon="1.49911">
        <ele>231.788074</ele>
        <time>2022-08-14T15:00:07.284Z</time>
      </trkpt>
      <trkpt lat="43.67426" lon="1.49896">
        <ele>231.264608</ele>
        <time>2022-08-14T15:00:09.305Z</time>
      </trkpt>
      <trkpt lat="43.67437" lon="1.49879">
        <ele>230.736267</ele>
        <time>2022-08-14T15:00:11.288Z</time>
      </trkpt>
      <trkpt lat="43.67449" lon="1.49864">
        <ele>230.204101</ele>
        <time>2022-08-14T15:00:13.315Z</time>
      </trkpt>
      <trkpt lat="43.67461" lon="1.49848">
        <ele>230.149417</ele>
        <time>2022-08-14T15:00:15.296Z</time>
      </trkpt>
      <trkpt lat="43.67466" lon="1.49838">
        <ele>230.130772</ele>
        <time>2022-08-14T15:00:16.316Z</time>
      </trkpt>
      <trkpt lat="43.67475" lon="1.49819">
        <ele>230.098402</ele>
        <time>2022-08-14T15:00:18.309Z</time>
      </trkpt>
      <trkpt lat="43.6748" lon="1.49808">
        <ele>230.078804</ele>
        <time>2022-08-14T15:00:20.295Z</time>
      </trkpt>
      <trkpt lat="43.6749" lon="1.49785">
        <ele>230.038686</ele>
        <time>2022-08-14T15:01:05.306Z</time>
      </trkpt>
      <trkpt lat="43.67496" lon="1.49775">
        <ele>230.019317</ele>
        <time>2022-08-14T15:01:10.300Z</time>
      </trkpt>
      <trkpt lat="43.67497" lon="1.49758">
        <ele>229.993934</ele>
        <time>2022-08-14T15:01:22.285Z</time>
      </trkpt>
      <trkpt lat="43.6749" lon="1.49749">
        <ele>229.973284</ele>
        <time>2022-08-14T15:01:35.282Z</time>
      </trkpt>
      <trkpt lat="43.67485" lon="1.49736">
        <ele>229.952522</ele>
        <time>2022-08-14T15:01:45.288Z</time>
      </trkpt>
      <trkpt lat="43.67492" lon="1.49721">
        <ele>229.925445</ele>
        <time>2022-08-14T15:01:49.255Z</time>
      </trkpt>
      <trkpt lat="43.67498" lon="1.4971">
        <ele>229.905431</ele>
        <time>2022-08-14T15:01:52.295Z</time>
      </trkpt>
      <trkpt lat="43.67503" lon="1.497">
        <ele>229.886531</ele>
        <time>2022-08-14T15:01:55.268Z</time>
      </trkpt>
      <trkpt lat="43.67508" lon="1.49686">
        <ele>229.862834</ele>
        <time>2022-08-14T15:02:00.308Z</time>
      </trkpt>
      <trkpt lat="43.67515" lon="1.49671">
        <ele>229.837483</ele>
        <time>2022-08-14T15:02:04.286Z</time>
      </trkpt>
      <trkpt lat="43.67519" lon="1.49657">
        <ele>229.814862</ele>
        <time>2022-08-14T15:02:08.279Z</time>
      </trkpt>
      <trkpt lat="43.67517" lon="1.49643">
        <ele>229.543795</ele>
        <time>2022-08-14T15:02:12.261Z</time>
      </trkpt>
      <trkpt lat="43.67516" lon="1.49629">
        <ele>229.22517</ele>
        <time>2022-08-14T15:02:16.262Z</time>
      </trkpt>
      <trkpt lat="43.67522" lon="1.49618">
        <ele>228.906106</ele>
        <time>2022-08-14T15:02:20.272Z</time>
      </trkpt>
      <trkpt lat="43.67526" lon="1.49604">
        <ele>228.560979</ele>
        <time>2022-08-14T15:02:23.267Z</time>
      </trkpt>
      <trkpt lat="43.67529" lon="1.49589">
        <ele>228.217184</ele>
        <time>2022-08-14T15:02:27.288Z</time>
      </trkpt>
      <trkpt lat="43.67529" lon="1.49575">
        <ele>227.889425</ele>
        <time>2022-08-14T15:02:30.268Z</time>
      </trkpt>
      <trkpt lat="43.67533" lon="1.49557">
        <ele>227.456767</ele>
        <time>2022-08-14T15:02:33.272Z</time>
      </trkpt>
      <trkpt lat="43.6754" lon="1.49544">
        <ele>227.113715</ele>
        <time>2022-08-14T15:02:35.270Z</time>
      </trkpt>
      <trkpt lat="43.67546" lon="1.49532">
        <ele>226.774142</ele>
        <time>2022-08-14T15:02:37.294Z</time>
      </trkpt>
      <trkpt lat="43.6755" lon="1.49518">
        <ele>226.435756</ele>
        <time>2022-08-14T15:02:39.273Z</time>
      </trkpt>
      <trkpt lat="43.67551" lon="1.49499">
        <ele>225.995855</ele>
        <time>2022-08-14T15:02:42.288Z</time>
      </trkpt>
      <trkpt lat="43.67551" lon="1.49484">
        <ele>225.663172</ele>
        <time>2022-08-14T15:02:44.276Z</time>
      </trkpt>
      <trkpt lat="43.67555" lon="1.49467">
        <ele>225.256916</ele>
        <time>2022-08-14T15:02:47.274Z</time>
      </trkpt>
      <trkpt lat="43.67566" lon="1.4946">
        <ele>224.867878</ele>
        <time>2022-08-14T15:02:50.269Z</time>
      </trkpt>
      <trkpt lat="43.67578" lon="1.49455">
        <ele>224.463056</ele>
        <time>2022-08-14T15:02:57.291Z</time>
      </trkpt>
      <trkpt lat="43.6759" lon="1.49453">
        <ele>224.143836</ele>
        <time>2022-08-14T15:03:02.249Z</time>
      </trkpt>
      <trkpt lat="43.67592" lon="1.49467">
        <ele>224.106212</ele>
        <time>2022-08-14T15:03:20.272Z</time>
      </trkpt>
      <trkpt lat="43.67599" lon="1.49475">
        <ele>224.070318</ele>
        <time>2022-08-14T15:03:23.280Z</time>
      </trkpt>
      <trkpt lat="43.67607" lon="1.49467">
        <ele>224.032899</ele>
        <time>2022-08-14T15:03:27.281Z</time>
      </trkpt>
      <trkpt lat="43.67616" lon="1.49458">
        <ele>223.993278</ele>
        <time>2022-08-14T15:03:33.279Z</time>
      </trkpt>
      <trkpt lat="43.67612" lon="1.49446">
        <ele>223.955607</ele>
        <time>2022-08-14T15:03:39.280Z</time>
      </trkpt>
      <trkpt lat="43.67613" lon="1.49431">
        <ele>223.916688</ele>
        <time>2022-08-14T15:03:45.266Z</time>
      </trkpt>
      <trkpt lat="43.67617" lon="1.4942">
        <ele>223.880025</ele>
        <time>2022-08-14T15:03:48.270Z</time>
      </trkpt>
      <trkpt lat="43.67623" lon="1.49406">
        <ele>223.8361</ele>
        <time>2022-08-14T15:03:52.287Z</time>
      </trkpt>
      <trkpt lat="43.67624" lon="1.49388">
        <ele>223.787191</ele>
        <time>2022-08-14T15:03:55.272Z</time>
      </trkpt>
      <trkpt lat="43.67629" lon="1.49376">
        <ele>223.750351</ele>
        <time>2022-08-14T15:03:57.309Z</time>
      </trkpt>
      <trkpt lat="43.67637" lon="1.49364">
        <ele>223.705135</ele>
        <time>2022-08-14T15:03:59.282Z</time>
      </trkpt>
      <trkpt lat="43.67645" lon="1.4935">
        <ele>223.655971</ele>
        <time>2022-08-14T15:04:02.289Z</time>
      </trkpt>
      <trkpt lat="43.67651" lon="1.4934">
        <ele>223.620736</ele>
        <time>2022-08-14T15:04:04.286Z</time>
      </trkpt>
      <trkpt lat="43.67658" lon="1.49331">
        <ele>223.584128</ele>
        <time>2022-08-14T15:04:06.284Z</time>
      </trkpt>
      <trkpt lat="43.67665" lon="1.49316">
        <ele>223.533832</ele>
        <time>2022-08-14T15:04:08.283Z</time>
      </trkpt>
      <trkpt lat="43.67668" lon="1.49302">
        <ele>223.49623</ele>
        <time>2022-08-14T15:04:10.278Z</time>
      </trkpt>
      <trkpt lat="43.6767" lon="1.4929">
        <ele>223.30141</ele>
        <time>2022-08-14T15:04:12.275Z</time>
      </trkpt>
      <trkpt lat="43.67677" lon="1.49277">
        <ele>222.612869</ele>
        <time>2022-08-14T15:04:15.274Z</time>
      </trkpt>
      <trkpt lat="43.67684" lon="1.49265">
        <ele>221.960239</ele>
        <time>2022-08-14T15:04:18.286Z</time>
      </trkpt>
      <trkpt lat="43.67693" lon="1.49258">
        <ele>221.333929</ele>
        <time>2022-08-14T15:04:20.287Z</time>
      </trkpt>
      <trkpt lat="43.67699" lon="1.49245">
        <ele>220.71394</ele>
        <time>2022-08-14T15:04:22.288Z</time>
      </trkpt>
      <trkpt lat="43.67706" lon="1.49228">
        <ele>219.83442</ele>
        <time>2022-08-14T15:04:25.263Z</time>
      </trkpt>
      <trkpt lat="43.67712" lon="1.49216">
        <ele>219.228011</ele>
        <time>2022-08-14T15:04:27.292Z</time>
      </trkpt>
      <trkpt lat="43.67719" lon="1.49203">
        <ele>218.524515</ele>
        <time>2022-08-14T15:04:31.281Z</time>
      </trkpt>
      <trkpt lat="43.67727" lon="1.49193">
        <ele>217.894856</ele>
        <time>2022-08-14T15:04:34.300Z</time>
      </trkpt>
      <trkpt lat="43.67735" lon="1.49183">
        <ele>217.233215</ele>
        <time>2022-08-14T15:04:37.266Z</time>
      </trkpt>
      <trkpt lat="43.67743" lon="1.49172">
        <ele>216.572895</ele>
        <time>2022-08-14T15:04:40.306Z</time>
      </trkpt>
      <trkpt lat="43.67754" lon="1.4916">
        <ele>215.761577</ele>
        <time>2022-08-14T15:04:43.294Z</time>
      </trkpt>
      <trkpt lat="43.67759" lon="1.49149">
        <ele>215.191878</ele>
        <time>2022-08-14T15:04:45.290Z</time>
      </trkpt>
      <trkpt lat="43.67766" lon="1.49138">
        <ele>214.571983</ele>
        <time>2022-08-14T15:04:48.300Z</time>
      </trkpt>
      <trkpt lat="43.67773" lon="1.4913">
        <ele>214.019374</ele>
        <time>2022-08-14T15:04:50.305Z</time>
      </trkpt>
      <trkpt lat="43.67781" lon="1.49122">
        <ele>213.418697</ele>
        <time>2022-08-14T15:04:53.278Z</time>
      </trkpt>
      <trkpt lat="43.6779" lon="1.49113">
        <ele>212.790256</ele>
        <time>2022-08-14T15:04:56.290Z</time>
      </trkpt>
      <trkpt lat="43.67795" lon="1.49101">
        <ele>212.669879</ele>
        <time>2022-08-14T15:04:59.268Z</time>
      </trkpt>
      <trkpt lat="43.67802" lon="1.4909">
        <ele>212.548834</ele>
        <time>2022-08-14T15:05:01.290Z</time>
      </trkpt>
      <trkpt lat="43.67811" lon="1.49078">
        <ele>212.401888</ele>
        <time>2022-08-14T15:05:03.292Z</time>
      </trkpt>
      <trkpt lat="43.67817" lon="1.49068">
        <ele>212.289886</ele>
        <time>2022-08-14T15:05:04.275Z</time>
      </trkpt>
      <trkpt lat="43.67824" lon="1.49058">
        <ele>212.176162</ele>
        <time>2022-08-14T15:05:06.279Z</time>
      </trkpt>
      <trkpt lat="43.67829" lon="1.49044">
        <ele>212.033626</ele>
        <time>2022-08-14T15:05:08.313Z</time>
      </trkpt>
      <trkpt lat="43.67838" lon="1.49029">
        <ele>211.873495</ele>
        <time>2022-08-14T15:05:11.281Z</time>
      </trkpt>
      <trkpt lat="43.67848" lon="1.49012">
        <ele>211.689018</ele>
        <time>2022-08-14T15:05:13.271Z</time>
      </trkpt>
      <trkpt lat="43.67856" lon="1.49001">
        <ele>211.551934</ele>
        <time>2022-08-14T15:05:15.291Z</time>
      </trkpt>
      <trkpt lat="43.67866" lon="1.48991">
        <ele>211.403585</ele>
        <time>2022-08-14T15:05:18.286Z</time>
      </trkpt>
      <trkpt lat="43.67872" lon="1.48973">
        <ele>211.231606</ele>
        <time>2022-08-14T15:05:20.270Z</time>
      </trkpt>
      <trkpt lat="43.67875" lon="1.48959">
        <ele>211.110562</ele>
        <time>2022-08-14T15:05:24.286Z</time>
      </trkpt>
      <trkpt lat="43.6789" lon="1.48931">
        <ele>210.811867</ele>
        <time>2022-08-14T15:05:48.285Z</time>
      </trkpt>
      <trkpt lat="43.67901" lon="1.4892">
        <ele>210.657305</ele>
        <time>2022-08-14T15:05:52.305Z</time>
      </trkpt>
      <trkpt lat="43.67906" lon="1.48909">
        <ele>210.569457</ele>
        <time>2022-08-14T15:05:54.296Z</time>
      </trkpt>
      <trkpt lat="43.67911" lon="1.48896">
        <ele>210.472591</ele>
        <time>2022-08-14T15:05:58.271Z</time>
      </trkpt>
      <trkpt lat="43.67918" lon="1.48884">
        <ele>210.370017</ele>
        <time>2022-08-14T15:06:02.280Z</time>
      </trkpt>
      <trkpt lat="43.67925" lon="1.48872">
        <ele>210.268974</ele>
        <time>2022-08-14T15:06:05.257Z</time>
      </trkpt>
      <trkpt lat="43.67933" lon="1.48861">
        <ele>210.167186</ele>
        <time>2022-08-14T15:06:08.283Z</time>
      </trkpt>
      <trkpt lat="43.67941" lon="1.48854">
        <ele>210.078588</ele>
        <time>2022-08-14T15:06:11.294Z</time>
      </trkpt>
      <trkpt lat="43.67952" lon="1.48843">
        <ele>209.954565</ele>
        <time>2022-08-14T15:06:14.297Z</time>
      </trkpt>
      <trkpt lat="43.67962" lon="1.48836">
        <ele>209.853518</ele>
        <time>2022-08-14T15:06:16.285Z</time>
      </trkpt>
      <trkpt lat="43.67971" lon="1.48826">
        <ele>209.747554</ele>
        <time>2022-08-14T15:06:18.298Z</time>
      </trkpt>
      <trkpt lat="43.6798" lon="1.4882">
        <ele>209.650522</ele>
        <time>2022-08-14T15:06:20.273Z</time>
      </trkpt>
      <trkpt lat="43.67992" lon="1.48811">
        <ele>209.527754</ele>
        <time>2022-08-14T15:06:22.262Z</time>
      </trkpt>
      <trkpt lat="43.68003" lon="1.48804">
        <ele>209.416115</ele>
        <time>2022-08-14T15:06:24.274Z</time>
      </trkpt>
      <trkpt lat="43.68014" lon="1.48796">
        <ele>209.303644</ele>
        <time>2022-08-14T15:06:26.279Z</time>
      </trkpt>
      <trkpt lat="43.68024" lon="1.48788">
        <ele>209.193745</ele>
        <time>2022-08-14T15:06:28.279Z</time>
      </trkpt>
      <trkpt lat="43.68035" lon="1.48782">
        <ele>209.08598</ele>
        <time>2022-08-14T15:06:30.272Z</time>
      </trkpt>
      <trkpt lat="43.68045" lon="1.48775">
        <ele>209.066914</ele>
        <time>2022-08-14T15:06:32.285Z</time>
      </trkpt>
      <trkpt lat="43.68056" lon="1.48778">
        <ele>209.190761</ele>
        <time>2022-08-14T15:06:38.261Z</time>
      </trkpt>
      <trkpt lat="43.68054" lon="1.48793">
        <ele>209.317613</ele>
        <time>2022-08-14T15:06:41.256Z</time>
      </trkpt>
      <trkpt lat="43.68053" lon="1.48806">
        <ele>209.430099</ele>
        <time>2022-08-14T15:06:43.279Z</time>
      </trkpt>
      <trkpt lat="43.68056" lon="1.48821">
        <ele>209.553518</ele>
        <time>2022-08-14T15:06:45.268Z</time>
      </trkpt>
      <trkpt lat="43.68062" lon="1.48833">
        <ele>209.675778</ele>
        <time>2022-08-14T15:06:47.270Z</time>
      </trkpt>
      <trkpt lat="43.6807" lon="1.48844">
        <ele>209.802525</ele>
        <time>2022-08-14T15:06:49.270Z</time>
      </trkpt>
      <trkpt lat="43.68079" lon="1.48853">
        <ele>209.93241</ele>
        <time>2022-08-14T15:06:51.273Z</time>
      </trkpt>
      <trkpt lat="43.68088" lon="1.48862">
        <ele>210.057798</ele>
        <time>2022-08-14T15:06:53.280Z</time>
      </trkpt>
      <trkpt lat="43.68097" lon="1.4887">
        <ele>210.184009</ele>
        <time>2022-08-14T15:06:55.272Z</time>
      </trkpt>
      <trkpt lat="43.68106" lon="1.48877">
        <ele>210.30459</ele>
        <time>2022-08-14T15:06:57.270Z</time>
      </trkpt>
      <trkpt lat="43.68115" lon="1.48884">
        <ele>210.415589</ele>
        <time>2022-08-14T15:06:59.273Z</time>
      </trkpt>
      <trkpt lat="43.68123" lon="1.4889">
        <ele>210.523347</ele>
        <time>2022-08-14T15:07:01.279Z</time>
      </trkpt>
      <trkpt lat="43.68131" lon="1.48897">
        <ele>210.633501</ele>
        <time>2022-08-14T15:07:03.274Z</time>
      </trkpt>
      <trkpt lat="43.68139" lon="1.48904">
        <ele>210.740273</ele>
        <time>2022-08-14T15:07:05.276Z</time>
      </trkpt>
      <trkpt lat="43.68147" lon="1.4891">
        <ele>210.84779</ele>
        <time>2022-08-14T15:07:07.281Z</time>
      </trkpt>
      <trkpt lat="43.68155" lon="1.48917">
        <ele>210.956298</ele>
        <time>2022-08-14T15:07:09.280Z</time>
      </trkpt>
      <trkpt lat="43.68165" lon="1.48924">
        <ele>211.078275</ele>
        <time>2022-08-14T15:07:11.253Z</time>
      </trkpt>
      <trkpt lat="43.68174" lon="1.4893">
        <ele>211.772639</ele>
        <time>2022-08-14T15:07:13.272Z</time>
      </trkpt>
      <trkpt lat="43.68184" lon="1.48936">
        <ele>212.505257</ele>
        <time>2022-08-14T15:07:15.269Z</time>
      </trkpt>
      <trkpt lat="43.68194" lon="1.48943">
        <ele>213.258503</ele>
        <time>2022-08-14T15:07:17.260Z</time>
      </trkpt>
      <trkpt lat="43.68202" lon="1.48955">
        <ele>214.060556</ele>
        <time>2022-08-14T15:07:19.296Z</time>
      </trkpt>
      <trkpt lat="43.6821" lon="1.48969">
        <ele>214.987751</ele>
        <time>2022-08-14T15:07:21.297Z</time>
      </trkpt>
      <trkpt lat="43.6822" lon="1.4898">
        <ele>215.824025</ele>
        <time>2022-08-14T15:07:23.291Z</time>
      </trkpt>
      <trkpt lat="43.6823" lon="1.48987">
        <ele>216.621173</ele>
        <time>2022-08-14T15:07:25.298Z</time>
      </trkpt>
      <trkpt lat="43.68241" lon="1.48992">
        <ele>217.381465</ele>
        <time>2022-08-14T15:07:27.263Z</time>
      </trkpt>
      <trkpt lat="43.68251" lon="1.48988">
        <ele>218.106909</ele>
        <time>2022-08-14T15:07:29.285Z</time>
      </trkpt>
      <trkpt lat="43.6826" lon="1.48982">
        <ele>218.769646</ele>
        <time>2022-08-14T15:07:31.279Z</time>
      </trkpt>
      <trkpt lat="43.6826" lon="1.48969">
        <ele>219.435204</ele>
        <time>2022-08-14T15:07:34.279Z</time>
      </trkpt>
      <trkpt lat="43.6826" lon="1.48953">
        <ele>220.21459</ele>
        <time>2022-08-14T15:07:37.282Z</time>
      </trkpt>
      <trkpt lat="43.68263" lon="1.48937">
        <ele>221.002296</ele>
        <time>2022-08-14T15:07:40.282Z</time>
      </trkpt>
      <trkpt lat="43.68266" lon="1.48925">
        <ele>221.665284</ele>
        <time>2022-08-14T15:07:43.267Z</time>
      </trkpt>
      <trkpt lat="43.68269" lon="1.48912">
        <ele>222.31123</ele>
        <time>2022-08-14T15:07:46.306Z</time>
      </trkpt>
      <trkpt lat="43.68271" lon="1.489">
        <ele>222.939278</ele>
        <time>2022-08-14T15:07:49.283Z</time>
      </trkpt>
      <trkpt lat="43.68275" lon="1.48885">
        <ele>224.175474</ele>
        <time>2022-08-14T15:07:53.285Z</time>
      </trkpt>
      <trkpt lat="43.68279" lon="1.48872">
        <ele>225.657747</ele>
        <time>2022-08-14T15:07:57.286Z</time>
      </trkpt>
      <trkpt lat="43.68281" lon="1.4886">
        <ele>227.071233</ele>
        <time>2022-08-14T15:08:00.269Z</time>
      </trkpt>
      <trkpt lat="43.68283" lon="1.48847">
        <ele>228.460054</ele>
        <time>2022-08-14T15:08:03.270Z</time>
      </trkpt>
      <trkpt lat="43.68286" lon="1.48832">
        <ele>230.202902</ele>
        <time>2022-08-14T15:08:07.260Z</time>
      </trkpt>
      <trkpt lat="43.68289" lon="1.48817">
        <ele>231.93582</ele>
        <time>2022-08-14T15:08:11.266Z</time>
      </trkpt>
      <trkpt lat="43.68293" lon="1.48802">
        <ele>233.652637</ele>
        <time>2022-08-14T15:08:15.269Z</time>
      </trkpt>
      <trkpt lat="43.68296" lon="1.48787">
        <ele>235.349956</ele>
        <time>2022-08-14T15:08:19.277Z</time>
      </trkpt>
      <trkpt lat="43.683" lon="1.48773">
        <ele>236.938372</ele>
        <time>2022-08-14T15:08:23.280Z</time>
      </trkpt>
      <trkpt lat="43.68303" lon="1.48762">
        <ele>238.308227</ele>
        <time>2022-08-14T15:08:26.274Z</time>
      </trkpt>
      <trkpt lat="43.68308" lon="1.48748">
        <ele>240.02171</ele>
        <time>2022-08-14T15:08:30.271Z</time>
      </trkpt>
      <trkpt lat="43.68313" lon="1.48735">
        <ele>241.648066</ele>
        <time>2022-08-14T15:08:34.289Z</time>
      </trkpt>
      <trkpt lat="43.68318" lon="1.48721">
        <ele>243.338464</ele>
        <time>2022-08-14T15:08:38.286Z</time>
      </trkpt>
      <trkpt lat="43.68323" lon="1.48706">
        <ele>245.095444</ele>
        <time>2022-08-14T15:08:42.281Z</time>
      </trkpt>
      <trkpt lat="43.68327" lon="1.48693">
        <ele>246.654185</ele>
        <time>2022-08-14T15:08:46.304Z</time>
      </trkpt>
      <trkpt lat="43.68331" lon="1.4868">
        <ele>248.206941</ele>
        <time>2022-08-14T15:08:50.283Z</time>
      </trkpt>
      <trkpt lat="43.68337" lon="1.48666">
        <ele>249.97248</ele>
        <time>2022-08-14T15:08:54.293Z</time>
      </trkpt>
      <trkpt lat="43.68342" lon="1.48651">
        <ele>250.888002</ele>
        <time>2022-08-14T15:08:58.282Z</time>
      </trkpt>
      <trkpt lat="43.68346" lon="1.48638">
        <ele>251.330073</ele>
        <time>2022-08-14T15:09:01.307Z</time>
      </trkpt>
      <trkpt lat="43.6835" lon="1.48623">
        <ele>251.811767</ele>
        <time>2022-08-14T15:09:04.266Z</time>
      </trkpt>
      <trkpt lat="43.68354" lon="1.48609">
        <ele>252.286734</ele>
        <time>2022-08-14T15:09:07.275Z</time>
      </trkpt>
      <trkpt lat="43.68358" lon="1.48595">
        <ele>252.768427</ele>
        <time>2022-08-14T15:09:10.270Z</time>
      </trkpt>
      <trkpt lat="43.68362" lon="1.48582">
        <ele>253.200984</ele>
        <time>2022-08-14T15:09:13.286Z</time>
      </trkpt>
      <trkpt lat="43.68371" lon="1.48583">
        <ele>253.594718</ele>
        <time>2022-08-14T15:09:17.290Z</time>
      </trkpt>
      <trkpt lat="43.68382" lon="1.48591">
        <ele>254.103601</ele>
        <time>2022-08-14T15:09:21.275Z</time>
      </trkpt>
      <trkpt lat="43.6839" lon="1.48598">
        <ele>254.530792</ele>
        <time>2022-08-14T15:09:24.289Z</time>
      </trkpt>
      <trkpt lat="43.684" lon="1.48605">
        <ele>255.004699</ele>
        <time>2022-08-14T15:09:28.292Z</time>
      </trkpt>
      <trkpt lat="43.68409" lon="1.48612">
        <ele>255.468702</ele>
        <time>2022-08-14T15:09:31.270Z</time>
      </trkpt>
      <trkpt lat="43.68419" lon="1.48619">
        <ele>255.932058</ele>
        <time>2022-08-14T15:09:34.301Z</time>
      </trkpt>
      <trkpt lat="43.68428" lon="1.48623">
        <ele>256.356488</ele>
        <time>2022-08-14T15:09:37.280Z</time>
      </trkpt>
      <trkpt lat="43.68439" lon="1.48628">
        <ele>256.842222</ele>
        <time>2022-08-14T15:09:40.265Z</time>
      </trkpt>
      <trkpt lat="43.68449" lon="1.48636">
        <ele>257.370459</ele>
        <time>2022-08-14T15:09:43.283Z</time>
      </trkpt>
      <trkpt lat="43.68461" lon="1.48645">
        <ele>257.934995</ele>
        <time>2022-08-14T15:09:46.274Z</time>
      </trkpt>
      <trkpt lat="43.6847" lon="1.4865">
        <ele>258.303295</ele>
        <time>2022-08-14T15:09:48.282Z</time>
      </trkpt>
      <trkpt lat="43.68479" lon="1.48656">
        <ele>258.345393</ele>
        <time>2022-08-14T15:09:50.298Z</time>
      </trkpt>
      <trkpt lat="43.68489" lon="1.48662">
        <ele>258.388829</ele>
        <time>2022-08-14T15:09:52.288Z</time>
      </trkpt>
      <trkpt lat="43.68498" lon="1.48668">
        <ele>258.430408</ele>
        <time>2022-08-14T15:09:54.287Z</time>
      </trkpt>
      <trkpt lat="43.68507" lon="1.48673">
        <ele>258.471034</ele>
        <time>2022-08-14T15:09:56.284Z</time>
      </trkpt>
      <trkpt lat="43.68517" lon="1.48677">
        <ele>258.51299</ele>
        <time>2022-08-14T15:09:58.278Z</time>
      </trkpt>
      <trkpt lat="43.68528" lon="1.4868">
        <ele>258.556478</ele>
        <time>2022-08-14T15:10:00.283Z</time>
      </trkpt>
      <trkpt lat="43.68538" lon="1.48686">
        <ele>258.601149</ele>
        <time>2022-08-14T15:10:02.290Z</time>
      </trkpt>
      <trkpt lat="43.68546" lon="1.48696">
        <ele>258.647078</ele>
        <time>2022-08-14T15:10:04.297Z</time>
      </trkpt>
      <trkpt lat="43.68554" lon="1.48707">
        <ele>258.692695</ele>
        <time>2022-08-14T15:10:06.300Z</time>
      </trkpt>
      <trkpt lat="43.68852" lon="1.48785">
        <ele>246.515639</ele>
        <time>2022-08-14T15:19:33.258Z</time>
      </trkpt>
      <trkpt lat="43.68847" lon="1.48773">
        <ele>246.219305</ele>
        <time>2022-08-14T15:19:45.259Z</time>
      </trkpt>
      <trkpt lat="43.68847" lon="1.48759">
        <ele>245.912721</ele>
        <time>2022-08-14T15:19:48.309Z</time>
      </trkpt>
      <trkpt lat="43.68847" lon="1.48746">
        <ele>245.63996</ele>
        <time>2022-08-14T15:19:50.268Z</time>
      </trkpt>
      <trkpt lat="43.68844" lon="1.48728">
        <ele>245.252906</ele>
        <time>2022-08-14T15:19:53.281Z</time>
      </trkpt>
      <trkpt lat="43.68843" lon="1.48709">
        <ele>244.855095</ele>
        <time>2022-08-14T15:19:56.245Z</time>
      </trkpt>
      <trkpt lat="43.68842" lon="1.48696">
        <ele>244.560106</ele>
        <time>2022-08-14T15:19:58.284Z</time>
      </trkpt>
      <trkpt lat="43.68843" lon="1.48682">
        <ele>244.262414</ele>
        <time>2022-08-14T15:20:00.267Z</time>
      </trkpt>
      <trkpt lat="43.68844" lon="1.48668">
        <ele>243.969526</ele>
        <time>2022-08-14T15:20:02.285Z</time>
      </trkpt>
      <trkpt lat="43.68845" lon="1.48651">
        <ele>243.612773</ele>
        <time>2022-08-14T15:20:04.276Z</time>
      </trkpt>
      <trkpt lat="43.68845" lon="1.48635">
        <ele>243.261186</ele>
        <time>2022-08-14T15:20:06.298Z</time>
      </trkpt>
      <trkpt lat="43.68847" lon="1.48621">
        <ele>242.966293</ele>
        <time>2022-08-14T15:20:08.270Z</time>
      </trkpt>
      <trkpt lat="43.68852" lon="1.48609">
        <ele>242.671044</ele>
        <time>2022-08-14T15:20:10.289Z</time>
      </trkpt>
      <trkpt lat="43.68864" lon="1.48577">
        <ele>241.896046</ele>
        <time>2022-08-14T15:20:44.273Z</time>
      </trkpt>
      <trkpt lat="43.68868" lon="1.48565">
        <ele>241.581382</ele>
        <time>2022-08-14T15:20:46.246Z</time>
      </trkpt>
      <trkpt lat="43.68874" lon="1.48551">
        <ele>241.144641</ele>
        <time>2022-08-14T15:20:48.257Z</time>
      </trkpt>
      <trkpt lat="43.68879" lon="1.48536">
        <ele>240.673937</ele>
        <time>2022-08-14T15:20:50.267Z</time>
      </trkpt>
      <trkpt lat="43.68883" lon="1.4852">
        <ele>240.175028</ele>
        <time>2022-08-14T15:20:52.266Z</time>
      </trkpt>
      <trkpt lat="43.68886" lon="1.48501">
        <ele>239.653651</ele>
        <time>2022-08-14T15:20:54.302Z</time>
      </trkpt>
      <trkpt lat="43.68888" lon="1.48483">
        <ele>239.139215</ele>
        <time>2022-08-14T15:20:56.301Z</time>
      </trkpt>
      <trkpt lat="43.68891" lon="1.48466">
        <ele>238.636651</ele>
        <time>2022-08-14T15:20:58.282Z</time>
      </trkpt>
      <trkpt lat="43.68896" lon="1.48449">
        <ele>238.127157</ele>
        <time>2022-08-14T15:21:00.280Z</time>
      </trkpt>
      <trkpt lat="43.68902" lon="1.48433">
        <ele>237.61415</ele>
        <time>2022-08-14T15:21:02.275Z</time>
      </trkpt>
      <trkpt lat="43.68909" lon="1.48417">
        <ele>237.081015</ele>
        <time>2022-08-14T15:21:04.285Z</time>
      </trkpt>
      <trkpt lat="43.68916" lon="1.48399">
        <ele>236.511358</ele>
        <time>2022-08-14T15:21:06.265Z</time>
      </trkpt>
      <trkpt lat="43.68922" lon="1.4838">
        <ele>235.934945</ele>
        <time>2022-08-14T15:21:08.281Z</time>
      </trkpt>
      <trkpt lat="43.68928" lon="1.48362">
        <ele>235.379333</ele>
        <time>2022-08-14T15:21:10.271Z</time>
      </trkpt>
      <trkpt lat="43.68933" lon="1.48344">
        <ele>234.841648</ele>
        <time>2022-08-14T15:21:12.276Z</time>
      </trkpt>
      <trkpt lat="43.68938" lon="1.48328">
        <ele>234.433167</ele>
        <time>2022-08-14T15:21:14.280Z</time>
      </trkpt>
      <trkpt lat="43.68942" lon="1.4831">
        <ele>234.062484</ele>
        <time>2022-08-14T15:21:16.294Z</time>
      </trkpt>
      <trkpt lat="43.68946" lon="1.48294">
        <ele>233.713721</ele>
        <time>2022-08-14T15:21:18.255Z</time>
      </trkpt>
      <trkpt lat="43.6895" lon="1.48277">
        <ele>233.356369</ele>
        <time>2022-08-14T15:21:20.258Z</time>
      </trkpt>
      <trkpt lat="43.68957" lon="1.48261">
        <ele>232.987026</ele>
        <time>2022-08-14T15:21:22.253Z</time>
      </trkpt>
      <trkpt lat="43.6896" lon="1.48245">
        <ele>232.650187</ele>
        <time>2022-08-14T15:21:24.268Z</time>
      </trkpt>
      <trkpt lat="43.68964" lon="1.48231">
        <ele>232.339171</ele>
        <time>2022-08-14T15:21:26.259Z</time>
      </trkpt>
      <trkpt lat="43.68971" lon="1.48219">
        <ele>232.03872</ele>
        <time>2022-08-14T15:21:28.283Z</time>
      </trkpt>
      <trkpt lat="43.68975" lon="1.48206">
        <ele>231.750695</ele>
        <time>2022-08-14T15:21:30.267Z</time>
      </trkpt>
      <trkpt lat="43.68977" lon="1.48189">
        <ele>231.418001</ele>
        <time>2022-08-14T15:21:33.280Z</time>
      </trkpt>
      <trkpt lat="43.68986" lon="1.48172">
        <ele>230.996682</ele>
        <time>2022-08-14T15:21:36.259Z</time>
      </trkpt>
      <trkpt lat="43.68995" lon="1.4816">
        <ele>230.636773</ele>
        <time>2022-08-14T15:21:38.265Z</time>
      </trkpt>
      <trkpt lat="43.69002" lon="1.48146">
        <ele>230.296931</ele>
        <time>2022-08-14T15:21:40.256Z</time>
      </trkpt>
      <trkpt lat="43.69008" lon="1.48133">
        <ele>229.977035</ele>
        <time>2022-08-14T15:21:42.255Z</time>
      </trkpt>
      <trkpt lat="43.69017" lon="1.48122">
        <ele>229.680818</ele>
        <time>2022-08-14T15:21:44.272Z</time>
      </trkpt>
      <trkpt lat="43.69023" lon="1.48112">
        <ele>229.820218</ele>
        <time>2022-08-14T15:21:46.268Z</time>
      </trkpt>
      <trkpt lat="43.69026" lon="1.48099">
        <ele>229.960969</ele>
        <time>2022-08-14T15:21:49.262Z</time>
      </trkpt>
      <trkpt lat="43.69027" lon="1.48086">
        <ele>230.097032</ele>
        <time>2022-08-14T15:21:53.283Z</time>
      </trkpt>
      <trkpt lat="43.69027" lon="1.48068">
        <ele>230.295698</ele>
        <time>2022-08-14T15:22:00.253Z</time>
      </trkpt>
      <trkpt lat="43.69028" lon="1.4805">
        <ele>230.483734</ele>
        <time>2022-08-14T15:22:08.265Z</time>
      </trkpt>
      <trkpt lat="43.69032" lon="1.48036">
        <ele>230.634052</ele>
        <time>2022-08-14T15:22:12.281Z</time>
      </trkpt>
      <trkpt lat="43.69034" lon="1.48023">
        <ele>230.776619</ele>
        <time>2022-08-14T15:22:17.286Z</time>
      </trkpt>
      <trkpt lat="43.69036" lon="1.48011">
        <ele>230.910149</ele>
        <time>2022-08-14T15:22:20.258Z</time>
      </trkpt>
      <trkpt lat="43.69036" lon="1.47996">
        <ele>231.067298</ele>
        <time>2022-08-14T15:22:23.273Z</time>
      </trkpt>
      <trkpt lat="43.69029" lon="1.47981">
        <ele>231.253265</ele>
        <time>2022-08-14T15:22:27.288Z</time>
      </trkpt>
      <trkpt lat="43.69023" lon="1.47961">
        <ele>231.477798</ele>
        <time>2022-08-14T15:22:35.270Z</time>
      </trkpt>
      <trkpt lat="43.69024" lon="1.47942">
        <ele>231.678681</ele>
        <time>2022-08-14T15:22:47.274Z</time>
      </trkpt>
      <trkpt lat="43.69026" lon="1.47929">
        <ele>231.823816</ele>
        <time>2022-08-14T15:22:53.239Z</time>
      </trkpt>
      <trkpt lat="43.6903" lon="1.47917">
        <ele>231.958034</ele>
        <time>2022-08-14T15:22:57.258Z</time>
      </trkpt>
      <trkpt lat="43.69038" lon="1.47909">
        <ele>232.099186</ele>
        <time>2022-08-14T15:23:08.287Z</time>
      </trkpt>
      <trkpt lat="43.69045" lon="1.47897">
        <ele>232.264947</ele>
        <time>2022-08-14T15:23:19.268Z</time>
      </trkpt>
      <trkpt lat="43.69054" lon="1.47886">
        <ele>231.790788</ele>
        <time>2022-08-14T15:23:27.271Z</time>
      </trkpt>
      <trkpt lat="43.6906" lon="1.47874">
        <ele>231.291528</ele>
        <time>2022-08-14T15:23:32.258Z</time>
      </trkpt>
      <trkpt lat="43.69059" lon="1.47861">
        <ele>230.86514</ele>
        <time>2022-08-14T15:23:37.295Z</time>
      </trkpt>
      <trkpt lat="43.69062" lon="1.47848">
        <ele>230.374642</ele>
        <time>2022-08-14T15:23:41.264Z</time>
      </trkpt>
      <trkpt lat="43.69066" lon="1.47834">
        <ele>229.871319</ele>
        <time>2022-08-14T15:23:45.252Z</time>
      </trkpt>
      <trkpt lat="43.69072" lon="1.47822">
        <ele>229.383963</ele>
        <time>2022-08-14T15:23:48.267Z</time>
      </trkpt>
      <trkpt lat="43.69076" lon="1.47809">
        <ele>228.900162</ele>
        <time>2022-08-14T15:23:51.251Z</time>
      </trkpt>
      <trkpt lat="43.69076" lon="1.47796">
        <ele>228.444638</ele>
        <time>2022-08-14T15:23:55.287Z</time>
      </trkpt>
      <trkpt lat="43.69077" lon="1.47783">
        <ele>228.008097</ele>
        <time>2022-08-14T15:23:59.249Z</time>
      </trkpt>
      <trkpt lat="43.69081" lon="1.47769">
        <ele>227.4825</ele>
        <time>2022-08-14T15:24:02.265Z</time>
      </trkpt>
      <trkpt lat="43.69087" lon="1.47757">
        <ele>227.006155</ele>
        <time>2022-08-14T15:24:05.273Z</time>
      </trkpt>
      <trkpt lat="43.69084" lon="1.47745">
        <ele>226.560384</ele>
        <time>2022-08-14T15:24:10.233Z</time>
      </trkpt>
      <trkpt lat="43.69081" lon="1.47729">
        <ele>225.995052</ele>
        <time>2022-08-14T15:24:13.266Z</time>
      </trkpt>
      <trkpt lat="43.69076" lon="1.47717">
        <ele>225.538579</ele>
        <time>2022-08-14T15:24:16.275Z</time>
      </trkpt>
      <trkpt lat="43.69072" lon="1.47702">
        <ele>224.974593</ele>
        <time>2022-08-14T15:24:20.285Z</time>
      </trkpt>
      <trkpt lat="43.69068" lon="1.47687">
        <ele>224.424985</ele>
        <time>2022-08-14T15:24:25.285Z</time>
      </trkpt>
      <trkpt lat="43.69066" lon="1.47672">
        <ele>223.921785</ele>
        <time>2022-08-14T15:24:28.269Z</time>
      </trkpt>
      <trkpt lat="43.69068" lon="1.47659">
        <ele>223.623968</ele>
        <time>2022-08-14T15:24:32.265Z</time>
      </trkpt>
      <trkpt lat="43.69066" lon="1.47644">
        <ele>223.344433</ele>
        <time>2022-08-14T15:24:36.255Z</time>
      </trkpt>
      <trkpt lat="43.69069" lon="1.47631">
        <ele>223.070777</ele>
        <time>2022-08-14T15:24:41.257Z</time>
      </trkpt>
      <trkpt lat="43.69076" lon="1.4762">
        <ele>222.791438</ele>
        <time>2022-08-14T15:24:46.284Z</time>
      </trkpt>
      <trkpt lat="43.69081" lon="1.47601">
        <ele>222.407284</ele>
        <time>2022-08-14T15:24:58.254Z</time>
      </trkpt>
      <trkpt lat="43.69079" lon="1.47589">
        <ele>222.16037</ele>
        <time>2022-08-14T15:25:04.266Z</time>
      </trkpt>
      <trkpt lat="43.69076" lon="1.47575">
        <ele>221.870753</ele>
        <time>2022-08-14T15:25:08.272Z</time>
      </trkpt>
      <trkpt lat="43.69076" lon="1.47561">
        <ele>221.604278</ele>
        <time>2022-08-14T15:25:12.255Z</time>
      </trkpt>
      <trkpt lat="43.69082" lon="1.47545">
        <ele>221.258873</ele>
        <time>2022-08-14T15:25:16.269Z</time>
      </trkpt>
      <trkpt lat="43.69086" lon="1.47531">
        <ele>220.956133</ele>
        <time>2022-08-14T15:25:19.273Z</time>
      </trkpt>
      <trkpt lat="43.69084" lon="1.47517">
        <ele>220.696253</ele>
        <time>2022-08-14T15:25:22.283Z</time>
      </trkpt>
      <trkpt lat="43.69085" lon="1.47502">
        <ele>220.396284</ele>
        <time>2022-08-14T15:25:25.285Z</time>
      </trkpt>
      <trkpt lat="43.69088" lon="1.47488">
        <ele>220.108535</ele>
        <time>2022-08-14T15:25:28.267Z</time>
      </trkpt>
      <trkpt lat="43.69087" lon="1.47473">
        <ele>219.808946</ele>
        <time>2022-08-14T15:25:32.277Z</time>
      </trkpt>
      <trkpt lat="43.69082" lon="1.4746">
        <ele>219.525969</ele>
        <time>2022-08-14T15:25:36.279Z</time>
      </trkpt>
      <trkpt lat="43.69076" lon="1.47447">
        <ele>219.238698</ele>
        <time>2022-08-14T15:25:39.297Z</time>
      </trkpt>
      <trkpt lat="43.69072" lon="1.47435">
        <ele>219.000174</ele>
        <time>2022-08-14T15:25:42.276Z</time>
      </trkpt>
      <trkpt lat="43.69073" lon="1.47421">
        <ele>219.11135</ele>
        <time>2022-08-14T15:25:44.293Z</time>
      </trkpt>
      <trkpt lat="43.69071" lon="1.47408">
        <ele>219.215813</ele>
        <time>2022-08-14T15:25:46.261Z</time>
      </trkpt>
      <trkpt lat="43.69066" lon="1.47395">
        <ele>219.333899</ele>
        <time>2022-08-14T15:25:48.305Z</time>
      </trkpt>
      <trkpt lat="43.69062" lon="1.4736">
        <ele>219.140713</ele>
        <time>2022-08-14T15:27:25.254Z</time>
      </trkpt>
      <trkpt lat="43.69061" lon="1.47344">
        <ele>218.888825</ele>
        <time>2022-08-14T15:27:28.283Z</time>
      </trkpt>
      <trkpt lat="43.6906" lon="1.47331">
        <ele>218.685158</ele>
        <time>2022-08-14T15:27:30.281Z</time>
      </trkpt>
      <trkpt lat="43.69059" lon="1.47316">
        <ele>218.462489</ele>
        <time>2022-08-14T15:27:32.277Z</time>
      </trkpt>
      <trkpt lat="43.69059" lon="1.47301">
        <ele>218.227811</ele>
        <time>2022-08-14T15:27:34.272Z</time>
      </trkpt>
      <trkpt lat="43.69059" lon="1.47286">
        <ele>217.982105</ele>
        <time>2022-08-14T15:27:36.260Z</time>
      </trkpt>
      <trkpt lat="43.69059" lon="1.4727">
        <ele>217.730144</ele>
        <time>2022-08-14T15:27:38.271Z</time>
      </trkpt>
      <trkpt lat="43.69059" lon="1.47254">
        <ele>217.48116</ele>
        <time>2022-08-14T15:27:40.258Z</time>
      </trkpt>
      <trkpt lat="43.6906" lon="1.47238">
        <ele>217.234389</ele>
        <time>2022-08-14T15:27:42.274Z</time>
      </trkpt>
      <trkpt lat="43.69063" lon="1.47223">
        <ele>217.031837</ele>
        <time>2022-08-14T15:27:44.293Z</time>
      </trkpt>
      <trkpt lat="43.69067" lon="1.47209">
        <ele>216.902022</ele>
        <time>2022-08-14T15:27:46.287Z</time>
      </trkpt>
      <trkpt lat="43.69072" lon="1.47195">
        <ele>216.772176</ele>
        <time>2022-08-14T15:27:48.278Z</time>
      </trkpt>
      <trkpt lat="43.69078" lon="1.47182">
        <ele>216.642488</ele>
        <time>2022-08-14T15:27:50.283Z</time>
      </trkpt>
      <trkpt lat="43.69083" lon="1.47169">
        <ele>216.513537</ele>
        <time>2022-08-14T15:27:52.274Z</time>
      </trkpt>
      <trkpt lat="43.69089" lon="1.47157">
        <ele>216.388595</ele>
        <time>2022-08-14T15:27:54.278Z</time>
      </trkpt>
      <trkpt lat="43.69094" lon="1.47144">
        <ele>216.266408</ele>
        <time>2022-08-14T15:27:56.283Z</time>
      </trkpt>
      <trkpt lat="43.69099" lon="1.47131">
        <ele>216.145547</ele>
        <time>2022-08-14T15:27:58.268Z</time>
      </trkpt>
      <trkpt lat="43.69103" lon="1.47121">
        <ele>216.038112</ele>
        <time>2022-08-14T15:28:00.267Z</time>
      </trkpt>
      <trkpt lat="43.69106" lon="1.47108">
        <ele>215.930987</ele>
        <time>2022-08-14T15:28:02.269Z</time>
      </trkpt>
      <trkpt lat="43.69108" lon="1.47092">
        <ele>215.789835</ele>
        <time>2022-08-14T15:28:05.292Z</time>
      </trkpt>
      <trkpt lat="43.69109" lon="1.47079">
        <ele>215.676583</ele>
        <time>2022-08-14T15:28:07.271Z</time>
      </trkpt>
      <trkpt lat="43.69112" lon="1.47065">
        <ele>215.553275</ele>
        <time>2022-08-14T15:28:09.288Z</time>
      </trkpt>
      <trkpt lat="43.69114" lon="1.47051">
        <ele>215.429405</ele>
        <time>2022-08-14T15:28:11.300Z</time>
      </trkpt>
      <trkpt lat="43.69116" lon="1.47037">
        <ele>215.306024</ele>
        <time>2022-08-14T15:28:13.290Z</time>
      </trkpt>
      <trkpt lat="43.69119" lon="1.47023">
        <ele>215.187069</ele>
        <time>2022-08-14T15:28:15.295Z</time>
      </trkpt>
      <trkpt lat="43.69122" lon="1.47006">
        <ele>215.034384</ele>
        <time>2022-08-14T15:28:18.305Z</time>
      </trkpt>
      <trkpt lat="43.69124" lon="1.46987">
        <ele>214.866859</ele>
        <time>2022-08-14T15:28:21.306Z</time>
      </trkpt>
      <trkpt lat="43.69127" lon="1.46974">
        <ele>214.739361</ele>
        <time>2022-08-14T15:28:23.276Z</time>
      </trkpt>
      <trkpt lat="43.6913" lon="1.46961">
        <ele>214.616275</ele>
        <time>2022-08-14T15:28:25.279Z</time>
      </trkpt>
      <trkpt lat="43.69133" lon="1.46948">
        <ele>214.490765</ele>
        <time>2022-08-14T15:28:27.278Z</time>
      </trkpt>
      <trkpt lat="43.69135" lon="1.46935">
        <ele>214.370981</ele>
        <time>2022-08-14T15:28:29.285Z</time>
      </trkpt>
      <trkpt lat="43.69135" lon="1.46923">
        <ele>214.254082</ele>
        <time>2022-08-14T15:28:31.274Z</time>
      </trkpt>
      <trkpt lat="43.69139" lon="1.46908">
        <ele>214.106067</ele>
        <time>2022-08-14T15:28:33.282Z</time>
      </trkpt>
      <trkpt lat="43.69145" lon="1.46892">
        <ele>213.943547</ele>
        <time>2022-08-14T15:28:35.278Z</time>
      </trkpt>
      <trkpt lat="43.6915" lon="1.46877">
        <ele>213.790966</ele>
        <time>2022-08-14T15:28:37.295Z</time>
      </trkpt>
      <trkpt lat="43.69154" lon="1.46863">
        <ele>213.648773</ele>
        <time>2022-08-14T15:28:39.290Z</time>
      </trkpt>
      <trkpt lat="43.69158" lon="1.46849">
        <ele>213.514003</ele>
        <time>2022-08-14T15:28:41.305Z</time>
      </trkpt>
      <trkpt lat="43.69161" lon="1.46836">
        <ele>213.385622</ele>
        <time>2022-08-14T15:28:43.279Z</time>
      </trkpt>
      <trkpt lat="43.69163" lon="1.46821">
        <ele>213.249893</ele>
        <time>2022-08-14T15:28:45.292Z</time>
      </trkpt>
      <trkpt lat="43.69164" lon="1.46806">
        <ele>213.108244</ele>
        <time>2022-08-14T15:28:47.282Z</time>
      </trkpt>
      <trkpt lat="43.69165" lon="1.4679">
        <ele>212.961629</ele>
        <time>2022-08-14T15:28:49.273Z</time>
      </trkpt>
      <trkpt lat="43.69165" lon="1.46775">
        <ele>212.822595</ele>
        <time>2022-08-14T15:28:51.276Z</time>
      </trkpt>
      <trkpt lat="43.69166" lon="1.4676">
        <ele>212.68735</ele>
        <time>2022-08-14T15:28:53.267Z</time>
      </trkpt>
      <trkpt lat="43.69165" lon="1.46745">
        <ele>212.860612</ele>
        <time>2022-08-14T15:28:55.300Z</time>
      </trkpt>
      <trkpt lat="43.69164" lon="1.4673">
        <ele>213.069891</ele>
        <time>2022-08-14T15:28:57.276Z</time>
      </trkpt>
      <trkpt lat="43.69161" lon="1.46715">
        <ele>213.278803</ele>
        <time>2022-08-14T15:28:59.265Z</time>
      </trkpt>
      <trkpt lat="43.69157" lon="1.467">
        <ele>213.493307</ele>
        <time>2022-08-14T15:29:01.288Z</time>
      </trkpt>
      <trkpt lat="43.69153" lon="1.46685">
        <ele>213.719433</ele>
        <time>2022-08-14T15:29:03.264Z</time>
      </trkpt>
      <trkpt lat="43.6915" lon="1.46668">
        <ele>213.949157</ele>
        <time>2022-08-14T15:29:05.290Z</time>
      </trkpt>
      <trkpt lat="43.69147" lon="1.46653">
        <ele>214.164608</ele>
        <time>2022-08-14T15:29:07.311Z</time>
      </trkpt>
      <trkpt lat="43.69143" lon="1.4664">
        <ele>214.363071</ele>
        <time>2022-08-14T15:29:09.288Z</time>
      </trkpt>
      <trkpt lat="43.69142" lon="1.46625">
        <ele>214.561516</ele>
        <time>2022-08-14T15:29:11.276Z</time>
      </trkpt>
      <trkpt lat="43.69139" lon="1.4661">
        <ele>214.7815</ele>
        <time>2022-08-14T15:29:14.275Z</time>
      </trkpt>
      <trkpt lat="43.69137" lon="1.46594">
        <ele>215.001495</ele>
        <time>2022-08-14T15:29:17.280Z</time>
      </trkpt>
      <trkpt lat="43.69128" lon="1.46583">
        <ele>215.227467</ele>
        <time>2022-08-14T15:29:20.266Z</time>
      </trkpt>
      <trkpt lat="43.69118" lon="1.46582">
        <ele>215.401589</ele>
        <time>2022-08-14T15:29:22.283Z</time>
      </trkpt>
      <trkpt lat="43.69108" lon="1.46582">
        <ele>215.596145</ele>
        <time>2022-08-14T15:29:26.278Z</time>
      </trkpt>
      <trkpt lat="43.69099" lon="1.46574">
        <ele>215.79116</ele>
        <time>2022-08-14T15:29:30.276Z</time>
      </trkpt>
      <trkpt lat="43.69089" lon="1.46573">
        <ele>215.984914</ele>
        <time>2022-08-14T15:29:35.286Z</time>
      </trkpt>
      <trkpt lat="43.6908" lon="1.46575">
        <ele>216.3804</ele>
        <time>2022-08-14T15:29:39.278Z</time>
      </trkpt>
      <trkpt lat="43.69072" lon="1.46567">
        <ele>216.947611</ele>
        <time>2022-08-14T15:29:43.277Z</time>
      </trkpt>
      <trkpt lat="43.69064" lon="1.46559">
        <ele>217.545598</ele>
        <time>2022-08-14T15:29:47.283Z</time>
      </trkpt>
      <trkpt lat="43.69053" lon="1.46559">
        <ele>218.209736</ele>
        <time>2022-08-14T15:29:51.287Z</time>
      </trkpt>
      <trkpt lat="43.69045" lon="1.46571">
        <ele>218.917203</ele>
        <time>2022-08-14T15:29:54.287Z</time>
      </trkpt>
      <trkpt lat="43.69037" lon="1.46582">
        <ele>219.627019</ele>
        <time>2022-08-14T15:29:57.282Z</time>
      </trkpt>
      <trkpt lat="43.69029" lon="1.46591">
        <ele>220.217417</ele>
        <time>2022-08-14T15:30:00.284Z</time>
      </trkpt>
      <trkpt lat="43.69022" lon="1.46599">
        <ele>220.792062</ele>
        <time>2022-08-14T15:30:03.307Z</time>
      </trkpt>
      <trkpt lat="43.69013" lon="1.4661">
        <ele>221.472046</ele>
        <time>2022-08-14T15:30:06.295Z</time>
      </trkpt>
      <trkpt lat="43.69005" lon="1.46621">
        <ele>222.189224</ele>
        <time>2022-08-14T15:30:09.251Z</time>
      </trkpt>
      <trkpt lat="43.68997" lon="1.4663">
        <ele>222.791684</ele>
        <time>2022-08-14T15:30:13.290Z</time>
      </trkpt>
      <trkpt lat="43.68988" lon="1.46633">
        <ele>223.337293</ele>
        <time>2022-08-14T15:30:17.266Z</time>
      </trkpt>
      <trkpt lat="43.68981" lon="1.4664">
        <ele>223.890437</ele>
        <time>2022-08-14T15:30:20.284Z</time>
      </trkpt>
      <trkpt lat="43.6897" lon="1.46644">
        <ele>224.560464</ele>
        <time>2022-08-14T15:30:24.282Z</time>
      </trkpt>
      <trkpt lat="43.68958" lon="1.46645">
        <ele>225.281156</ele>
        <time>2022-08-14T15:30:27.280Z</time>
      </trkpt>
      <trkpt lat="43.68951" lon="1.46638">
        <ele>225.829637</ele>
        <time>2022-08-14T15:30:30.292Z</time>
      </trkpt>
      <trkpt lat="43.68949" lon="1.46625">
        <ele>226.414368</ele>
        <time>2022-08-14T15:30:32.266Z</time>
      </trkpt>
      <trkpt lat="43.68949" lon="1.4661">
        <ele>226.797012</ele>
        <time>2022-08-14T15:30:35.271Z</time>
      </trkpt>
      <trkpt lat="43.6895" lon="1.46597">
        <ele>226.221888</ele>
        <time>2022-08-14T15:30:38.281Z</time>
      </trkpt>
      <trkpt lat="43.68961" lon="1.46591">
        <ele>225.538122</ele>
        <time>2022-08-14T15:30:41.292Z</time>
      </trkpt>
      <trkpt lat="43.68969" lon="1.46595">
        <ele>224.997307</ele>
        <time>2022-08-14T15:30:44.285Z</time>
      </trkpt>
      <trkpt lat="43.68981" lon="1.46588">
        <ele>224.212835</ele>
        <time>2022-08-14T15:30:47.274Z</time>
      </trkpt>
      <trkpt lat="43.68988" lon="1.46572">
        <ele>223.406779</ele>
        <time>2022-08-14T15:30:49.287Z</time>
      </trkpt>
      <trkpt lat="43.68994" lon="1.46555">
        <ele>222.597248</ele>
        <time>2022-08-14T15:30:51.277Z</time>
      </trkpt>
      <trkpt lat="43.68999" lon="1.46542">
        <ele>221.962595</ele>
        <time>2022-08-14T15:30:55.271Z</time>
      </trkpt>
      <trkpt lat="43.69007" lon="1.46529">
        <ele>221.237867</ele>
        <time>2022-08-14T15:30:59.277Z</time>
      </trkpt>
      <trkpt lat="43.69014" lon="1.4652">
        <ele>220.650358</ele>
        <time>2022-08-14T15:31:01.281Z</time>
      </trkpt>
      <trkpt lat="43.69021" lon="1.46511">
        <ele>220.053482</ele>
        <time>2022-08-14T15:31:03.266Z</time>
      </trkpt>
      <trkpt lat="43.69017" lon="1.46499">
        <ele>219.501285</ele>
        <time>2022-08-14T15:31:09.287Z</time>
      </trkpt>
      <trkpt lat="43.69004" lon="1.46494">
        <ele>218.684932</ele>
        <time>2022-08-14T15:31:12.286Z</time>
      </trkpt>
      <trkpt lat="43.68995" lon="1.46484">
        <ele>217.963168</ele>
        <time>2022-08-14T15:31:16.280Z</time>
      </trkpt>
      <trkpt lat="43.68985" lon="1.46479">
        <ele>217.325339</ele>
        <time>2022-08-14T15:31:19.266Z</time>
      </trkpt>
      <trkpt lat="43.68973" lon="1.46475">
        <ele>216.600424</ele>
        <time>2022-08-14T15:31:22.285Z</time>
      </trkpt>
      <trkpt lat="43.68963" lon="1.46474">
        <ele>216.023658</ele>
        <time>2022-08-14T15:31:24.273Z</time>
      </trkpt>
      <trkpt lat="43.68953" lon="1.46473">
        <ele>215.542631</ele>
        <time>2022-08-14T15:31:28.260Z</time>
      </trkpt>
      <trkpt lat="43.68946" lon="1.46465">
        <ele>215.08216</ele>
        <time>2022-08-14T15:31:31.272Z</time>
      </trkpt>
      <trkpt lat="43.68937" lon="1.46456">
        <ele>214.569168</ele>
        <time>2022-08-14T15:31:34.270Z</time>
      </trkpt>
      <trkpt lat="43.68932" lon="1.46446">
        <ele>214.122573</ele>
        <time>2022-08-14T15:31:37.275Z</time>
      </trkpt>
      <trkpt lat="43.68925" lon="1.46438">
        <ele>213.671524</ele>
        <time>2022-08-14T15:31:41.271Z</time>
      </trkpt>
      <trkpt lat="43.68915" lon="1.46425">
        <ele>213.011457</ele>
        <time>2022-08-14T15:31:51.277Z</time>
      </trkpt>
      <trkpt lat="43.68905" lon="1.4642">
        <ele>212.506835</ele>
        <time>2022-08-14T15:31:55.287Z</time>
      </trkpt>
      <trkpt lat="43.68893" lon="1.46418">
        <ele>211.938866</ele>
        <time>2022-08-14T15:32:03.280Z</time>
      </trkpt>
      <trkpt lat="43.68881" lon="1.4642">
        <ele>211.356159</ele>
        <time>2022-08-14T15:32:09.288Z</time>
      </trkpt>
      <trkpt lat="43.68879" lon="1.46404">
        <ele>210.800434</ele>
        <time>2022-08-14T15:32:19.251Z</time>
      </trkpt>
      <trkpt lat="43.68871" lon="1.46398">
        <ele>210.335479</ele>
        <time>2022-08-14T15:32:22.278Z</time>
      </trkpt>
      <trkpt lat="43.68861" lon="1.46394">
        <ele>209.84423</ele>
        <time>2022-08-14T15:32:24.272Z</time>
      </trkpt>
      <trkpt lat="43.68849" lon="1.46386">
        <ele>209.199032</ele>
        <time>2022-08-14T15:32:26.269Z</time>
      </trkpt>
      <trkpt lat="43.68838" lon="1.46377">
        <ele>208.576421</ele>
        <time>2022-08-14T15:32:28.273Z</time>
      </trkpt>
      <trkpt lat="43.68827" lon="1.4637">
        <ele>208.02075</ele>
        <time>2022-08-14T15:32:30.273Z</time>
      </trkpt>
      <trkpt lat="43.68817" lon="1.46368">
        <ele>207.519039</ele>
        <time>2022-08-14T15:32:32.291Z</time>
      </trkpt>
      <trkpt lat="43.68808" lon="1.46368">
        <ele>207.260392</ele>
        <time>2022-08-14T15:32:34.282Z</time>
      </trkpt>
      <trkpt lat="43.68795" lon="1.46365">
        <ele>207.017444</ele>
        <time>2022-08-14T15:32:37.304Z</time>
      </trkpt>
      <trkpt lat="43.68783" lon="1.46361">
        <ele>206.786624</ele>
        <time>2022-08-14T15:32:40.296Z</time>
      </trkpt>
      <trkpt lat="43.6876" lon="1.4635">
        <ele>206.329146</ele>
        <time>2022-08-14T15:33:15.284Z</time>
      </trkpt>
      <trkpt lat="43.68749" lon="1.46346">
        <ele>206.110748</ele>
        <time>2022-08-14T15:33:18.282Z</time>
      </trkpt>
      <trkpt lat="43.6874" lon="1.46344">
        <ele>205.938985</ele>
        <time>2022-08-14T15:33:20.293Z</time>
      </trkpt>
      <trkpt lat="43.68729" lon="1.46339">
        <ele>205.736914</ele>
        <time>2022-08-14T15:33:22.279Z</time>
      </trkpt>
      <trkpt lat="43.68717" lon="1.46335">
        <ele>205.506093</ele>
        <time>2022-08-14T15:33:24.286Z</time>
      </trkpt>
      <trkpt lat="43.68705" lon="1.46332">
        <ele>205.264393</ele>
        <time>2022-08-14T15:33:26.292Z</time>
      </trkpt>
      <trkpt lat="43.68692" lon="1.46331">
        <ele>205.024915</ele>
        <time>2022-08-14T15:33:28.285Z</time>
      </trkpt>
      <trkpt lat="43.68681" lon="1.46322">
        <ele>204.793628</ele>
        <time>2022-08-14T15:33:30.282Z</time>
      </trkpt>
      <trkpt lat="43.68673" lon="1.46312">
        <ele>204.59268</ele>
        <time>2022-08-14T15:33:32.257Z</time>
      </trkpt>
      <trkpt lat="43.68663" lon="1.46307">
        <ele>204.402741</ele>
        <time>2022-08-14T15:33:34.285Z</time>
      </trkpt>
      <trkpt lat="43.68654" lon="1.46305">
        <ele>204.21846</ele>
        <time>2022-08-14T15:33:36.286Z</time>
      </trkpt>
      <trkpt lat="43.68643" lon="1.46308">
        <ele>204.016076</ele>
        <time>2022-08-14T15:33:39.254Z</time>
      </trkpt>
      <trkpt lat="43.68634" lon="1.46299">
        <ele>203.942496</ele>
        <time>2022-08-14T15:33:43.270Z</time>
      </trkpt>
      <trkpt lat="43.68627" lon="1.46284">
        <ele>203.847353</ele>
        <time>2022-08-14T15:33:46.267Z</time>
      </trkpt>
      <trkpt lat="43.68614" lon="1.4628">
        <ele>203.757518</ele>
        <time>2022-08-14T15:33:49.267Z</time>
      </trkpt>
      <trkpt lat="43.68604" lon="1.46279">
        <ele>203.685455</ele>
        <time>2022-08-14T15:33:51.279Z</time>
      </trkpt>
      <trkpt lat="43.68594" lon="1.46275">
        <ele>203.610226</ele>
        <time>2022-08-14T15:33:53.273Z</time>
      </trkpt>
      <trkpt lat="43.68586" lon="1.46269">
        <ele>203.539973</ele>
        <time>2022-08-14T15:33:55.278Z</time>
      </trkpt>
      <trkpt lat="43.68575" lon="1.46261">
        <ele>203.454597</ele>
        <time>2022-08-14T15:33:58.267Z</time>
      </trkpt>
      <trkpt lat="43.68566" lon="1.46264">
        <ele>203.387513</ele>
        <time>2022-08-14T15:34:01.279Z</time>
      </trkpt>
      <trkpt lat="43.68556" lon="1.46269">
        <ele>203.31134</ele>
        <time>2022-08-14T15:34:04.298Z</time>
      </trkpt>
      <trkpt lat="43.68543" lon="1.46267">
        <ele>203.210776</ele>
        <time>2022-08-14T15:34:07.274Z</time>
      </trkpt>
      <trkpt lat="43.68532" lon="1.46269">
        <ele>203.133924</ele>
        <time>2022-08-14T15:34:09.270Z</time>
      </trkpt>
      <trkpt lat="43.68522" lon="1.46273">
        <ele>203.058848</ele>
        <time>2022-08-14T15:34:11.288Z</time>
      </trkpt>
      <trkpt lat="43.68497" lon="1.46275">
        <ele>202.876914</ele>
        <time>2022-08-14T15:34:48.279Z</time>
      </trkpt>
      <trkpt lat="43.68485" lon="1.46271">
        <ele>202.788362</ele>
        <time>2022-08-14T15:34:50.263Z</time>
      </trkpt>
      <trkpt lat="43.68474" lon="1.46261">
        <ele>202.772798</ele>
        <time>2022-08-14T15:34:52.264Z</time>
      </trkpt>
      <trkpt lat="43.68465" lon="1.46249">
        <ele>202.905119</ele>
        <time>2022-08-14T15:34:54.271Z</time>
      </trkpt>
      <trkpt lat="43.68458" lon="1.46238">
        <ele>203.020397</ele>
        <time>2022-08-14T15:34:56.274Z</time>
      </trkpt>
      <trkpt lat="43.68446" lon="1.46242">
        <ele>203.149245</ele>
        <time>2022-08-14T15:34:59.262Z</time>
      </trkpt>
      <trkpt lat="43.68441" lon="1.46251">
        <ele>203.244828</ele>
        <time>2022-08-14T15:35:01.273Z</time>
      </trkpt>
      <trkpt lat="43.68435" lon="1.46265">
        <ele>203.362446</ele>
        <time>2022-08-14T15:35:04.270Z</time>
      </trkpt>
      <trkpt lat="43.68425" lon="1.46267">
        <ele>203.469224</ele>
        <time>2022-08-14T15:35:08.273Z</time>
      </trkpt>
      <trkpt lat="43.68415" lon="1.46264">
        <ele>203.578919</ele>
        <time>2022-08-14T15:35:13.257Z</time>
      </trkpt>
      <trkpt lat="43.68405" lon="1.46264">
        <ele>203.687638</ele>
        <time>2022-08-14T15:35:19.275Z</time>
      </trkpt>
      <trkpt lat="43.68396" lon="1.46264">
        <ele>203.784556</ele>
        <time>2022-08-14T15:35:23.262Z</time>
      </trkpt>
      <trkpt lat="43.68387" lon="1.46264">
        <ele>203.880474</ele>
        <time>2022-08-14T15:35:27.292Z</time>
      </trkpt>
      <trkpt lat="43.68378" lon="1.46262">
        <ele>203.977342</ele>
        <time>2022-08-14T15:35:30.281Z</time>
      </trkpt>
      <trkpt lat="43.68369" lon="1.46255">
        <ele>204.08858</ele>
        <time>2022-08-14T15:35:33.265Z</time>
      </trkpt>
      <trkpt lat="43.68359" lon="1.46245">
        <ele>204.223701</ele>
        <time>2022-08-14T15:35:36.266Z</time>
      </trkpt>
      <trkpt lat="43.68351" lon="1.46232">
        <ele>204.349375</ele>
        <time>2022-08-14T15:35:39.269Z</time>
      </trkpt>
      <trkpt lat="43.68342" lon="1.46221">
        <ele>204.478313</ele>
        <time>2022-08-14T15:35:42.270Z</time>
      </trkpt>
      <trkpt lat="43.68335" lon="1.46208">
        <ele>204.600257</ele>
        <time>2022-08-14T15:35:45.284Z</time>
      </trkpt>
      <trkpt lat="43.68328" lon="1.46196">
        <ele>204.391575</ele>
        <time>2022-08-14T15:35:48.274Z</time>
      </trkpt>
      <trkpt lat="43.6832" lon="1.46183">
        <ele>204.005737</ele>
        <time>2022-08-14T15:35:51.286Z</time>
      </trkpt>
      <trkpt lat="43.68313" lon="1.4617">
        <ele>203.617028</ele>
        <time>2022-08-14T15:35:54.274Z</time>
      </trkpt>
      <trkpt lat="43.68306" lon="1.46158">
        <ele>203.237925</ele>
        <time>2022-08-14T15:35:57.274Z</time>
      </trkpt>
      <trkpt lat="43.68299" lon="1.46145">
        <ele>202.868694</ele>
        <time>2022-08-14T15:36:00.286Z</time>
      </trkpt>
      <trkpt lat="43.68291" lon="1.46135">
        <ele>202.529468</ele>
        <time>2022-08-14T15:36:03.264Z</time>
      </trkpt>
      <trkpt lat="43.68284" lon="1.46124">
        <ele>202.164093</ele>
        <time>2022-08-14T15:36:07.286Z</time>
      </trkpt>
      <trkpt lat="43.68282" lon="1.46108">
        <ele>201.778533</ele>
        <time>2022-08-14T15:36:11.276Z</time>
      </trkpt>
      <trkpt lat="43.6828" lon="1.46091">
        <ele>201.3776</ele>
        <time>2022-08-14T15:36:14.277Z</time>
      </trkpt>
      <trkpt lat="43.68279" lon="1.46078">
        <ele>201.061576</ele>
        <time>2022-08-14T15:36:16.287Z</time>
      </trkpt>
      <trkpt lat="43.68279" lon="1.46063">
        <ele>200.709282</ele>
        <time>2022-08-14T15:36:18.283Z</time>
      </trkpt>
      <trkpt lat="43.68277" lon="1.46047">
        <ele>200.320501</ele>
        <time>2022-08-14T15:36:20.281Z</time>
      </trkpt>
      <trkpt lat="43.68273" lon="1.46029">
        <ele>199.900058</ele>
        <time>2022-08-14T15:36:22.263Z</time>
      </trkpt>
      <trkpt lat="43.68268" lon="1.46011">
        <ele>199.446016</ele>
        <time>2022-08-14T15:36:24.279Z</time>
      </trkpt>
      <trkpt lat="43.68265" lon="1.45992">
        <ele>198.964044</ele>
        <time>2022-08-14T15:36:26.280Z</time>
      </trkpt>
      <trkpt lat="43.68264" lon="1.4597">
        <ele>198.415624</ele>
        <time>2022-08-14T15:36:28.277Z</time>
      </trkpt>
      <trkpt lat="43.68265" lon="1.4595">
        <ele>197.848737</ele>
        <time>2022-08-14T15:36:30.268Z</time>
      </trkpt>
      <trkpt lat="43.68267" lon="1.4593">
        <ele>197.297519</ele>
        <time>2022-08-14T15:36:32.269Z</time>
      </trkpt>
      <trkpt lat="43.68269" lon="1.45913">
        <ele>196.842034</ele>
        <time>2022-08-14T15:36:34.301Z</time>
      </trkpt>
      <trkpt lat="43.68269" lon="1.459">
        <ele>196.496921</ele>
        <time>2022-08-14T15:36:37.276Z</time>
      </trkpt>
      <trkpt lat="43.68269" lon="1.45886">
        <ele>196.121328</ele>
        <time>2022-08-14T15:36:41.258Z</time>
      </trkpt>
      <trkpt lat="43.68269" lon="1.45871">
        <ele>195.689098</ele>
        <time>2022-08-14T15:36:44.294Z</time>
      </trkpt>
      <trkpt lat="43.6827" lon="1.45856">
        <ele>195.296082</ele>
        <time>2022-08-14T15:36:46.257Z</time>
      </trkpt>
      <trkpt lat="43.68271" lon="1.45841">
        <ele>194.870917</ele>
        <time>2022-08-14T15:36:48.272Z</time>
      </trkpt>
      <trkpt lat="43.68272" lon="1.45825">
        <ele>194.440337</ele>
        <time>2022-08-14T15:36:50.273Z</time>
      </trkpt>
      <trkpt lat="43.68273" lon="1.45809">
        <ele>193.997087</ele>
        <time>2022-08-14T15:36:52.275Z</time>
      </trkpt>
      <trkpt lat="43.68274" lon="1.45792">
        <ele>193.553853</ele>
        <time>2022-08-14T15:36:54.280Z</time>
      </trkpt>
      <trkpt lat="43.68274" lon="1.45777">
        <ele>193.126724</ele>
        <time>2022-08-14T15:36:56.271Z</time>
      </trkpt>
      <trkpt lat="43.68276" lon="1.45761">
        <ele>192.700515</ele>
        <time>2022-08-14T15:36:58.268Z</time>
      </trkpt>
      <trkpt lat="43.68276" lon="1.45745">
        <ele>192.254188</ele>
        <time>2022-08-14T15:37:00.283Z</time>
      </trkpt>
      <trkpt lat="43.68277" lon="1.45728">
        <ele>191.936067</ele>
        <time>2022-08-14T15:37:02.273Z</time>
      </trkpt>
      <trkpt lat="43.68278" lon="1.45711">
        <ele>191.77363</ele>
        <time>2022-08-14T15:37:04.268Z</time>
      </trkpt>
      <trkpt lat="43.68279" lon="1.45695">
        <ele>191.612622</ele>
        <time>2022-08-14T15:37:06.256Z</time>
      </trkpt>
      <trkpt lat="43.68279" lon="1.45678">
        <ele>191.450015</ele>
        <time>2022-08-14T15:37:08.270Z</time>
      </trkpt>
      <trkpt lat="43.68278" lon="1.45662">
        <ele>191.289658</ele>
        <time>2022-08-14T15:37:10.268Z</time>
      </trkpt>
      <trkpt lat="43.68276" lon="1.45646">
        <ele>191.129313</ele>
        <time>2022-08-14T15:37:12.274Z</time>
      </trkpt>
      <trkpt lat="43.68274" lon="1.4563">
        <ele>190.969523</ele>
        <time>2022-08-14T15:37:14.263Z</time>
      </trkpt>
      <trkpt lat="43.68272" lon="1.45614">
        <ele>190.812697</ele>
        <time>2022-08-14T15:37:16.255Z</time>
      </trkpt>
      <trkpt lat="43.68269" lon="1.45599">
        <ele>190.658363</ele>
        <time>2022-08-14T15:37:18.254Z</time>
      </trkpt>
      <trkpt lat="43.68265" lon="1.45584">
        <ele>190.50291</ele>
        <time>2022-08-14T15:37:20.266Z</time>
      </trkpt>
      <trkpt lat="43.68262" lon="1.45569">
        <ele>190.347062</ele>
        <time>2022-08-14T15:37:22.255Z</time>
      </trkpt>
      <trkpt lat="43.68258" lon="1.45553">
        <ele>190.188941</ele>
        <time>2022-08-14T15:37:24.248Z</time>
      </trkpt>
      <trkpt lat="43.68254" lon="1.45538">
        <ele>190.030035</ele>
        <time>2022-08-14T15:37:26.268Z</time>
      </trkpt>
      <trkpt lat="43.68251" lon="1.45522">
        <ele>189.87108</ele>
        <time>2022-08-14T15:37:28.258Z</time>
      </trkpt>
      <trkpt lat="43.68246" lon="1.45507">
        <ele>189.710706</ele>
        <time>2022-08-14T15:37:30.254Z</time>
      </trkpt>
      <trkpt lat="43.68242" lon="1.45492">
        <ele>189.575655</ele>
        <time>2022-08-14T15:37:32.255Z</time>
      </trkpt>
      <trkpt lat="43.68238" lon="1.45477">
        <ele>189.55936</ele>
        <time>2022-08-14T15:37:34.264Z</time>
      </trkpt>
      <trkpt lat="43.68233" lon="1.45461">
        <ele>189.542922</ele>
        <time>2022-08-14T15:37:36.265Z</time>
      </trkpt>
      <trkpt lat="43.68228" lon="1.45446">
        <ele>189.526936</ele>
        <time>2022-08-14T15:37:38.258Z</time>
      </trkpt>
      <trkpt lat="43.68223" lon="1.45432">
        <ele>189.511519</ele>
        <time>2022-08-14T15:37:40.258Z</time>
      </trkpt>
      <trkpt lat="43.68219" lon="1.45418">
        <ele>189.496289</ele>
        <time>2022-08-14T15:37:42.259Z</time>
      </trkpt>
      <trkpt lat="43.68216" lon="1.45403">
        <ele>189.48072</ele>
        <time>2022-08-14T15:37:44.256Z</time>
      </trkpt>
      <trkpt lat="43.68212" lon="1.45387">
        <ele>189.464617</ele>
        <time>2022-08-14T15:37:46.264Z</time>
      </trkpt>
      <trkpt lat="43.68209" lon="1.45373">
        <ele>189.449439</ele>
        <time>2022-08-14T15:37:48.261Z</time>
      </trkpt>
      <trkpt lat="43.68205" lon="1.45357">
        <ele>189.433282</ele>
        <time>2022-08-14T15:37:50.266Z</time>
      </trkpt>
      <trkpt lat="43.68201" lon="1.45342">
        <ele>189.417744</ele>
        <time>2022-08-14T15:37:52.252Z</time>
      </trkpt>
      <trkpt lat="43.68197" lon="1.45327">
        <ele>189.402114</ele>
        <time>2022-08-14T15:37:54.263Z</time>
      </trkpt>
      <trkpt lat="43.68193" lon="1.45312">
        <ele>189.386298</ele>
        <time>2022-08-14T15:37:56.257Z</time>
      </trkpt>
      <trkpt lat="43.6819" lon="1.45297">
        <ele>189.370848</ele>
        <time>2022-08-14T15:37:58.267Z</time>
      </trkpt>
      <trkpt lat="43.68186" lon="1.45282">
        <ele>189.355262</ele>
        <time>2022-08-14T15:38:00.262Z</time>
      </trkpt>
      <trkpt lat="43.68181" lon="1.45268">
        <ele>189.339941</ele>
        <time>2022-08-14T15:38:02.262Z</time>
      </trkpt>
      <trkpt lat="43.68178" lon="1.45253">
        <ele>189.327876</ele>
        <time>2022-08-14T15:38:04.255Z</time>
      </trkpt>
      <trkpt lat="43.68175" lon="1.45239">
        <ele>189.31824</ele>
        <time>2022-08-14T15:38:06.278Z</time>
      </trkpt>
      <trkpt lat="43.68172" lon="1.45227">
        <ele>189.309674</ele>
        <time>2022-08-14T15:38:08.258Z</time>
      </trkpt>
      <trkpt lat="43.68169" lon="1.45215">
        <ele>189.301236</ele>
        <time>2022-08-14T15:38:10.292Z</time>
      </trkpt>
      <trkpt lat="43.68163" lon="1.45201">
        <ele>189.29084</ele>
        <time>2022-08-14T15:38:13.290Z</time>
      </trkpt>
      <trkpt lat="43.68153" lon="1.45205">
        <ele>189.282071</ele>
        <time>2022-08-14T15:38:15.271Z</time>
      </trkpt>
      <trkpt lat="43.68145" lon="1.45213">
        <ele>189.272719</ele>
        <time>2022-08-14T15:38:17.276Z</time>
      </trkpt>
      <trkpt lat="43.68137" lon="1.45222">
        <ele>189.263576</ele>
        <time>2022-08-14T15:38:19.272Z</time>
      </trkpt>
      <trkpt lat="43.68128" lon="1.4523">
        <ele>189.253887</ele>
        <time>2022-08-14T15:38:21.277Z</time>
      </trkpt>
      <trkpt lat="43.68119" lon="1.45239">
        <ele>189.244194</ele>
        <time>2022-08-14T15:38:23.297Z</time>
      </trkpt>
      <trkpt lat="43.6811" lon="1.45247">
        <ele>189.234212</ele>
        <time>2022-08-14T15:38:25.275Z</time>
      </trkpt>
      <trkpt lat="43.68101" lon="1.45257">
        <ele>189.223856</ele>
        <time>2022-08-14T15:38:27.278Z</time>
      </trkpt>
      <trkpt lat="43.68091" lon="1.45265">
        <ele>189.213195</ele>
        <time>2022-08-14T15:38:29.245Z</time>
      </trkpt>
      <trkpt lat="43.68081" lon="1.45274">
        <ele>189.202429</ele>
        <time>2022-08-14T15:38:31.275Z</time>
      </trkpt>
      <trkpt lat="43.68071" lon="1.45283">
        <ele>189.191889</ele>
        <time>2022-08-14T15:38:33.297Z</time>
      </trkpt>
      <trkpt lat="43.68061" lon="1.45292">
        <ele>189.181476</ele>
        <time>2022-08-14T15:38:35.265Z</time>
      </trkpt>
      <trkpt lat="43.68052" lon="1.453">
        <ele>189.171394</ele>
        <time>2022-08-14T15:38:37.302Z</time>
      </trkpt>
      <trkpt lat="43.68043" lon="1.45309">
        <ele>189.157607</ele>
        <time>2022-08-14T15:38:39.272Z</time>
      </trkpt>
      <trkpt lat="43.68033" lon="1.45317">
        <ele>189.143233</ele>
        <time>2022-08-14T15:38:41.259Z</time>
      </trkpt>
      <trkpt lat="43.68023" lon="1.45325">
        <ele>189.128976</ele>
        <time>2022-08-14T15:38:43.277Z</time>
      </trkpt>
      <trkpt lat="43.68013" lon="1.45332">
        <ele>189.114891</ele>
        <time>2022-08-14T15:38:45.283Z</time>
      </trkpt>
      <trkpt lat="43.68003" lon="1.4534">
        <ele>189.100762</ele>
        <time>2022-08-14T15:38:47.278Z</time>
      </trkpt>
      <trkpt lat="43.67993" lon="1.45347">
        <ele>189.086525</ele>
        <time>2022-08-14T15:38:49.284Z</time>
      </trkpt>
      <trkpt lat="43.67982" lon="1.45354">
        <ele>189.072045</ele>
        <time>2022-08-14T15:38:51.275Z</time>
      </trkpt>
      <trkpt lat="43.67973" lon="1.45364">
        <ele>189.057426</ele>
        <time>2022-08-14T15:38:53.287Z</time>
      </trkpt>
      <trkpt lat="43.67963" lon="1.4537">
        <ele>189.043625</ele>
        <time>2022-08-14T15:38:55.271Z</time>
      </trkpt>
      <trkpt lat="43.67953" lon="1.45376">
        <ele>189.029872</ele>
        <time>2022-08-14T15:38:57.279Z</time>
      </trkpt>
      <trkpt lat="43.67942" lon="1.4538">
        <ele>189.016244</ele>
        <time>2022-08-14T15:38:59.284Z</time>
      </trkpt>
      <trkpt lat="43.67933" lon="1.45385">
        <ele>189.003731</ele>
        <time>2022-08-14T15:39:01.284Z</time>
      </trkpt>
      <trkpt lat="43.67923" lon="1.45389">
        <ele>188.991673</ele>
        <time>2022-08-14T15:39:03.289Z</time>
      </trkpt>
      <trkpt lat="43.67913" lon="1.45393">
        <ele>188.978178</ele>
        <time>2022-08-14T15:39:05.267Z</time>
      </trkpt>
      <trkpt lat="43.67903" lon="1.454">
        <ele>188.963954</ele>
        <time>2022-08-14T15:39:07.261Z</time>
      </trkpt>
      <trkpt lat="43.67893" lon="1.45408">
        <ele>188.949609</ele>
        <time>2022-08-14T15:39:09.279Z</time>
      </trkpt>
      <trkpt lat="43.67883" lon="1.45417">
        <ele>188.904513</ele>
        <time>2022-08-14T15:39:11.270Z</time>
      </trkpt>
      <trkpt lat="43.67873" lon="1.45425">
        <ele>188.854569</ele>
        <time>2022-08-14T15:39:13.270Z</time>
      </trkpt>
      <trkpt lat="43.67862" lon="1.45432">
        <ele>188.803873</ele>
        <time>2022-08-14T15:39:15.283Z</time>
      </trkpt>
      <trkpt lat="43.67851" lon="1.45438">
        <ele>188.753514</ele>
        <time>2022-08-14T15:39:17.277Z</time>
      </trkpt>
      <trkpt lat="43.6784" lon="1.45436">
        <ele>188.705247</ele>
        <time>2022-08-14T15:39:19.306Z</time>
      </trkpt>
      <trkpt lat="43.6783" lon="1.45427">
        <ele>188.653849</ele>
        <time>2022-08-14T15:39:21.297Z</time>
      </trkpt>
      <trkpt lat="43.6782" lon="1.45419">
        <ele>188.603591</ele>
        <time>2022-08-14T15:39:23.282Z</time>
      </trkpt>
      <trkpt lat="43.6781" lon="1.45411">
        <ele>188.552532</ele>
        <time>2022-08-14T15:39:25.282Z</time>
      </trkpt>
      <trkpt lat="43.67799" lon="1.45402">
        <ele>188.501223</ele>
        <time>2022-08-14T15:39:27.312Z</time>
      </trkpt>
      <trkpt lat="43.67789" lon="1.45395">
        <ele>188.449767</ele>
        <time>2022-08-14T15:39:29.281Z</time>
      </trkpt>
      <trkpt lat="43.67778" lon="1.45387">
        <ele>188.399973</ele>
        <time>2022-08-14T15:39:31.324Z</time>
      </trkpt>
      <trkpt lat="43.67768" lon="1.4538">
        <ele>188.350786</ele>
        <time>2022-08-14T15:39:33.291Z</time>
      </trkpt>
      <trkpt lat="43.67758" lon="1.45371">
        <ele>188.299946</ele>
        <time>2022-08-14T15:39:35.284Z</time>
      </trkpt>
      <trkpt lat="43.67748" lon="1.45363">
        <ele>188.249259</ele>
        <time>2022-08-14T15:39:37.271Z</time>
      </trkpt>
      <trkpt lat="43.67738" lon="1.45355">
        <ele>188.199774</ele>
        <time>2022-08-14T15:39:39.254Z</time>
      </trkpt>
      <trkpt lat="43.67728" lon="1.45347">
        <ele>188.194521</ele>
        <time>2022-08-14T15:39:41.263Z</time>
      </trkpt>
      <trkpt lat="43.67718" lon="1.45339">
        <ele>188.223367</ele>
        <time>2022-08-14T15:39:43.265Z</time>
      </trkpt>
      <trkpt lat="43.67708" lon="1.45332">
        <ele>188.251489</ele>
        <time>2022-08-14T15:39:45.261Z</time>
      </trkpt>
      <trkpt lat="43.67697" lon="1.45328">
        <ele>188.278883</ele>
        <time>2022-08-14T15:39:47.282Z</time>
      </trkpt>
      <trkpt lat="43.67687" lon="1.45325">
        <ele>188.306719</ele>
        <time>2022-08-14T15:39:49.257Z</time>
      </trkpt>
      <trkpt lat="43.67676" lon="1.45322">
        <ele>188.333855</ele>
        <time>2022-08-14T15:39:51.273Z</time>
      </trkpt>
      <trkpt lat="43.67665" lon="1.4532">
        <ele>188.362081</ele>
        <time>2022-08-14T15:39:53.271Z</time>
      </trkpt>
      <trkpt lat="43.67654" lon="1.45318">
        <ele>188.389783</ele>
        <time>2022-08-14T15:39:55.290Z</time>
      </trkpt>
      <trkpt lat="43.67643" lon="1.45317">
        <ele>188.417377</ele>
        <time>2022-08-14T15:39:57.303Z</time>
      </trkpt>
      <trkpt lat="43.67632" lon="1.45317">
        <ele>188.44438</ele>
        <time>2022-08-14T15:39:59.273Z</time>
      </trkpt>
      <trkpt lat="43.67622" lon="1.45317">
        <ele>188.471131</ele>
        <time>2022-08-14T15:40:01.301Z</time>
      </trkpt>
      <trkpt lat="43.67612" lon="1.45316">
        <ele>188.497175</ele>
        <time>2022-08-14T15:40:03.273Z</time>
      </trkpt>
      <trkpt lat="43.67602" lon="1.45317">
        <ele>188.521913</ele>
        <time>2022-08-14T15:40:05.268Z</time>
      </trkpt>
      <trkpt lat="43.67591" lon="1.4532">
        <ele>188.548768</ele>
        <time>2022-08-14T15:40:07.262Z</time>
      </trkpt>
      <trkpt lat="43.6758" lon="1.45325">
        <ele>188.578895</ele>
        <time>2022-08-14T15:40:09.282Z</time>
      </trkpt>
      <trkpt lat="43.6757" lon="1.45333">
        <ele>188.609018</ele>
        <time>2022-08-14T15:40:11.282Z</time>
      </trkpt>
      <trkpt lat="43.6756" lon="1.45341">
        <ele>188.621596</ele>
        <time>2022-08-14T15:40:13.275Z</time>
      </trkpt>
      <trkpt lat="43.6755" lon="1.45349">
        <ele>188.570401</ele>
        <time>2022-08-14T15:40:15.293Z</time>
      </trkpt>
      <trkpt lat="43.67539" lon="1.45357">
        <ele>188.517436</ele>
        <time>2022-08-14T15:40:17.278Z</time>
      </trkpt>
      <trkpt lat="43.67529" lon="1.45364">
        <ele>188.467698</ele>
        <time>2022-08-14T15:40:19.270Z</time>
      </trkpt>
      <trkpt lat="43.67519" lon="1.45369">
        <ele>188.418143</ele>
        <time>2022-08-14T15:40:21.319Z</time>
      </trkpt>
      <trkpt lat="43.67509" lon="1.45375">
        <ele>188.370982</ele>
        <time>2022-08-14T15:40:23.308Z</time>
      </trkpt>
      <trkpt lat="43.675" lon="1.45382">
        <ele>188.324381</ele>
        <time>2022-08-14T15:40:25.257Z</time>
      </trkpt>
      <trkpt lat="43.67491" lon="1.45387">
        <ele>188.280317</ele>
        <time>2022-08-14T15:40:27.278Z</time>
      </trkpt>
      <trkpt lat="43.67482" lon="1.45381">
        <ele>188.237191</ele>
        <time>2022-08-14T15:40:29.250Z</time>
      </trkpt>
      <trkpt lat="43.67474" lon="1.45373">
        <ele>188.191791</ele>
        <time>2022-08-14T15:40:31.274Z</time>
      </trkpt>
      <trkpt lat="43.67466" lon="1.45364">
        <ele>188.14576</ele>
        <time>2022-08-14T15:40:33.269Z</time>
      </trkpt>
      <trkpt lat="43.67462" lon="1.45349">
        <ele>188.094848</ele>
        <time>2022-08-14T15:40:35.266Z</time>
      </trkpt>
      <trkpt lat="43.67456" lon="1.45334">
        <ele>188.042079</ele>
        <time>2022-08-14T15:40:37.270Z</time>
      </trkpt>
      <trkpt lat="43.67451" lon="1.45319">
        <ele>187.987857</ele>
        <time>2022-08-14T15:40:39.259Z</time>
      </trkpt>
      <trkpt lat="43.67446" lon="1.45303">
        <ele>187.931995</ele>
        <time>2022-08-14T15:40:41.267Z</time>
      </trkpt>
      <trkpt lat="43.6744" lon="1.45288">
        <ele>187.876751</ele>
        <time>2022-08-14T15:40:43.267Z</time>
      </trkpt>
      <trkpt lat="43.67435" lon="1.45273">
        <ele>187.83264</ele>
        <time>2022-08-14T15:40:45.279Z</time>
      </trkpt>
      <trkpt lat="43.67426" lon="1.45265">
        <ele>187.839307</ele>
        <time>2022-08-14T15:40:47.272Z</time>
      </trkpt>
      <trkpt lat="43.67417" lon="1.45275">
        <ele>187.846909</ele>
        <time>2022-08-14T15:40:49.255Z</time>
      </trkpt>
      <trkpt lat="43.67406" lon="1.45282">
        <ele>187.854498</ele>
        <time>2022-08-14T15:40:51.272Z</time>
      </trkpt>
      <trkpt lat="43.67395" lon="1.4529">
        <ele>187.86218</ele>
        <time>2022-08-14T15:40:53.282Z</time>
      </trkpt>
      <trkpt lat="43.67384" lon="1.45297">
        <ele>187.869899</ele>
        <time>2022-08-14T15:40:55.253Z</time>
      </trkpt>
      <trkpt lat="43.67373" lon="1.45303">
        <ele>187.87802</ele>
        <time>2022-08-14T15:40:57.254Z</time>
      </trkpt>
      <trkpt lat="43.6736" lon="1.45304">
        <ele>187.885931</ele>
        <time>2022-08-14T15:40:59.252Z</time>
      </trkpt>
      <trkpt lat="43.67348" lon="1.45302">
        <ele>187.893715</ele>
        <time>2022-08-14T15:41:01.265Z</time>
      </trkpt>
      <trkpt lat="43.67336" lon="1.45299">
        <ele>187.901299</ele>
        <time>2022-08-14T15:41:03.247Z</time>
      </trkpt>
      <trkpt lat="43.67325" lon="1.45296">
        <ele>187.908718</ele>
        <time>2022-08-14T15:41:05.236Z</time>
      </trkpt>
      <trkpt lat="43.67314" lon="1.45297">
        <ele>187.915923</ele>
        <time>2022-08-14T15:41:07.255Z</time>
      </trkpt>
      <trkpt lat="43.67303" lon="1.45301">
        <ele>187.923208</ele>
        <time>2022-08-14T15:41:09.254Z</time>
      </trkpt>
      <trkpt lat="43.67292" lon="1.45307">
        <ele>187.930414</ele>
        <time>2022-08-14T15:41:11.255Z</time>
      </trkpt>
      <trkpt lat="43.67282" lon="1.45313">
        <ele>187.937225</ele>
        <time>2022-08-14T15:41:13.266Z</time>
      </trkpt>
      <trkpt lat="43.6727" lon="1.45316">
        <ele>187.945114</ele>
        <time>2022-08-14T15:41:16.259Z</time>
      </trkpt>
      <trkpt lat="43.67259" lon="1.45321">
        <ele>187.850675</ele>
        <time>2022-08-14T15:41:19.271Z</time>
      </trkpt>
      <trkpt lat="43.67253" lon="1.45333">
        <ele>187.75949</ele>
        <time>2022-08-14T15:41:21.278Z</time>
      </trkpt>
      <trkpt lat="43.67246" lon="1.45344">
        <ele>187.658559</ele>
        <time>2022-08-14T15:41:23.272Z</time>
      </trkpt>
      <trkpt lat="43.67236" lon="1.45352">
        <ele>187.547535</ele>
        <time>2022-08-14T15:41:25.263Z</time>
      </trkpt>
      <trkpt lat="43.67225" lon="1.45356">
        <ele>187.443237</ele>
        <time>2022-08-14T15:41:27.261Z</time>
      </trkpt>
      <trkpt lat="43.67215" lon="1.45366">
        <ele>187.324859</ele>
        <time>2022-08-14T15:41:30.278Z</time>
      </trkpt>
      <trkpt lat="43.67205" lon="1.45375">
        <ele>187.221054</ele>
        <time>2022-08-14T15:41:33.256Z</time>
      </trkpt>
      <trkpt lat="43.67196" lon="1.4538">
        <ele>187.128294</ele>
        <time>2022-08-14T15:41:39.259Z</time>
      </trkpt>
      <trkpt lat="43.67201" lon="1.45395">
        <ele>187.019789</ele>
        <time>2022-08-14T15:41:46.257Z</time>
      </trkpt>
      <trkpt lat="43.6721" lon="1.45409">
        <ele>186.897743</ele>
        <time>2022-08-14T15:41:49.282Z</time>
      </trkpt>
      <trkpt lat="43.67216" lon="1.45419">
        <ele>186.806681</ele>
        <time>2022-08-14T15:41:51.255Z</time>
      </trkpt>
      <trkpt lat="43.67223" lon="1.4543">
        <ele>186.710045</ele>
        <time>2022-08-14T15:41:53.265Z</time>
      </trkpt>
      <trkpt lat="43.67227" lon="1.45443">
        <ele>186.611675</ele>
        <time>2022-08-14T15:41:55.258Z</time>
      </trkpt>
      <trkpt lat="43.67222" lon="1.45456">
        <ele>186.514658</ele>
        <time>2022-08-14T15:41:57.275Z</time>
      </trkpt>
      <trkpt lat="43.67212" lon="1.45464">
        <ele>186.411612</ele>
        <time>2022-08-14T15:41:59.264Z</time>
      </trkpt>
      <trkpt lat="43.67202" lon="1.45472">
        <ele>186.298649</ele>
        <time>2022-08-14T15:42:01.250Z</time>
      </trkpt>
      <trkpt lat="43.67191" lon="1.4548">
        <ele>186.176369</ele>
        <time>2022-08-14T15:42:03.264Z</time>
      </trkpt>
      <trkpt lat="43.6718" lon="1.45488">
        <ele>186.054789</ele>
        <time>2022-08-14T15:42:05.277Z</time>
      </trkpt>
      <trkpt lat="43.67169" lon="1.45492">
        <ele>185.941783</ele>
        <time>2022-08-14T15:42:07.281Z</time>
      </trkpt>
      <trkpt lat="43.67159" lon="1.45483">
        <ele>185.827415</ele>
        <time>2022-08-14T15:42:09.281Z</time>
      </trkpt>
      <trkpt lat="43.6715" lon="1.45473">
        <ele>185.70893</ele>
        <time>2022-08-14T15:42:11.295Z</time>
      </trkpt>
      <trkpt lat="43.67139" lon="1.45466">
        <ele>185.592118</ele>
        <time>2022-08-14T15:42:13.275Z</time>
      </trkpt>
      <trkpt lat="43.67128" lon="1.4546">
        <ele>185.475571</ele>
        <time>2022-08-14T15:42:15.274Z</time>
      </trkpt>
      <trkpt lat="43.67117" lon="1.45458">
        <ele>185.359962</ele>
        <time>2022-08-14T15:42:17.298Z</time>
      </trkpt>
      <trkpt lat="43.67107" lon="1.45465">
        <ele>185.2457</ele>
        <time>2022-08-14T15:42:19.285Z</time>
      </trkpt>
      <trkpt lat="43.67098" lon="1.45476">
        <ele>185.125228</ele>
        <time>2022-08-14T15:42:21.265Z</time>
      </trkpt>
      <trkpt lat="43.67087" lon="1.45486">
        <ele>185.004242</ele>
        <time>2022-08-14T15:42:23.271Z</time>
      </trkpt>
      <trkpt lat="43.67076" lon="1.4549">
        <ele>184.884725</ele>
        <time>2022-08-14T15:42:25.267Z</time>
      </trkpt>
      <trkpt lat="43.67064" lon="1.45492">
        <ele>184.766485</ele>
        <time>2022-08-14T15:42:27.277Z</time>
      </trkpt>
      <trkpt lat="43.67052" lon="1.4549">
        <ele>184.648804</ele>
        <time>2022-08-14T15:42:29.280Z</time>
      </trkpt>
      <trkpt lat="43.67041" lon="1.45485">
        <ele>184.529287</ele>
        <time>2022-08-14T15:42:31.290Z</time>
      </trkpt>
      <trkpt lat="43.6703" lon="1.45479">
        <ele>184.455315</ele>
        <time>2022-08-14T15:42:33.279Z</time>
      </trkpt>
      <trkpt lat="43.67019" lon="1.45471">
        <ele>184.411127</ele>
        <time>2022-08-14T15:42:35.284Z</time>
      </trkpt>
      <trkpt lat="43.67011" lon="1.45459">
        <ele>184.367975</ele>
        <time>2022-08-14T15:42:37.281Z</time>
      </trkpt>
      <trkpt lat="43.67006" lon="1.45444">
        <ele>184.325758</ele>
        <time>2022-08-14T15:42:39.294Z</time>
      </trkpt>
      <trkpt lat="43.67002" lon="1.45429">
        <ele>184.283627</ele>
        <time>2022-08-14T15:42:41.286Z</time>
      </trkpt>
      <trkpt lat="43.66998" lon="1.45414">
        <ele>184.241481</ele>
        <time>2022-08-14T15:42:43.300Z</time>
      </trkpt>
      <trkpt lat="43.66993" lon="1.45399">
        <ele>184.199978</ele>
        <time>2022-08-14T15:42:45.300Z</time>
      </trkpt>
      <trkpt lat="43.66987" lon="1.45385">
        <ele>184.157754</ele>
        <time>2022-08-14T15:42:47.296Z</time>
      </trkpt>
      <trkpt lat="43.66979" lon="1.45373">
        <ele>184.11542</ele>
        <time>2022-08-14T15:42:49.299Z</time>
      </trkpt>
      <trkpt lat="43.66971" lon="1.45362">
        <ele>184.073958</ele>
        <time>2022-08-14T15:42:51.296Z</time>
      </trkpt>
      <trkpt lat="43.66963" lon="1.4535">
        <ele>184.031025</ele>
        <time>2022-08-14T15:42:53.280Z</time>
      </trkpt>
      <trkpt lat="43.66954" lon="1.45338">
        <ele>183.986968</ele>
        <time>2022-08-14T15:42:55.288Z</time>
      </trkpt>
      <trkpt lat="43.66946" lon="1.45325">
        <ele>183.943301</ele>
        <time>2022-08-14T15:42:57.292Z</time>
      </trkpt>
      <trkpt lat="43.66939" lon="1.45312">
        <ele>183.899531</ele>
        <time>2022-08-14T15:42:59.284Z</time>
      </trkpt>
      <trkpt lat="43.66933" lon="1.45297">
        <ele>183.855785</ele>
        <time>2022-08-14T15:43:01.299Z</time>
      </trkpt>
      <trkpt lat="43.66928" lon="1.45281">
        <ele>183.833209</ele>
        <time>2022-08-14T15:43:03.295Z</time>
      </trkpt>
      <trkpt lat="43.66926" lon="1.45265">
        <ele>183.834179</ele>
        <time>2022-08-14T15:43:05.278Z</time>
      </trkpt>
      <trkpt lat="43.66928" lon="1.45248">
        <ele>183.835146</ele>
        <time>2022-08-14T15:43:07.288Z</time>
      </trkpt>
      <trkpt lat="43.66935" lon="1.45235">
        <ele>183.836095</ele>
        <time>2022-08-14T15:43:09.292Z</time>
      </trkpt>
      <trkpt lat="43.66946" lon="1.45229">
        <ele>183.837042</ele>
        <time>2022-08-14T15:43:11.302Z</time>
      </trkpt>
      <trkpt lat="43.66958" lon="1.45229">
        <ele>183.838015</ele>
        <time>2022-08-14T15:43:13.297Z</time>
      </trkpt>
      <trkpt lat="43.6697" lon="1.45231">
        <ele>183.838978</ele>
        <time>2022-08-14T15:43:15.312Z</time>
      </trkpt>
      <trkpt lat="43.66982" lon="1.4523">
        <ele>183.839936</ele>
        <time>2022-08-14T15:43:17.299Z</time>
      </trkpt>
      <trkpt lat="43.66994" lon="1.45227">
        <ele>183.840885</ele>
        <time>2022-08-14T15:43:19.272Z</time>
      </trkpt>
      <trkpt lat="43.67005" lon="1.45219">
        <ele>183.841867</ele>
        <time>2022-08-14T15:43:21.298Z</time>
      </trkpt>
      <trkpt lat="43.67012" lon="1.45205">
        <ele>183.842811</ele>
        <time>2022-08-14T15:43:23.293Z</time>
      </trkpt>
      <trkpt lat="43.67019" lon="1.45191">
        <ele>183.843817</ele>
        <time>2022-08-14T15:43:25.292Z</time>
      </trkpt>
      <trkpt lat="43.67024" lon="1.45175">
        <ele>183.844785</ele>
        <time>2022-08-14T15:43:27.289Z</time>
      </trkpt>
      <trkpt lat="43.67025" lon="1.45161">
        <ele>183.84562</ele>
        <time>2022-08-14T15:43:29.286Z</time>
      </trkpt>
      <trkpt lat="43.67016" lon="1.45154">
        <ele>183.846432</ele>
        <time>2022-08-14T15:43:31.304Z</time>
      </trkpt>
      <trkpt lat="43.67011" lon="1.4514">
        <ele>183.845194</ele>
        <time>2022-08-14T15:43:33.290Z</time>
      </trkpt>
      <trkpt lat="43.67005" lon="1.45125">
        <ele>183.838365</ele>
        <time>2022-08-14T15:43:35.293Z</time>
      </trkpt>
      <trkpt lat="43.66998" lon="1.45111">
        <ele>183.831346</ele>
        <time>2022-08-14T15:43:37.301Z</time>
      </trkpt>
      <trkpt lat="43.6699" lon="1.45097">
        <ele>183.823982</ele>
        <time>2022-08-14T15:43:39.281Z</time>
      </trkpt>
      <trkpt lat="43.66983" lon="1.45084">
        <ele>183.816932</ele>
        <time>2022-08-14T15:43:41.317Z</time>
      </trkpt>
      <trkpt lat="43.66976" lon="1.4507">
        <ele>183.810111</ele>
        <time>2022-08-14T15:43:43.288Z</time>
      </trkpt>
      <trkpt lat="43.66969" lon="1.45056">
        <ele>183.802859</ele>
        <time>2022-08-14T15:43:45.302Z</time>
      </trkpt>
      <trkpt lat="43.66962" lon="1.45042">
        <ele>183.795775</ele>
        <time>2022-08-14T15:43:47.301Z</time>
      </trkpt>
      <trkpt lat="43.66956" lon="1.45027">
        <ele>183.788717</ele>
        <time>2022-08-14T15:43:49.297Z</time>
      </trkpt>
      <trkpt lat="43.6695" lon="1.45012">
        <ele>183.781651</ele>
        <time>2022-08-14T15:43:51.287Z</time>
      </trkpt>
      <trkpt lat="43.66944" lon="1.44997">
        <ele>183.774731</ele>
        <time>2022-08-14T15:43:53.295Z</time>
      </trkpt>
      <trkpt lat="43.66939" lon="1.44982">
        <ele>183.767925</ele>
        <time>2022-08-14T15:43:55.322Z</time>
      </trkpt>
      <trkpt lat="43.66933" lon="1.44968">
        <ele>183.76116</ele>
        <time>2022-08-14T15:43:57.269Z</time>
      </trkpt>
      <trkpt lat="43.66927" lon="1.44954">
        <ele>183.754428</ele>
        <time>2022-08-14T15:43:59.273Z</time>
      </trkpt>
      <trkpt lat="43.66919" lon="1.44943">
        <ele>183.747603</ele>
        <time>2022-08-14T15:44:01.298Z</time>
      </trkpt>
      <trkpt lat="43.66907" lon="1.44936">
        <ele>183.748906</ele>
        <time>2022-08-14T15:44:03.292Z</time>
      </trkpt>
      <trkpt lat="43.66895" lon="1.44933">
        <ele>183.75883</ele>
        <time>2022-08-14T15:44:05.299Z</time>
      </trkpt>
      <trkpt lat="43.66882" lon="1.44931">
        <ele>183.768909</ele>
        <time>2022-08-14T15:44:07.267Z</time>
      </trkpt>
      <trkpt lat="43.6687" lon="1.44929">
        <ele>183.778758</ele>
        <time>2022-08-14T15:44:09.297Z</time>
      </trkpt>
      <trkpt lat="43.66858" lon="1.44926">
        <ele>183.788466</ele>
        <time>2022-08-14T15:44:11.272Z</time>
      </trkpt>
      <trkpt lat="43.66847" lon="1.44923">
        <ele>183.797987</ele>
        <time>2022-08-14T15:44:13.286Z</time>
      </trkpt>
      <trkpt lat="43.66835" lon="1.44919">
        <ele>183.807424</ele>
        <time>2022-08-14T15:44:15.284Z</time>
      </trkpt>
      <trkpt lat="43.66824" lon="1.44915">
        <ele>183.816627</ele>
        <time>2022-08-14T15:44:17.285Z</time>
      </trkpt>
      <trkpt lat="43.66812" lon="1.44911">
        <ele>183.82674</ele>
        <time>2022-08-14T15:44:19.293Z</time>
      </trkpt>
      <trkpt lat="43.668" lon="1.44906">
        <ele>183.836298</ele>
        <time>2022-08-14T15:44:21.287Z</time>
      </trkpt>
      <trkpt lat="43.66789" lon="1.449">
        <ele>183.845882</ele>
        <time>2022-08-14T15:44:23.293Z</time>
      </trkpt>
      <trkpt lat="43.66779" lon="1.44891">
        <ele>183.855492</ele>
        <time>2022-08-14T15:44:25.274Z</time>
      </trkpt>
      <trkpt lat="43.66769" lon="1.44882">
        <ele>183.865025</ele>
        <time>2022-08-14T15:44:27.281Z</time>
      </trkpt>
      <trkpt lat="43.66761" lon="1.4487">
        <ele>183.874485</ele>
        <time>2022-08-14T15:44:29.281Z</time>
      </trkpt>
      <trkpt lat="43.66757" lon="1.44854">
        <ele>183.884</ele>
        <time>2022-08-14T15:44:31.296Z</time>
      </trkpt>
      <trkpt lat="43.66755" lon="1.44838">
        <ele>183.928514</ele>
        <time>2022-08-14T15:44:33.326Z</time>
      </trkpt>
      <trkpt lat="43.66749" lon="1.44824">
        <ele>183.994323</ele>
        <time>2022-08-14T15:44:35.306Z</time>
      </trkpt>
      <trkpt lat="43.66738" lon="1.44819">
        <ele>184.060472</ele>
        <time>2022-08-14T15:44:37.302Z</time>
      </trkpt>
      <trkpt lat="43.66726" lon="1.44823">
        <ele>184.127303</ele>
        <time>2022-08-14T15:44:39.290Z</time>
      </trkpt>
      <trkpt lat="43.66716" lon="1.44831">
        <ele>184.194185</ele>
        <time>2022-08-14T15:44:41.301Z</time>
      </trkpt>
      <trkpt lat="43.66706" lon="1.44841">
        <ele>184.263647</ele>
        <time>2022-08-14T15:44:43.292Z</time>
      </trkpt>
      <trkpt lat="43.66695" lon="1.4485">
        <ele>184.331787</ele>
        <time>2022-08-14T15:44:45.291Z</time>
      </trkpt>
      <trkpt lat="43.66683" lon="1.44856">
        <ele>184.403654</ele>
        <time>2022-08-14T15:44:47.298Z</time>
      </trkpt>
      <trkpt lat="43.66671" lon="1.44859">
        <ele>184.474274</ele>
        <time>2022-08-14T15:44:49.289Z</time>
      </trkpt>
      <trkpt lat="43.66659" lon="1.44859">
        <ele>184.543836</ele>
        <time>2022-08-14T15:44:51.286Z</time>
      </trkpt>
      <trkpt lat="43.66646" lon="1.44858">
        <ele>184.612336</ele>
        <time>2022-08-14T15:44:53.293Z</time>
      </trkpt>
      <trkpt lat="43.66635" lon="1.44853">
        <ele>184.681131</ele>
        <time>2022-08-14T15:44:55.300Z</time>
      </trkpt>
      <trkpt lat="43.66625" lon="1.44843">
        <ele>184.74944</ele>
        <time>2022-08-14T15:44:57.294Z</time>
      </trkpt>
      <trkpt lat="43.66617" lon="1.4483">
        <ele>184.816685</ele>
        <time>2022-08-14T15:44:59.294Z</time>
      </trkpt>
      <trkpt lat="43.66609" lon="1.44818">
        <ele>184.883674</ele>
        <time>2022-08-14T15:45:01.303Z</time>
      </trkpt>
      <trkpt lat="43.66603" lon="1.44809">
        <ele>184.982287</ele>
        <time>2022-08-14T15:45:03.318Z</time>
      </trkpt>
      <trkpt lat="43.66599" lon="1.44796">
        <ele>185.106134</ele>
        <time>2022-08-14T15:45:06.293Z</time>
      </trkpt>
      <trkpt lat="43.66588" lon="1.44786">
        <ele>185.27441</ele>
        <time>2022-08-14T15:45:10.324Z</time>
      </trkpt>
      <trkpt lat="43.66582" lon="1.44774">
        <ele>185.411498</ele>
        <time>2022-08-14T15:45:12.289Z</time>
      </trkpt>
      <trkpt lat="43.66573" lon="1.44762">
        <ele>185.561414</ele>
        <time>2022-08-14T15:45:14.307Z</time>
      </trkpt>
      <trkpt lat="43.66566" lon="1.44751">
        <ele>185.703877</ele>
        <time>2022-08-14T15:45:16.295Z</time>
      </trkpt>
      <trkpt lat="43.66557" lon="1.4474">
        <ele>185.848431</ele>
        <time>2022-08-14T15:45:18.281Z</time>
      </trkpt>
      <trkpt lat="43.66549" lon="1.4473">
        <ele>185.990716</ele>
        <time>2022-08-14T15:45:20.305Z</time>
      </trkpt>
      <trkpt lat="43.66538" lon="1.44723">
        <ele>186.13945</ele>
        <time>2022-08-14T15:45:22.300Z</time>
      </trkpt>
      <trkpt lat="43.66527" lon="1.44716">
        <ele>186.286644</ele>
        <time>2022-08-14T15:45:24.319Z</time>
      </trkpt>
      <trkpt lat="43.66518" lon="1.4471">
        <ele>186.421251</ele>
        <time>2022-08-14T15:45:26.277Z</time>
      </trkpt>
      <trkpt lat="43.66508" lon="1.44714">
        <ele>186.550745</ele>
        <time>2022-08-14T15:45:31.305Z</time>
      </trkpt>
      <trkpt lat="43.66504" lon="1.44726">
        <ele>186.669895</ele>
        <time>2022-08-14T15:45:33.319Z</time>
      </trkpt>
      <trkpt lat="43.665" lon="1.44739">
        <ele>186.801614</ele>
        <time>2022-08-14T15:45:35.343Z</time>
      </trkpt>
      <trkpt lat="43.66494" lon="1.44754">
        <ele>186.953154</ele>
        <time>2022-08-14T15:45:37.290Z</time>
      </trkpt>
      <trkpt lat="43.66488" lon="1.44768">
        <ele>187.10309</ele>
        <time>2022-08-14T15:45:39.286Z</time>
      </trkpt>
      <trkpt lat="43.66482" lon="1.44783">
        <ele>187.131493</ele>
        <time>2022-08-14T15:45:41.280Z</time>
      </trkpt>
      <trkpt lat="43.66476" lon="1.44797">
        <ele>187.069443</ele>
        <time>2022-08-14T15:45:43.305Z</time>
      </trkpt>
      <trkpt lat="43.66469" lon="1.44812">
        <ele>187.00415</ele>
        <time>2022-08-14T15:45:45.275Z</time>
      </trkpt>
      <trkpt lat="43.66463" lon="1.44828">
        <ele>186.936206</ele>
        <time>2022-08-14T15:45:47.291Z</time>
      </trkpt>
      <trkpt lat="43.66458" lon="1.44845">
        <ele>186.867591</ele>
        <time>2022-08-14T15:45:49.276Z</time>
      </trkpt>
      <trkpt lat="43.66453" lon="1.44862">
        <ele>186.798334</ele>
        <time>2022-08-14T15:45:51.287Z</time>
      </trkpt>
      <trkpt lat="43.66449" lon="1.4488">
        <ele>186.729573</ele>
        <time>2022-08-14T15:45:53.290Z</time>
      </trkpt>
      <trkpt lat="43.66444" lon="1.44897">
        <ele>186.659602</ele>
        <time>2022-08-14T15:45:55.293Z</time>
      </trkpt>
      <trkpt lat="43.66438" lon="1.44914">
        <ele>186.589911</ele>
        <time>2022-08-14T15:45:57.276Z</time>
      </trkpt>
      <trkpt lat="43.66434" lon="1.44932">
        <ele>186.519099</ele>
        <time>2022-08-14T15:45:59.277Z</time>
      </trkpt>
      <trkpt lat="43.6643" lon="1.44948">
        <ele>186.456175</ele>
        <time>2022-08-14T15:46:01.278Z</time>
      </trkpt>
      <trkpt lat="43.66424" lon="1.44963">
        <ele>186.392822</ele>
        <time>2022-08-14T15:46:03.283Z</time>
      </trkpt>
      <trkpt lat="43.66419" lon="1.44979">
        <ele>186.329425</ele>
        <time>2022-08-14T15:46:05.277Z</time>
      </trkpt>
      <trkpt lat="43.66414" lon="1.44995">
        <ele>186.262255</ele>
        <time>2022-08-14T15:46:07.296Z</time>
      </trkpt>
      <trkpt lat="43.6641" lon="1.45011">
        <ele>186.2712</ele>
        <time>2022-08-14T15:46:09.260Z</time>
      </trkpt>
      <trkpt lat="43.66408" lon="1.45027">
        <ele>186.314866</ele>
        <time>2022-08-14T15:46:11.290Z</time>
      </trkpt>
      <trkpt lat="43.66403" lon="1.45043">
        <ele>186.360449</ele>
        <time>2022-08-14T15:46:13.283Z</time>
      </trkpt>
      <trkpt lat="43.66397" lon="1.45058">
        <ele>186.4056</ele>
        <time>2022-08-14T15:46:15.277Z</time>
      </trkpt>
      <trkpt lat="43.66393" lon="1.45073">
        <ele>186.449969</ele>
        <time>2022-08-14T15:46:17.299Z</time>
      </trkpt>
      <trkpt lat="43.6639" lon="1.45089">
        <ele>186.495033</ele>
        <time>2022-08-14T15:46:19.278Z</time>
      </trkpt>
      <trkpt lat="43.66383" lon="1.45103">
        <ele>186.539662</ele>
        <time>2022-08-14T15:46:21.290Z</time>
      </trkpt>
      <trkpt lat="43.66377" lon="1.45118">
        <ele>186.584444</ele>
        <time>2022-08-14T15:46:23.280Z</time>
      </trkpt>
      <trkpt lat="43.66372" lon="1.45132">
        <ele>186.629803</ele>
        <time>2022-08-14T15:46:25.283Z</time>
      </trkpt>
      <trkpt lat="43.66366" lon="1.45146">
        <ele>186.671694</ele>
        <time>2022-08-14T15:46:27.268Z</time>
      </trkpt>
      <trkpt lat="43.6636" lon="1.45159">
        <ele>186.71474</ele>
        <time>2022-08-14T15:46:29.272Z</time>
      </trkpt>
      <trkpt lat="43.66358" lon="1.45173">
        <ele>186.752198</ele>
        <time>2022-08-14T15:46:31.260Z</time>
      </trkpt>
      <trkpt lat="43.66362" lon="1.45186">
        <ele>186.792048</ele>
        <time>2022-08-14T15:46:33.290Z</time>
      </trkpt>
      <trkpt lat="43.66357" lon="1.45197">
        <ele>186.826829</ele>
        <time>2022-08-14T15:46:35.273Z</time>
      </trkpt>
      <trkpt lat="43.66352" lon="1.45211">
        <ele>186.868873</ele>
        <time>2022-08-14T15:46:37.271Z</time>
      </trkpt>
      <trkpt lat="43.66344" lon="1.45224">
        <ele>186.911964</ele>
        <time>2022-08-14T15:46:39.299Z</time>
      </trkpt>
      <trkpt lat="43.66335" lon="1.45238">
        <ele>186.924076</ele>
        <time>2022-08-14T15:46:41.288Z</time>
      </trkpt>
      <trkpt lat="43.66324" lon="1.4525">
        <ele>186.936944</ele>
        <time>2022-08-14T15:46:43.253Z</time>
      </trkpt>
      <trkpt lat="43.66313" lon="1.45266">
        <ele>186.951656</ele>
        <time>2022-08-14T15:46:45.270Z</time>
      </trkpt>
      <trkpt lat="43.66303" lon="1.4528">
        <ele>186.965205</ele>
        <time>2022-08-14T15:46:47.298Z</time>
      </trkpt>
      <trkpt lat="43.66293" lon="1.45292">
        <ele>186.977299</ele>
        <time>2022-08-14T15:46:49.267Z</time>
      </trkpt>
      <trkpt lat="43.66287" lon="1.45306">
        <ele>186.987661</ele>
        <time>2022-08-14T15:46:51.264Z</time>
      </trkpt>
      <trkpt lat="43.6628" lon="1.45318">
        <ele>186.998629</ele>
        <time>2022-08-14T15:46:53.272Z</time>
      </trkpt>
      <trkpt lat="43.66275" lon="1.45333">
        <ele>187.009416</ele>
        <time>2022-08-14T15:46:55.276Z</time>
      </trkpt>
      <trkpt lat="43.66274" lon="1.45349">
        <ele>187.02025</ele>
        <time>2022-08-14T15:46:57.292Z</time>
      </trkpt>
      <trkpt lat="43.66278" lon="1.45364">
        <ele>187.031209</ele>
        <time>2022-08-14T15:46:59.255Z</time>
      </trkpt>
      <trkpt lat="43.66281" lon="1.4538">
        <ele>187.041763</ele>
        <time>2022-08-14T15:47:01.287Z</time>
      </trkpt>
      <trkpt lat="43.66276" lon="1.45395">
        <ele>187.052783</ele>
        <time>2022-08-14T15:47:03.268Z</time>
      </trkpt>
      <trkpt lat="43.6627" lon="1.45411">
        <ele>187.064878</ele>
        <time>2022-08-14T15:47:05.298Z</time>
      </trkpt>
      <trkpt lat="43.66266" lon="1.45427">
        <ele>187.075867</ele>
        <time>2022-08-14T15:47:07.273Z</time>
      </trkpt>
      <trkpt lat="43.66262" lon="1.45442">
        <ele>187.046882</ele>
        <time>2022-08-14T15:47:09.297Z</time>
      </trkpt>
      <trkpt lat="43.66259" lon="1.45457">
        <ele>187.014246</ele>
        <time>2022-08-14T15:47:11.271Z</time>
      </trkpt>
      <trkpt lat="43.66255" lon="1.45472">
        <ele>186.981677</ele>
        <time>2022-08-14T15:47:13.301Z</time>
      </trkpt>
      <trkpt lat="43.66251" lon="1.45486">
        <ele>186.949868</ele>
        <time>2022-08-14T15:47:15.307Z</time>
      </trkpt>
      <trkpt lat="43.66246" lon="1.45501">
        <ele>186.917044</ele>
        <time>2022-08-14T15:47:17.296Z</time>
      </trkpt>
      <trkpt lat="43.66242" lon="1.45516">
        <ele>186.884107</ele>
        <time>2022-08-14T15:47:19.287Z</time>
      </trkpt>
      <trkpt lat="43.66238" lon="1.45531">
        <ele>186.85127</ele>
        <time>2022-08-14T15:47:21.293Z</time>
      </trkpt>
      <trkpt lat="43.66234" lon="1.45545">
        <ele>186.820075</ele>
        <time>2022-08-14T15:47:23.310Z</time>
      </trkpt>
      <trkpt lat="43.66229" lon="1.4556">
        <ele>186.785846</ele>
        <time>2022-08-14T15:47:25.291Z</time>
      </trkpt>
      <trkpt lat="43.66224" lon="1.45575">
        <ele>186.752039</ele>
        <time>2022-08-14T15:47:27.304Z</time>
      </trkpt>
      <trkpt lat="43.66219" lon="1.4559">
        <ele>186.716578</ele>
        <time>2022-08-14T15:47:29.299Z</time>
      </trkpt>
      <trkpt lat="43.66214" lon="1.45606">
        <ele>186.683064</ele>
        <time>2022-08-14T15:47:31.323Z</time>
      </trkpt>
      <trkpt lat="43.6621" lon="1.4562">
        <ele>186.650354</ele>
        <time>2022-08-14T15:47:33.304Z</time>
      </trkpt>
      <trkpt lat="43.66201" lon="1.4563">
        <ele>186.617878</ele>
        <time>2022-08-14T15:47:35.329Z</time>
      </trkpt>
      <trkpt lat="43.6619" lon="1.45629">
        <ele>186.586281</ele>
        <time>2022-08-14T15:47:37.311Z</time>
      </trkpt>
      <trkpt lat="43.66181" lon="1.45618">
        <ele>186.5987</ele>
        <time>2022-08-14T15:47:39.305Z</time>
      </trkpt>
      <trkpt lat="43.66173" lon="1.45606">
        <ele>186.684154</ele>
        <time>2022-08-14T15:47:41.316Z</time>
      </trkpt>
      <trkpt lat="43.66165" lon="1.45594">
        <ele>186.763987</ele>
        <time>2022-08-14T15:47:43.311Z</time>
      </trkpt>
      <trkpt lat="43.66157" lon="1.45584">
        <ele>186.839923</ele>
        <time>2022-08-14T15:47:45.291Z</time>
      </trkpt>
      <trkpt lat="43.66147" lon="1.45576">
        <ele>186.919475</ele>
        <time>2022-08-14T15:47:47.295Z</time>
      </trkpt>
      <trkpt lat="43.66137" lon="1.45566">
        <ele>187.001452</ele>
        <time>2022-08-14T15:47:49.289Z</time>
      </trkpt>
      <trkpt lat="43.66127" lon="1.45558">
        <ele>187.083306</ele>
        <time>2022-08-14T15:47:51.282Z</time>
      </trkpt>
      <trkpt lat="43.66118" lon="1.45549">
        <ele>187.164155</ele>
        <time>2022-08-14T15:47:53.282Z</time>
      </trkpt>
      <trkpt lat="43.66107" lon="1.45542">
        <ele>187.247862</ele>
        <time>2022-08-14T15:47:55.277Z</time>
      </trkpt>
      <trkpt lat="43.66096" lon="1.45535">
        <ele>187.331538</ele>
        <time>2022-08-14T15:47:57.283Z</time>
      </trkpt>
      <trkpt lat="43.66085" lon="1.45529">
        <ele>187.413012</ele>
        <time>2022-08-14T15:47:59.291Z</time>
      </trkpt>
      <trkpt lat="43.66075" lon="1.45532">
        <ele>187.486894</ele>
        <time>2022-08-14T15:48:01.277Z</time>
      </trkpt>
      <trkpt lat="43.66062" lon="1.4553">
        <ele>187.572151</ele>
        <time>2022-08-14T15:48:03.293Z</time>
      </trkpt>
      <trkpt lat="43.66051" lon="1.45524">
        <ele>187.65686</ele>
        <time>2022-08-14T15:48:05.297Z</time>
      </trkpt>
      <trkpt lat="43.6604" lon="1.45517">
        <ele>187.741795</ele>
        <time>2022-08-14T15:48:07.314Z</time>
      </trkpt>
      <trkpt lat="43.66029" lon="1.45509">
        <ele>187.835283</ele>
        <time>2022-08-14T15:48:09.323Z</time>
      </trkpt>
      <trkpt lat="43.6602" lon="1.45499">
        <ele>187.99163</ele>
        <time>2022-08-14T15:48:11.312Z</time>
      </trkpt>
      <trkpt lat="43.66011" lon="1.45491">
        <ele>188.139105</ele>
        <time>2022-08-14T15:48:13.293Z</time>
      </trkpt>
      <trkpt lat="43.66001" lon="1.45485">
        <ele>188.285713</ele>
        <time>2022-08-14T15:48:15.286Z</time>
      </trkpt>
      <trkpt lat="43.65991" lon="1.4548">
        <ele>188.433648</ele>
        <time>2022-08-14T15:48:17.300Z</time>
      </trkpt>
      <trkpt lat="43.6598" lon="1.45475">
        <ele>188.579994</ele>
        <time>2022-08-14T15:48:19.311Z</time>
      </trkpt>
      <trkpt lat="43.65973" lon="1.45465">
        <ele>188.723214</ele>
        <time>2022-08-14T15:48:21.301Z</time>
      </trkpt>
      <trkpt lat="43.65964" lon="1.45455">
        <ele>188.885566</ele>
        <time>2022-08-14T15:48:23.289Z</time>
      </trkpt>
      <trkpt lat="43.65951" lon="1.45452">
        <ele>189.055933</ele>
        <time>2022-08-14T15:48:25.290Z</time>
      </trkpt>
      <trkpt lat="43.65938" lon="1.45457">
        <ele>189.237973</ele>
        <time>2022-08-14T15:48:27.291Z</time>
      </trkpt>
      <trkpt lat="43.65927" lon="1.45466">
        <ele>189.414486</ele>
        <time>2022-08-14T15:48:29.288Z</time>
      </trkpt>
      <trkpt lat="43.65915" lon="1.45471">
        <ele>189.584684</ele>
        <time>2022-08-14T15:48:31.308Z</time>
      </trkpt>
      <trkpt lat="43.65902" lon="1.45472">
        <ele>189.751167</ele>
        <time>2022-08-14T15:48:33.296Z</time>
      </trkpt>
      <trkpt lat="43.6589" lon="1.45473">
        <ele>189.920398</ele>
        <time>2022-08-14T15:48:35.289Z</time>
      </trkpt>
      <trkpt lat="43.65878" lon="1.45475">
        <ele>190.086501</ele>
        <time>2022-08-14T15:48:37.295Z</time>
      </trkpt>
      <trkpt lat="43.65865" lon="1.45476">
        <ele>190.237832</ele>
        <time>2022-08-14T15:48:39.284Z</time>
      </trkpt>
      <trkpt lat="43.65852" lon="1.4548">
        <ele>190.122789</ele>
        <time>2022-08-14T15:48:41.312Z</time>
      </trkpt>
      <trkpt lat="43.6584" lon="1.45484">
        <ele>190.010859</ele>
        <time>2022-08-14T15:48:43.305Z</time>
      </trkpt>
      <trkpt lat="43.65828" lon="1.45488">
        <ele>189.901114</ele>
        <time>2022-08-14T15:48:45.295Z</time>
      </trkpt>
      <trkpt lat="43.65816" lon="1.45492">
        <ele>189.790354</ele>
        <time>2022-08-14T15:48:47.302Z</time>
      </trkpt>
      <trkpt lat="43.65804" lon="1.45495">
        <ele>189.680299</ele>
        <time>2022-08-14T15:48:49.298Z</time>
      </trkpt>
      <trkpt lat="43.65792" lon="1.45493">
        <ele>189.572532</ele>
        <time>2022-08-14T15:48:51.315Z</time>
      </trkpt>
      <trkpt lat="43.6578" lon="1.45488">
        <ele>189.460283</ele>
        <time>2022-08-14T15:48:53.300Z</time>
      </trkpt>
      <trkpt lat="43.65768" lon="1.45485">
        <ele>189.350825</ele>
        <time>2022-08-14T15:48:55.310Z</time>
      </trkpt>
      <trkpt lat="43.65756" lon="1.45482">
        <ele>189.241907</ele>
        <time>2022-08-14T15:48:57.295Z</time>
      </trkpt>
      <trkpt lat="43.65744" lon="1.45478">
        <ele>189.131704</ele>
        <time>2022-08-14T15:48:59.298Z</time>
      </trkpt>
      <trkpt lat="43.65731" lon="1.45477">
        <ele>189.018551</ele>
        <time>2022-08-14T15:49:01.303Z</time>
      </trkpt>
      <trkpt lat="43.65718" lon="1.45473">
        <ele>188.901126</ele>
        <time>2022-08-14T15:49:03.306Z</time>
      </trkpt>
      <trkpt lat="43.65705" lon="1.45467">
        <ele>188.77801</ele>
        <time>2022-08-14T15:49:05.288Z</time>
      </trkpt>
      <trkpt lat="43.65691" lon="1.45462">
        <ele>188.652214</ele>
        <time>2022-08-14T15:49:07.305Z</time>
      </trkpt>
      <trkpt lat="43.65678" lon="1.45457">
        <ele>188.639575</ele>
        <time>2022-08-14T15:49:09.308Z</time>
      </trkpt>
      <trkpt lat="43.65665" lon="1.45451">
        <ele>188.633498</ele>
        <time>2022-08-14T15:49:11.308Z</time>
      </trkpt>
      <trkpt lat="43.65652" lon="1.45446">
        <ele>188.627523</ele>
        <time>2022-08-14T15:49:13.291Z</time>
      </trkpt>
      <trkpt lat="43.6564" lon="1.45441">
        <ele>188.621644</ele>
        <time>2022-08-14T15:49:15.298Z</time>
      </trkpt>
      <trkpt lat="43.65628" lon="1.45435">
        <ele>188.615866</ele>
        <time>2022-08-14T15:49:17.290Z</time>
      </trkpt>
      <trkpt lat="43.65616" lon="1.45429">
        <ele>188.610194</ele>
        <time>2022-08-14T15:49:19.309Z</time>
      </trkpt>
      <trkpt lat="43.65604" lon="1.45425">
        <ele>188.604672</ele>
        <time>2022-08-14T15:49:21.289Z</time>
      </trkpt>
      <trkpt lat="43.65593" lon="1.4542">
        <ele>188.599289</ele>
        <time>2022-08-14T15:49:23.294Z</time>
      </trkpt>
      <trkpt lat="43.65581" lon="1.45416">
        <ele>188.593888</ele>
        <time>2022-08-14T15:49:25.306Z</time>
      </trkpt>
      <trkpt lat="43.65569" lon="1.45412">
        <ele>188.588474</ele>
        <time>2022-08-14T15:49:27.296Z</time>
      </trkpt>
      <trkpt lat="43.65558" lon="1.45408">
        <ele>188.5831</ele>
        <time>2022-08-14T15:49:29.297Z</time>
      </trkpt>
      <trkpt lat="43.65546" lon="1.45404">
        <ele>188.577715</ele>
        <time>2022-08-14T15:49:31.293Z</time>
      </trkpt>
      <trkpt lat="43.65535" lon="1.454">
        <ele>188.572329</ele>
        <time>2022-08-14T15:49:33.296Z</time>
      </trkpt>
      <trkpt lat="43.65523" lon="1.45396">
        <ele>188.566912</ele>
        <time>2022-08-14T15:49:35.322Z</time>
      </trkpt>
      <trkpt lat="43.65511" lon="1.45392">
        <ele>188.555045</ele>
        <time>2022-08-14T15:49:37.299Z</time>
      </trkpt>
      <trkpt lat="43.65499" lon="1.45387">
        <ele>188.53754</ele>
        <time>2022-08-14T15:49:39.287Z</time>
      </trkpt>
      <trkpt lat="43.65487" lon="1.45383">
        <ele>188.520226</ele>
        <time>2022-08-14T15:49:41.312Z</time>
      </trkpt>
      <trkpt lat="43.65476" lon="1.45378">
        <ele>188.503288</ele>
        <time>2022-08-14T15:49:43.275Z</time>
      </trkpt>
      <trkpt lat="43.65465" lon="1.45373">
        <ele>188.487037</ele>
        <time>2022-08-14T15:49:45.298Z</time>
      </trkpt>
      <trkpt lat="43.65454" lon="1.4537">
        <ele>188.470471</ele>
        <time>2022-08-14T15:49:47.280Z</time>
      </trkpt>
      <trkpt lat="43.65443" lon="1.45366">
        <ele>188.454546</ele>
        <time>2022-08-14T15:49:49.284Z</time>
      </trkpt>
      <trkpt lat="43.65437" lon="1.45357">
        <ele>188.441356</ele>
        <time>2022-08-14T15:49:51.293Z</time>
      </trkpt>
      <trkpt lat="43.65441" lon="1.45343">
        <ele>188.425767</ele>
        <time>2022-08-14T15:49:53.305Z</time>
      </trkpt>
      <trkpt lat="43.6545" lon="1.45331">
        <ele>188.407952</ele>
        <time>2022-08-14T15:49:55.273Z</time>
      </trkpt>
      <trkpt lat="43.65457" lon="1.45316">
        <ele>188.389766</ele>
        <time>2022-08-14T15:49:57.321Z</time>
      </trkpt>
      <trkpt lat="43.65464" lon="1.45302">
        <ele>188.372574</ele>
        <time>2022-08-14T15:49:59.277Z</time>
      </trkpt>
      <trkpt lat="43.65474" lon="1.45292">
        <ele>188.355007</ele>
        <time>2022-08-14T15:50:01.275Z</time>
      </trkpt>
      <trkpt lat="43.65484" lon="1.45282">
        <ele>188.337811</ele>
        <time>2022-08-14T15:50:03.271Z</time>
      </trkpt>
      <trkpt lat="43.65493" lon="1.45272">
        <ele>188.320944</ele>
        <time>2022-08-14T15:50:05.292Z</time>
      </trkpt>
      <trkpt lat="43.65502" lon="1.45262">
        <ele>188.315318</ele>
        <time>2022-08-14T15:50:07.300Z</time>
      </trkpt>
      <trkpt lat="43.65512" lon="1.45251">
        <ele>188.332693</ele>
        <time>2022-08-14T15:50:09.297Z</time>
      </trkpt>
      <trkpt lat="43.65522" lon="1.45242">
        <ele>188.349693</ele>
        <time>2022-08-14T15:50:11.288Z</time>
      </trkpt>
      <trkpt lat="43.6553" lon="1.45231">
        <ele>188.366381</ele>
        <time>2022-08-14T15:50:13.297Z</time>
      </trkpt>
      <trkpt lat="43.6554" lon="1.4522">
        <ele>188.383836</ele>
        <time>2022-08-14T15:50:15.297Z</time>
      </trkpt>
      <trkpt lat="43.6555" lon="1.4521">
        <ele>188.401136</ele>
        <time>2022-08-14T15:50:17.291Z</time>
      </trkpt>
      <trkpt lat="43.65559" lon="1.452">
        <ele>188.417869</ele>
        <time>2022-08-14T15:50:19.279Z</time>
      </trkpt>
      <trkpt lat="43.65568" lon="1.4519">
        <ele>188.43513</ele>
        <time>2022-08-14T15:50:21.299Z</time>
      </trkpt>
      <trkpt lat="43.65578" lon="1.4518">
        <ele>188.452039</ele>
        <time>2022-08-14T15:50:23.304Z</time>
      </trkpt>
      <trkpt lat="43.65586" lon="1.45168">
        <ele>188.468917</ele>
        <time>2022-08-14T15:50:25.283Z</time>
      </trkpt>
      <trkpt lat="43.65594" lon="1.45157">
        <ele>188.48539</ele>
        <time>2022-08-14T15:50:27.284Z</time>
      </trkpt>
      <trkpt lat="43.65602" lon="1.45145">
        <ele>188.502365</ele>
        <time>2022-08-14T15:50:29.284Z</time>
      </trkpt>
      <trkpt lat="43.65604" lon="1.45129">
        <ele>188.519122</ele>
        <time>2022-08-14T15:50:31.304Z</time>
      </trkpt>
      <trkpt lat="43.65599" lon="1.45114">
        <ele>188.536099</ele>
        <time>2022-08-14T15:50:33.282Z</time>
      </trkpt>
      <trkpt lat="43.65591" lon="1.45102">
        <ele>188.553302</ele>
        <time>2022-08-14T15:50:35.273Z</time>
      </trkpt>
      <trkpt lat="43.65583" lon="1.45091">
        <ele>188.575929</ele>
        <time>2022-08-14T15:50:37.273Z</time>
      </trkpt>
      <trkpt lat="43.65575" lon="1.45079">
        <ele>188.624324</ele>
        <time>2022-08-14T15:50:39.271Z</time>
      </trkpt>
      <trkpt lat="43.65567" lon="1.4507">
        <ele>188.667196</ele>
        <time>2022-08-14T15:50:41.274Z</time>
      </trkpt>
      <trkpt lat="43.6556" lon="1.4506">
        <ele>188.706889</ele>
        <time>2022-08-14T15:50:43.299Z</time>
      </trkpt>
      <trkpt lat="43.65552" lon="1.45049">
        <ele>188.75442</ele>
        <time>2022-08-14T15:50:45.302Z</time>
      </trkpt>
      <trkpt lat="43.65545" lon="1.45037">
        <ele>188.801166</ele>
        <time>2022-08-14T15:50:47.291Z</time>
      </trkpt>
      <trkpt lat="43.65537" lon="1.45025">
        <ele>188.848967</ele>
        <time>2022-08-14T15:50:49.281Z</time>
      </trkpt>
      <trkpt lat="43.65529" lon="1.45016">
        <ele>188.89055</ele>
        <time>2022-08-14T15:50:51.276Z</time>
      </trkpt>
      <trkpt lat="43.65522" lon="1.45006">
        <ele>188.934701</ele>
        <time>2022-08-14T15:50:53.312Z</time>
      </trkpt>
      <trkpt lat="43.65514" lon="1.44994">
        <ele>188.984111</ele>
        <time>2022-08-14T15:50:55.297Z</time>
      </trkpt>
      <trkpt lat="43.65505" lon="1.44981">
        <ele>189.034744</ele>
        <time>2022-08-14T15:50:57.316Z</time>
      </trkpt>
      <trkpt lat="43.65497" lon="1.44969">
        <ele>189.085294</ele>
        <time>2022-08-14T15:50:59.283Z</time>
      </trkpt>
      <trkpt lat="43.65489" lon="1.44957">
        <ele>189.136429</ele>
        <time>2022-08-14T15:51:01.288Z</time>
      </trkpt>
      <trkpt lat="43.65481" lon="1.44943">
        <ele>189.188682</ele>
        <time>2022-08-14T15:51:03.308Z</time>
      </trkpt>
      <trkpt lat="43.65477" lon="1.44927">
        <ele>189.23872</ele>
        <time>2022-08-14T15:51:05.286Z</time>
      </trkpt>
      <trkpt lat="43.65481" lon="1.44912">
        <ele>189.285942</ele>
        <time>2022-08-14T15:51:07.293Z</time>
      </trkpt>
      <trkpt lat="43.65486" lon="1.44898">
        <ele>189.289733</ele>
        <time>2022-08-14T15:51:09.310Z</time>
      </trkpt>
      <trkpt lat="43.65493" lon="1.44884">
        <ele>189.239599</ele>
        <time>2022-08-14T15:51:11.272Z</time>
      </trkpt>
      <trkpt lat="43.655" lon="1.44871">
        <ele>189.191892</ele>
        <time>2022-08-14T15:51:13.281Z</time>
      </trkpt>
      <trkpt lat="43.65506" lon="1.44858">
        <ele>189.145049</ele>
        <time>2022-08-14T15:51:15.303Z</time>
      </trkpt>
      <trkpt lat="43.65511" lon="1.44844">
        <ele>189.098478</ele>
        <time>2022-08-14T15:51:17.275Z</time>
      </trkpt>
      <trkpt lat="43.65515" lon="1.44829">
        <ele>189.050887</ele>
        <time>2022-08-14T15:51:19.288Z</time>
      </trkpt>
      <trkpt lat="43.65522" lon="1.44816">
        <ele>189.001969</ele>
        <time>2022-08-14T15:51:21.291Z</time>
      </trkpt>
      <trkpt lat="43.65531" lon="1.44805">
        <ele>188.953264</ele>
        <time>2022-08-14T15:51:23.285Z</time>
      </trkpt>
      <trkpt lat="43.6554" lon="1.44794">
        <ele>188.904558</ele>
        <time>2022-08-14T15:51:25.273Z</time>
      </trkpt>
      <trkpt lat="43.65546" lon="1.44781">
        <ele>188.856323</ele>
        <time>2022-08-14T15:51:27.296Z</time>
      </trkpt>
      <trkpt lat="43.65553" lon="1.44767">
        <ele>188.808108</ele>
        <time>2022-08-14T15:51:29.279Z</time>
      </trkpt>
      <trkpt lat="43.65559" lon="1.44754">
        <ele>188.758954</ele>
        <time>2022-08-14T15:51:31.311Z</time>
      </trkpt>
      <trkpt lat="43.65566" lon="1.4474">
        <ele>188.709547</ele>
        <time>2022-08-14T15:51:33.281Z</time>
      </trkpt>
      <trkpt lat="43.65573" lon="1.44727">
        <ele>188.660632</ele>
        <time>2022-08-14T15:51:35.272Z</time>
      </trkpt>
      <trkpt lat="43.6558" lon="1.44713">
        <ele>188.611479</ele>
        <time>2022-08-14T15:51:37.303Z</time>
      </trkpt>
      <trkpt lat="43.65587" lon="1.447">
        <ele>188.568915</ele>
        <time>2022-08-14T15:51:39.317Z</time>
      </trkpt>
      <trkpt lat="43.65594" lon="1.44687">
        <ele>188.568915</ele>
        <time>2022-08-14T15:51:41.299Z</time>
      </trkpt>
      <trkpt lat="43.656" lon="1.44673">
        <ele>188.568915</ele>
        <time>2022-08-14T15:51:43.294Z</time>
      </trkpt>
      <trkpt lat="43.65606" lon="1.44661">
        <ele>188.568915</ele>
        <time>2022-08-14T15:51:45.317Z</time>
      </trkpt>
      <trkpt lat="43.65606" lon="1.44646">
        <ele>188.568915</ele>
        <time>2022-08-14T15:51:48.298Z</time>
      </trkpt>
      <trkpt lat="43.65597" lon="1.4464">
        <ele>188.568915</ele>
        <time>2022-08-14T15:51:51.291Z</time>
      </trkpt>
      <trkpt lat="43.65588" lon="1.44635">
        <ele>188.568915</ele>
        <time>2022-08-14T15:51:54.304Z</time>
      </trkpt>
      <trkpt lat="43.65578" lon="1.44629">
        <ele>188.568915</ele>
        <time>2022-08-14T15:51:57.313Z</time>
      </trkpt>
      <trkpt lat="43.65582" lon="1.44614">
        <ele>188.568915</ele>
        <time>2022-08-14T15:52:02.306Z</time>
      </trkpt>
      <trkpt lat="43.65583" lon="1.44601">
        <ele>188.568915</ele>
        <time>2022-08-14T15:52:06.302Z</time>
      </trkpt>
      <trkpt lat="43.65578" lon="1.44606">
        <ele>188.568915</ele>
        <time>2022-08-14T15:52:27.931Z</time>
      </trkpt>
    </trkseg>
  </trk>
</gpx>